AA198 / N754AN 7700 Squawk Report (3rd of August, 2021)

Aircraft B772 Reg No. N754AN Age 20 years old
Model 777 Jet engines 2 First flight 01-06-01
Registered 18-06-01 Rollout 13-05-01 Delivered 18-06-01
Construction No. 30262 Line No. 0345 Series 223(ER)
ADSHEX AA28F2 Airline name American Airlines Owner N/A
Airfield based Dallas-Fort Worth~TX~N First tracked N/A

Flight history for N754AN

Route Flight No Date Playback
Charlotte Douglas (CLT) - Heathrow (LHR) AA730 2021-09-18 06:57:00
Miami Intl (MIA) - Charlotte Douglas (CLT) AA2358 2021-09-17 21:35:00
Charlotte Douglas (CLT) - Miami Intl (MIA) AA2044 2021-09-17 17:47:00
Charlotte Douglas (CLT) - Daniel K. Inouye International (HNL) - Charlotte Douglas (CLT) AA569 2021-09-17 13:35:00
Miami Intl (MIA) - Charlotte Douglas (CLT) AA2484 2021-09-16 16:12:00
Guarulhos Gov Andre Franco Montoro (GRU) - Miami Intl (MIA) AA930 2021-09-16 10:46:00
Miami Intl (MIA) - Guarulhos Gov Andre Franco Montoro (GRU) AA929 2021-09-15 08:09:00
Barajas (MAD) - Miami Intl (MIA) AA69 2021-09-14 16:44:00
John F Kennedy Intl (JFK) - Barajas (MAD) AA94 2021-09-14 04:39:00
Charles De Gaulle (CDG) - John F Kennedy Intl (JFK) AA45 2021-09-13 18:02:00
John F Kennedy Intl (JFK) - Charles De Gaulle (CDG) AA44 2021-09-13 04:19:00
Arturo Merino Benitez Intl (SCL) - John F Kennedy Intl (JFK) AA948 2021-09-12 12:32:00
John F Kennedy Intl (JFK) - Arturo Merino Benitez Intl (SCL) AA933 2021-09-11 10:02:00
Ben Gurion (TLV) - John F Kennedy Intl (JFK) AA145 2021-09-10 09:33:00
John F Kennedy Intl (JFK) - Ben Gurion (TLV) AA146 2021-09-09 13:36:00
Heathrow (LHR) - John F Kennedy Intl (JFK) AA141 2021-09-08 23:40:00
Seattle Tacoma Intl (SEA) - Heathrow (LHR) AA156 2021-09-08 13:39:00
Heathrow (LHR) - Seattle Tacoma Intl (SEA) AA155 2021-09-07 18:50:00
Charlotte Douglas (CLT) - Heathrow (LHR) AA730 2021-09-07 08:57:00
Miami Intl (MIA) - Charlotte Douglas (CLT) AA1739 2021-09-06 18:43:00
Time Lat Lon Altitude Heading Speed Vertical Rate
2021-08-04 06:03:25 GMT 45.605621 8.729710 925 349 135 -704
2021-08-04 06:02:47 GMT 45.582367 8.736053 1,375 350 142 -832
2021-08-04 06:02:40 GMT 45.577286 8.737480 1,475 349 147 -832
2021-08-04 06:02:33 GMT 45.573441 8.738619 1,625 349 148 -768
2021-08-04 06:02:27 GMT 45.569195 8.739761 1,625 349 148 -768
2021-08-04 06:02:24 GMT 45.567612 8.740173 1,650 349 148 -768
2021-08-04 06:02:20 GMT 45.564377 8.741098 1,725 349 148 -768
2021-08-04 06:02:14 GMT 45.560440 8.742170 1,800 349 150 -832
2021-08-04 06:02:11 GMT 45.558674 8.742714 1,825 350 153 -768
2021-08-04 06:02:05 GMT 45.554169 8.743911 1,925 349 154 -768
2021-08-04 06:01:57 GMT 45.548035 8.745586 2,050 350 163 -832
2021-08-04 06:01:53 GMT 45.545498 8.746323 2,075 349 167 -832
2021-08-04 06:01:50 GMT 45.543591 8.746859 2,125 350 168 -960
2021-08-04 06:01:45 GMT 45.539448 8.747998 2,200 350 171 -896
2021-08-04 06:01:39 GMT 45.534420 8.749338 2,300 350 174 -832
2021-08-04 06:01:34 GMT 45.531281 8.750218 2,350 350 175 -896
2021-08-04 06:01:30 GMT 45.527855 8.751146 2,425 349 176 -896
2021-08-04 06:01:23 GMT 45.522308 8.752703 2,525 349 176 -896
2021-08-04 06:01:19 GMT 45.517521 8.753960 2,625 350 178 -896
2021-08-04 06:01:14 GMT 45.514755 8.754730 2,675 350 181 -960
2021-08-04 06:01:10 GMT 45.510269 8.755973 2,750 350 183 -960
2021-08-04 06:01:06 GMT 45.508209 8.756505 2,800 350 183 -960
2021-08-04 06:01:03 GMT 45.505371 8.757281 2,850 350 184 -960
2021-08-04 06:00:58 GMT 45.501087 8.758448 2,950 350 186 -704
2021-08-04 06:00:53 GMT 45.497131 8.759453 3,000 350 187 -640
2021-08-04 06:00:45 GMT 45.490288 8.761262 3,025 350 191 -128
2021-08-04 06:00:41 GMT 45.486282 8.762381 3,025 350 197 0
2021-08-04 06:00:33 GMT 45.479233 8.764278 3,000 349 208 0
2021-08-04 06:00:27 GMT 45.472366 8.766371 3,000 347 216 0
2021-08-04 06:00:21 GMT 45.467339 8.768028 3,000 347 219 -64
2021-08-04 06:00:14 GMT 45.460308 8.770305 3,000 349 229 0
2021-08-04 06:00:11 GMT 45.457329 8.771243 3,025 348 229 0
2021-08-04 06:00:05 GMT 45.450626 8.772918 3,025 354 231 128
2021-08-04 05:59:59 GMT 45.443710 8.773237 3,000 6 233 64
2021-08-04 05:59:51 GMT 45.436893 8.770908 3,000 24 233 -64
2021-08-04 05:59:48 GMT 45.433548 8.768725 3,000 27 233 -64
2021-08-04 05:59:41 GMT 45.427212 8.764075 3,025 27 236 -64
2021-08-04 05:59:37 GMT 45.422832 8.760927 3,000 26 237 0
2021-08-04 05:59:31 GMT 45.416885 8.756627 3,000 26 239 -64
2021-08-04 05:59:28 GMT 45.413712 8.754362 3,000 26 243 -64
2021-08-04 05:59:21 GMT 45.407005 8.749606 3,025 26 251 -64
2021-08-04 05:59:18 GMT 45.395874 8.741193 3,025 27 253 0
2021-08-04 05:59:10 GMT 45.395874 8.741193 3,025 31 261 0
2021-08-04 05:58:59 GMT 45.384800 8.728504 3,000 43 270 0
2021-08-04 05:58:54 GMT 45.380985 8.721336 3,000 58 278 -64
2021-08-04 05:58:48 GMT 45.377632 8.712225 3,025 64 280 -64
2021-08-04 05:58:35 GMT 45.372665 8.689401 3,150 75 312 -448
2021-08-04 05:58:26 GMT 45.369438 8.671696 3,075 75 302 -192
2021-08-04 05:58:19 GMT 45.366898 8.657488 3,100 75 309 -384
2021-08-04 05:58:15 GMT 45.365707 8.650622 3,150 76 315 -576
2021-08-04 05:58:08 GMT 45.363060 8.635790 3,200 75 316 -640
2021-08-04 05:58:02 GMT 45.360901 8.623417 3,300 76 318 -832
2021-08-04 05:57:57 GMT 45.359337 8.614889 3,400 75 321 -1536
2021-08-04 05:57:52 GMT 45.356873 8.601183 3,625 75 310 -3648
2021-08-04 05:57:48 GMT 45.355984 8.596333 3,750 75 317 -2816
2021-08-04 05:57:45 GMT 45.354446 8.587843 3,950 75 315 -3200
2021-08-04 05:57:38 GMT 45.352261 8.575700 4,325 75 308 -3776
2021-08-04 05:57:33 GMT 45.350491 8.566120 4,600 75 305 -3712
2021-08-04 05:57:25 GMT 45.347561 8.549574 5,100 75 308 -3456
2021-08-04 05:57:17 GMT 45.345016 8.535200 5,500 75 313 -2944
2021-08-04 05:57:14 GMT 45.343929 8.529209 5,625 75 316 -2752
2021-08-04 05:57:05 GMT 45.340256 8.508257 6,000 75 332 -2048
2021-08-04 05:56:57 GMT 45.337597 8.493503 6,225 75 343 -1984
2021-08-04 05:56:52 GMT 45.335548 8.482048 6,400 75 350 -2048
2021-08-04 05:56:47 GMT 45.333389 8.469805 6,550 76 363 -1600
2021-08-04 05:56:44 GMT 45.332108 8.462546 6,625 76 368 -1344
2021-08-04 05:56:37 GMT 45.329311 8.446276 6,850 76 372 -1856
2021-08-04 05:56:34 GMT 45.328053 8.438907 6,925 77 373 -1792
2021-08-04 05:56:29 GMT 45.325680 8.423030 7,100 79 379 -1280
2021-08-04 05:56:24 GMT 45.324509 8.414154 7,200 79 381 -2176
2021-08-04 05:56:16 GMT 45.322189 8.395966 7,500 79 381 -2688
2021-08-04 05:56:13 GMT 45.321072 8.387593 7,675 79 381 -2624
2021-08-04 05:56:05 GMT 45.318836 8.370376 7,975 79 381 -2496
2021-08-04 05:55:55 GMT 45.315628 8.345032 8,475 79 383 -2240
2021-08-04 05:55:45 GMT 45.312561 8.320509 8,725 79 384 -2176
2021-08-04 05:55:35 GMT 45.309311 8.294874 9,100 79 387 -2240
2021-08-04 05:55:31 GMT 45.308029 8.284607 9,250 79 387 -2304
2021-08-04 05:55:24 GMT 45.305740 8.266100 9,525 80 388 -2240
2021-08-04 05:55:21 GMT 45.305054 8.260280 9,625 80 389 -2176
2021-08-04 05:55:17 GMT 45.303635 8.248444 9,775 80 391 -2112
2021-08-04 05:55:14 GMT 45.302868 8.241354 9,875 81 391 -2112
2021-08-04 05:55:11 GMT 45.302170 8.235299 9,975 81 392 -2112
2021-08-04 05:55:07 GMT 45.300705 8.221763 10,150 81 393 -2112
2021-08-04 05:55:04 GMT 45.299332 8.209011 10,400 81 395 -2112
2021-08-04 05:55:01 GMT 45.299332 8.209011 10,325 81 395 -2112
2021-08-04 05:54:57 GMT 45.297913 8.195932 10,500 81 396 -2048
2021-08-04 05:54:54 GMT 45.297421 8.191312 10,600 81 396 -2048
2021-08-04 05:54:51 GMT 45.296310 8.181022 10,700 81 397 -2112
2021-08-04 05:54:44 GMT 45.294537 8.164249 11,000 81 406 -1856
2021-08-04 05:54:41 GMT 45.293697 8.156210 11,050 81 400 -2304
2021-08-04 05:54:33 GMT 45.291595 8.136488 11,350 81 401 -2240
2021-08-04 05:54:30 GMT 45.290859 8.129146 11,450 81 402 -2240
2021-08-04 05:54:26 GMT 45.289398 8.115104 11,625 81 404 -1984
2021-08-04 05:54:23 GMT 45.288849 8.109545 11,725 81 406 -1856
2021-08-04 05:54:19 GMT 45.287926 8.100139 11,800 82 405 -1856
2021-08-04 05:54:16 GMT 45.286854 8.089287 11,925 82 406 -1792
2021-08-04 05:54:12 GMT 45.286148 8.082406 12,000 82 408 -1728
2021-08-04 05:54:07 GMT 45.284435 8.065104 12,175 81 412 -1664
2021-08-04 05:54:02 GMT 45.283504 8.055725 12,300 81 414 -1792
2021-08-04 05:53:58 GMT 45.282246 8.043600 12,425 81 416 -1792
2021-08-04 05:53:54 GMT 45.280838 8.029829 12,575 81 418 -1728
2021-08-04 05:53:50 GMT 45.280010 8.021962 12,650 81 420 -1856
2021-08-04 05:53:47 GMT 45.279007 8.012107 12,775 81 421 -1984
2021-08-04 05:53:43 GMT 45.277870 8.001463 12,975 81 424 -1984
2021-08-04 05:53:39 GMT 45.276985 7.993224 13,150 81 427 -1984
2021-08-04 05:53:36 GMT 45.274750 7.971104 13,150 81 427 -1984
2021-08-04 05:53:31 GMT 45.274750 7.971104 13,275 81 428 -2048
2021-08-04 05:53:28 GMT 45.273914 7.962743 13,375 81 429 -2048
2021-08-04 05:53:25 GMT 45.272984 7.953566 13,475 81 430 -1984
2021-08-04 05:53:21 GMT 45.271866 7.942646 13,600 81 431 -2112
2021-08-04 05:53:18 GMT 45.270981 7.934541 13,725 81 433 -2112
2021-08-04 05:53:13 GMT 45.269257 7.918854 13,900 81 435 -2112
2021-08-04 05:53:10 GMT 45.268467 7.911496 14,000 81 435 -2176
2021-08-04 05:53:05 GMT 45.266830 7.897143 14,175 80 442 -2112
2021-08-04 05:53:00 GMT 45.265411 7.884391 14,350 81 438 -2240
2021-08-04 05:52:56 GMT 45.264130 7.872750 14,525 81 439 -2176
2021-08-04 05:52:53 GMT 45.262741 7.860249 14,675 81 440 -2112
2021-08-04 05:52:50 GMT 45.262230 7.855426 14,750 80 440 -2048
2021-08-04 05:52:45 GMT 45.260468 7.840053 14,925 80 442 -2112
2021-08-04 05:52:40 GMT 45.258820 7.825143 15,100 80 443 -2112
2021-08-04 05:52:35 GMT 45.256989 7.809317 15,300 80 444 -2112
2021-08-04 05:52:32 GMT 45.256226 7.802437 15,400 80 445 -2112
2021-08-04 05:52:28 GMT 45.255112 7.792642 15,575 80 448 -2240
2021-08-04 05:52:25 GMT 45.253601 7.779890 15,675 80 448 -2240
2021-08-04 05:52:22 GMT 45.252777 7.772958 15,775 80 448 -2112
2021-08-04 05:52:17 GMT 45.250992 7.758702 15,925 79 451 -1856
2021-08-04 05:52:14 GMT 45.250031 7.751189 16,000 80 452 -1984
2021-08-04 05:52:08 GMT 45.247845 7.732432 16,350 82 453 -2944
2021-08-04 05:52:04 GMT 45.246635 7.720374 16,450 82 453 -3136
2021-08-04 05:51:58 GMT 45.244858 7.700697 16,850 83 451 -3392
2021-08-04 05:51:55 GMT 45.244263 7.693307 16,950 84 451 -3392
2021-08-04 05:51:48 GMT 45.242863 7.672476 17,350 85 448 -3072
2021-08-04 05:51:44 GMT 45.242352 7.663701 17,500 85 448 -2944
2021-08-04 05:51:37 GMT 45.241280 7.641192 17,850 87 448 -2432
2021-08-04 05:51:34 GMT 45.240921 7.629416 18,000 87 449 -2304
2021-08-04 05:51:27 GMT 45.240582 7.613257 18,375 89 452 -2112
2021-08-04 05:51:23 GMT 45.240490 7.599324 18,375 89 452 -2112
2021-08-04 05:51:15 GMT 45.240723 7.577418 18,625 91 455 -2176
2021-08-04 05:51:07 GMT 45.241280 7.553503 18,900 92 458 -2112
2021-08-04 05:51:03 GMT 45.241562 7.542114 19,050 91 460 -2112
2021-08-04 05:50:57 GMT 45.242023 7.523156 19,375 91 460 -2240
2021-08-04 05:50:54 GMT 45.242210 7.515653 19,375 91 459 -2240
2021-08-04 05:50:45 GMT 45.242954 7.483498 19,750 91 459 -1920
2021-08-04 05:50:36 GMT 45.243439 7.461221 19,950 91 461 -1088
2021-08-04 05:50:32 GMT 45.243713 7.448796 20,000 91 462 -768
2021-08-04 05:50:26 GMT 45.244171 7.429962 20,000 91 466 0
2021-08-04 05:50:22 GMT 45.244400 7.419303 20,000 91 466 -64
2021-08-04 05:50:14 GMT 45.245041 7.389156 20,000 91 465 0
2021-08-04 05:50:04 GMT 45.245655 7.362046 20,000 91 466 -64
2021-08-04 05:50:01 GMT 45.245865 7.354170 20,000 91 466 -64
2021-08-04 05:49:53 GMT 45.246414 7.328339 20,000 91 462 64
2021-08-04 05:49:43 GMT 45.247101 7.297668 20,000 91 452 -64
2021-08-04 05:49:40 GMT 45.247334 7.287888 20,000 91 452 -64
2021-08-04 05:49:32 GMT 45.247799 7.267858 20,000 91 441 64
2021-08-04 05:49:28 GMT 45.248032 7.257207 20,000 91 441 64
2021-08-04 05:49:23 GMT 45.248566 7.233451 20,000 91 426 0
2021-08-04 05:49:12 GMT 45.249054 7.210850 20,000 91 426 64
2021-08-04 05:49:03 GMT 45.249710 7.184078 20,000 92 426 -64
2021-08-04 05:49:00 GMT 45.249893 7.177087 20,000 92 426 -64
2021-08-04 05:48:52 GMT 45.250450 7.155114 20,000 92 425 0
2021-08-04 05:48:48 GMT 45.250778 7.142319 20,000 92 426 0
2021-08-04 05:48:40 GMT 45.251312 7.122018 20,000 92 424 64
2021-08-04 05:48:31 GMT 45.251999 7.097037 20,000 92 424 -64
2021-08-04 05:48:28 GMT 45.252220 7.089263 20,000 92 424 -64
2021-08-04 05:48:22 GMT 45.252823 7.070095 20,000 92 425 64
2021-08-04 05:48:16 GMT 45.253895 7.038083 20,000 92 426 0
2021-08-04 05:48:10 GMT 45.253895 7.038083 20,000 92 425 0
2021-08-04 05:48:00 GMT 45.254875 7.009947 20,000 92 426 -64
2021-08-04 05:47:49 GMT 45.255753 6.980896 20,000 91 427 -64
2021-08-04 05:47:41 GMT 45.255993 6.955150 20,000 89 428 0
2021-08-04 05:47:38 GMT 45.255981 6.950357 20,000 89 428 -64
2021-08-04 05:47:29 GMT 45.255756 6.923396 20,000 89 429 0
2021-08-04 05:47:23 GMT 45.255619 6.906582 20,000 90 432 -64
2021-08-04 05:47:20 GMT 45.255573 6.899548 20,000 89 429 0
2021-08-04 05:47:17 GMT 45.255524 6.890586 20,000 89 429 0
2021-08-04 05:47:14 GMT 45.255432 6.880456 20,000 89 429 0
2021-08-04 05:47:10 GMT 45.255432 6.870379 20,000 89 430 0
2021-08-04 05:47:07 GMT 45.255386 6.860225 20,000 89 430 0
2021-08-04 05:46:59 GMT 45.255341 6.839120 20,000 89 430 0
2021-08-04 05:46:56 GMT 45.255341 6.831754 20,000 90 431 0
2021-08-04 05:46:49 GMT 45.255341 6.812308 20,000 90 431 0
2021-08-04 05:46:46 GMT 45.255341 6.803611 20,000 90 431 0
2021-08-04 05:46:37 GMT 45.255432 6.775099 20,000 90 431 64
2021-08-04 05:46:28 GMT 45.255524 6.751099 19,975 90 431 128
2021-08-04 05:46:24 GMT 45.255569 6.740635 19,975 90 431 128
2021-08-04 05:46:18 GMT 45.255661 6.724221 19,975 90 432 -128
2021-08-04 05:46:09 GMT 45.255753 6.699371 20,050 90 432 -1600
2021-08-04 05:46:06 GMT 45.255756 6.690272 20,050 90 433 -640
2021-08-04 05:46:03 GMT 45.255798 6.680080 20,100 90 432 -1536
2021-08-04 05:45:58 GMT 45.255852 6.654030 20,275 90 433 -1152
2021-08-04 05:45:54 GMT 45.255852 6.654030 20,275 90 432 -1536
2021-08-04 05:45:48 GMT 45.255890 6.638489 20,425 90 433 -1856
2021-08-04 05:45:45 GMT 45.255936 6.631688 20,500 90 433 -2048
2021-08-04 05:45:35 GMT 45.256119 6.602718 20,850 90 435 -1920
2021-08-04 05:45:26 GMT 45.256210 6.573879 21,150 90 438 -1856
2021-08-04 05:45:17 GMT 45.256271 6.550062 21,425 90 440 -1792
2021-08-04 05:45:14 GMT 45.256271 6.540550 21,525 89 440 -1792
2021-08-04 05:45:05 GMT 45.256210 6.515089 21,800 89 443 -1984
2021-08-04 05:44:55 GMT 45.256119 6.485465 22,450 89 446 -1920
2021-08-04 05:44:47 GMT 45.256027 6.463623 22,425 89 447 -1920
2021-08-04 05:44:44 GMT 45.256027 6.455122 22,475 89 448 -1856
2021-08-04 05:44:41 GMT 45.255993 6.446295 22,575 89 448 -1856
2021-08-04 05:44:38 GMT 45.255993 6.432495 22,750 89 450 -1856
2021-08-04 05:44:35 GMT 45.255898 6.404426 22,850 89 451 -1856
2021-08-04 05:44:27 GMT 45.255898 6.404426 23,025 89 453 -1856
2021-08-04 05:44:24 GMT 45.255890 6.396136 23,100 89 455 -1792
2021-08-04 05:44:17 GMT 45.255844 6.374163 23,325 89 456 -1792
2021-08-04 05:44:14 GMT 45.255852 6.365237 23,700 89 457 -1792
2021-08-04 05:44:07 GMT 45.255756 6.334355 23,650 89 459 -1792
2021-08-04 05:44:04 GMT 45.255756 6.334355 23,725 89 459 -1856
2021-08-04 05:43:57 GMT 45.255711 6.313923 23,975 89 461 -1856
2021-08-04 05:43:54 GMT 45.255707 6.304517 24,050 89 463 -1792
2021-08-04 05:43:45 GMT 45.255707 6.279406 24,275 90 464 -1792
2021-08-04 05:43:42 GMT 45.255711 6.268437 24,400 90 465 -1792
2021-08-04 05:43:36 GMT 45.255753 6.240365 24,600 90 467 -1792
2021-08-04 05:43:33 GMT 45.255844 6.211853 25,175 90 472 -1792
2021-08-04 05:43:24 GMT 45.255898 6.189389 25,175 90 472 -1792
2021-08-04 05:43:16 GMT 45.255898 6.189389 25,175 90 472 -1856
2021-08-04 05:43:13 GMT 45.255936 6.178894 25,450 89 474 -2176
2021-08-04 05:43:05 GMT 45.255898 6.154420 25,525 89 474 -2176
2021-08-04 05:42:56 GMT 45.255806 6.127357 25,850 90 479 -1216
2021-08-04 05:42:53 GMT 45.255619 6.094599 26,000 89 477 -1216
2021-08-04 05:42:46 GMT 45.255619 6.094599 26,075 90 479 -1216
2021-08-04 05:42:42 GMT 45.255661 6.083941 26,100 90 479 -1280
2021-08-04 05:42:36 GMT 45.255943 6.063582 26,300 95 478 -1152
2021-08-04 05:42:33 GMT 45.256210 6.055429 26,300 92 478 -1280
2021-08-04 05:42:30 GMT 45.256596 6.047304 26,450 95 478 -1152
2021-08-04 05:42:25 GMT 45.258087 6.028355 26,500 98 477 -1280
2021-08-04 05:42:22 GMT 45.259323 6.017827 26,525 100 477 -1472
2021-08-04 05:42:14 GMT 45.262344 5.998077 26,700 104 474 -1856
2021-08-04 05:42:11 GMT 45.264091 5.989023 26,800 106 474 -1856
2021-08-04 05:42:05 GMT 45.268616 5.968977 26,950 110 473 -512
2021-08-04 05:42:02 GMT 45.270493 5.961718 27,100 113 473 -192
2021-08-04 05:41:53 GMT 45.279144 5.932552 26,975 113 473 -192
2021-08-04 05:41:44 GMT 45.286156 5.910176 27,025 113 470 -128
2021-08-04 05:41:41 GMT 45.288437 5.902874 27,100 113 478 -1152
2021-08-04 05:41:34 GMT 45.295189 5.881236 27,150 113 478 -1152
2021-08-04 05:41:31 GMT 45.303268 5.855255 27,250 113 479 -1280
2021-08-04 05:41:25 GMT 45.303268 5.855255 27,350 113 485 -1792
2021-08-04 05:41:22 GMT 45.307022 5.843353 27,575 113 487 -3072
2021-08-04 05:41:19 GMT 45.308735 5.837760 27,575 113 487 -3072
2021-08-04 05:41:13 GMT 45.317532 5.809423 28,100 113 499 -4800
2021-08-04 05:41:09 GMT 45.317532 5.809423 28,100 113 484 -3008
2021-08-04 05:41:04 GMT 45.322048 5.794886 28,400 113 487 -3840
2021-08-04 05:41:01 GMT 45.325260 5.784637 28,625 113 489 -4032
2021-08-04 05:40:53 GMT 45.332108 5.762591 29,150 113 492 -4352
2021-08-04 05:40:48 GMT 45.336945 5.746921 29,550 113 494 -4544
2021-08-04 05:40:43 GMT 45.341446 5.732247 30,125 113 514 -5248
2021-08-04 05:40:40 GMT 45.344021 5.723877 30,350 113 504 -4800
2021-08-04 05:40:33 GMT 45.351013 5.701185 31,350 113 514 -5248
2021-08-04 05:40:29 GMT 45.353943 5.691768 31,050 113 508 -4928
2021-08-04 05:40:25 GMT 45.359436 5.673981 31,525 113 512 -5184
2021-08-04 05:40:22 GMT 45.361221 5.668095 31,675 113 513 -5184
2021-08-04 05:40:19 GMT 45.364014 5.658809 31,925 113 515 -5248
2021-08-04 05:40:12 GMT 45.370148 5.638537 32,675 113 523 -5184
2021-08-04 05:40:09 GMT 45.373672 5.626896 33,450 113 531 -4224
2021-08-04 05:40:03 GMT 45.379303 5.608521 33,350 113 532 -3904
2021-08-04 05:40:00 GMT 45.381958 5.599954 33,600 113 537 -3392
2021-08-04 05:39:56 GMT 45.386524 5.585141 33,700 113 538 -3392
2021-08-04 05:39:52 GMT 45.389641 5.575093 33,950 113 540 -3456
2021-08-04 05:39:49 GMT 45.392624 5.565360 34,050 113 540 -3136
2021-08-04 05:39:46 GMT 45.395737 5.555289 34,225 113 541 -2880
2021-08-04 05:39:42 GMT 45.400116 5.540861 34,400 113 544 -1920
2021-08-04 05:39:39 GMT 45.402695 5.532336 34,725 113 547 -1088
2021-08-04 05:39:36 GMT 45.405704 5.522506 34,500 113 548 -1152
2021-08-04 05:39:32 GMT 45.410126 5.507902 34,625 113 548 -1152
2021-08-04 05:39:29 GMT 45.412594 5.499662 34,675 113 549 -1152
2021-08-04 05:39:26 GMT 45.415604 5.489698 34,700 113 549 -1152
2021-08-04 05:39:23 GMT 45.419266 5.477469 34,800 113 548 -1152
2021-08-04 05:39:20 GMT 45.421764 5.469182 34,850 113 549 -1152
2021-08-04 05:39:17 GMT 45.425068 5.458195 34,900 113 549 -1152
2021-08-04 05:39:13 GMT 45.429932 5.441960 34,975 112 550 -1152
2021-08-04 05:39:09 GMT 45.433495 5.429993 35,050 112 550 -1088
2021-08-04 05:39:06 GMT 45.436066 5.421361 35,100 112 550 -1152
2021-08-04 05:39:03 GMT 45.439034 5.411370 35,175 112 551 -1152
2021-08-04 05:39:00 GMT 45.441921 5.401723 35,275 112 551 -1216
2021-08-04 05:38:57 GMT 45.445084 5.391017 35,275 112 551 -1152
2021-08-04 05:38:51 GMT 45.450989 5.371007 35,400 112 551 -1088
2021-08-04 05:38:48 GMT 45.453697 5.361998 35,500 112 551 -1088
2021-08-04 05:38:45 GMT 45.456722 5.351682 35,500 112 552 -1024
2021-08-04 05:38:41 GMT 45.460922 5.337655 35,575 112 551 -1024
2021-08-04 05:38:38 GMT 45.463394 5.329285 35,625 113 552 -1088
2021-08-04 05:38:35 GMT 45.466919 5.317644 35,675 113 551 -1280
2021-08-04 05:38:32 GMT 45.469944 5.307669 35,775 114 550 -1408
2021-08-04 05:38:29 GMT 45.475983 5.288086 35,875 114 551 -1536
2021-08-04 05:38:26 GMT 45.475983 5.288086 35,925 114 550 -1600
2021-08-04 05:38:22 GMT 45.480141 5.274911 36,025 114 550 -1664
2021-08-04 05:38:19 GMT 45.483166 5.265332 36,075 114 549 -1728
2021-08-04 05:38:16 GMT 45.486282 5.255519 36,150 114 548 -1728
2021-08-04 05:38:13 GMT 45.490356 5.242702 36,275 114 547 -1728
2021-08-04 05:38:09 GMT 45.493378 5.233154 36,625 114 546 -1792
2021-08-04 05:38:05 GMT 45.498386 5.217501 36,500 114 545 -1856
2021-08-04 05:38:01 GMT 45.502029 5.206015 36,650 114 545 -1792
2021-08-04 05:37:58 GMT 45.504951 5.196935 36,825 114 543 -1280
2021-08-04 05:37:55 GMT 45.508072 5.187155 36,800 114 543 -1408
2021-08-04 05:37:52 GMT 45.511841 5.175431 36,875 114 543 -1152
2021-08-04 05:37:47 GMT 45.517090 5.159193 36,950 114 544 -768
2021-08-04 05:37:44 GMT 45.519337 5.152387 37,000 114 545 0
2021-08-04 05:37:41 GMT 45.522594 5.142338 37,000 114 544 -384
2021-08-04 05:37:38 GMT 45.526459 5.130280 37,000 114 544 -64
2021-08-04 05:37:35 GMT 45.529533 5.120835 37,000 114 545 0
2021-08-04 05:37:32 GMT 45.532700 5.111062 37,000 114 545 0
2021-08-04 05:37:28 GMT 45.536888 5.098058 37,000 114 545 0
2021-08-04 05:37:25 GMT 45.542862 5.079476 37,000 114 545 0
2021-08-04 05:37:22 GMT 45.542862 5.079476 37,000 114 545 0
2021-08-04 05:37:17 GMT 45.548264 5.062554 37,000 114 545 0
2021-08-04 05:37:14 GMT 45.551285 5.053041 37,000 114 544 0
2021-08-04 05:37:11 GMT 45.554436 5.043274 37,000 114 544 0
2021-08-04 05:37:07 GMT 45.558563 5.030198 37,000 114 544 0
2021-08-04 05:37:04 GMT 45.561466 5.021095 37,000 114 545 0
2021-08-04 05:37:01 GMT 45.564606 5.011306 37,000 114 545 0
2021-08-04 05:36:58 GMT 45.568729 4.998230 37,000 114 545 0
2021-08-04 05:36:55 GMT 45.572250 4.987123 37,000 114 545 0
2021-08-04 05:36:52 GMT 45.577339 4.971107 37,000 114 544 0
2021-08-04 05:36:49 GMT 45.577339 4.971107 37,000 114 544 0
2021-08-04 05:36:46 GMT 45.579807 4.963280 37,000 114 544 0
2021-08-04 05:36:42 GMT 45.584557 4.948242 37,000 114 544 0
2021-08-04 05:36:37 GMT 45.589443 4.932930 37,000 114 544 0
2021-08-04 05:36:34 GMT 45.595219 4.914597 37,000 114 544 0
2021-08-04 05:36:31 GMT 45.595219 4.914597 37,000 114 544 0
2021-08-04 05:36:27 GMT 45.600220 4.898563 37,000 114 544 0
2021-08-04 05:36:24 GMT 45.604340 4.885483 37,000 114 544 0
2021-08-04 05:36:21 GMT 45.606483 4.878616 37,000 113 543 0
2021-08-04 05:36:16 GMT 45.610672 4.865227 37,000 113 543 0
2021-08-04 05:36:13 GMT 45.614136 4.854081 37,000 113 543 0
2021-08-04 05:36:10 GMT 45.616817 4.845589 37,000 113 543 0
2021-08-04 05:36:07 GMT 45.621094 4.831841 37,000 113 543 0
2021-08-04 05:36:04 GMT 45.623100 4.825264 37,000 113 543 0
2021-08-04 05:36:01 GMT 45.626358 4.814825 37,000 113 543 0
2021-08-04 05:35:58 GMT 45.629433 4.805008 37,000 113 543 0
2021-08-04 05:35:54 GMT 45.633499 4.791915 37,000 114 543 0
2021-08-04 05:35:50 GMT 45.636887 4.781129 37,000 114 543 0
2021-08-04 05:35:47 GMT 45.641052 4.767731 37,000 114 543 0
2021-08-04 05:35:44 GMT 45.643616 4.759559 37,000 114 543 0
2021-08-04 05:35:40 GMT 45.647186 4.748103 37,000 114 543 0
2021-08-04 05:35:36 GMT 45.651546 4.734077 37,000 114 543 0
2021-08-04 05:35:33 GMT 45.654602 4.724255 37,000 113 542 0
2021-08-04 05:35:30 GMT 45.657761 4.714140 37,000 113 543 0
2021-08-04 05:35:26 GMT 45.662857 4.697754 37,000 113 543 0
2021-08-04 05:35:21 GMT 45.667603 4.682386 37,000 113 543 0
2021-08-04 05:35:18 GMT 45.669842 4.675163 37,000 113 543 0
2021-08-04 05:35:15 GMT 45.673187 4.664366 37,000 113 543 0
2021-08-04 05:35:10 GMT 45.678452 4.647351 37,000 113 543 0
2021-08-04 05:35:07 GMT 45.685318 4.625110 37,000 113 542 0
2021-08-04 05:35:03 GMT 45.685318 4.625110 37,000 113 542 0
2021-08-04 05:34:59 GMT 45.692467 4.601898 37,000 113 541 0
2021-08-04 05:34:56 GMT 45.692467 4.601898 37,000 113 541 0
2021-08-04 05:34:53 GMT 45.695210 4.593040 37,000 113 541 0
2021-08-04 05:34:50 GMT 45.699005 4.580629 37,000 113 541 0
2021-08-04 05:34:47 GMT 45.704941 4.561386 37,000 113 540 0
2021-08-04 05:34:43 GMT 45.704941 4.561386 37,000 113 539 0
2021-08-04 05:34:40 GMT 45.708160 4.550952 37,000 113 540 0
2021-08-04 05:34:37 GMT 45.711597 4.539825 37,000 113 539 0
2021-08-04 05:34:34 GMT 45.715321 4.527809 37,000 113 539 0
2021-08-04 05:34:30 GMT 45.718323 4.517993 37,000 113 539 0
2021-08-04 05:34:26 GMT 45.722672 4.503993 37,000 113 539 0
2021-08-04 05:34:23 GMT 45.725555 4.494547 37,000 113 539 0
2021-08-04 05:34:20 GMT 45.728355 4.485443 37,000 113 539 -64
2021-08-04 05:34:16 GMT 45.732285 4.472708 37,000 113 539 0
2021-08-04 05:34:13 GMT 45.738735 4.451523 37,000 113 536 0
2021-08-04 05:34:10 GMT 45.738735 4.451523 37,000 113 539 0
2021-08-04 05:34:06 GMT 45.742786 4.438133 37,000 113 539 0
2021-08-04 05:34:03 GMT 45.745255 4.429962 37,000 113 539 0
2021-08-04 05:33:59 GMT 45.749073 4.417191 37,000 113 539 0
2021-08-04 05:33:56 GMT 45.751602 4.408666 37,000 113 538 0
2021-08-04 05:33:53 GMT 45.755402 4.395938 37,000 113 538 0
2021-08-04 05:33:49 GMT 45.758846 4.384506 37,000 113 538 0
2021-08-04 05:33:46 GMT 45.762177 4.373362 37,000 113 537 0
2021-08-04 05:33:43 GMT 45.765106 4.363582 37,000 113 538 0
2021-08-04 05:33:40 GMT 45.767899 4.354069 37,000 113 538 0
2021-08-04 05:33:37 GMT 45.771606 4.341676 37,000 113 538 0
2021-08-04 05:33:34 GMT 45.773930 4.333832 37,000 113 537 0
2021-08-04 05:33:30 GMT 45.778355 4.319138 37,000 113 537 0
2021-08-04 05:33:25 GMT 45.782356 4.305748 37,000 113 537 0
2021-08-04 05:33:22 GMT 45.785248 4.295989 37,000 113 536 0
2021-08-04 05:33:19 GMT 45.788361 4.285561 37,000 112 537 0
2021-08-04 05:33:16 GMT 45.792343 4.272141 37,000 113 536 0
2021-08-04 05:33:12 GMT 45.795254 4.262352 37,000 113 536 0
2021-08-04 05:33:09 GMT 45.798157 4.252580 37,000 113 536 0
2021-08-04 05:33:06 GMT 45.800884 4.243401 37,000 113 536 0
2021-08-04 05:33:03 GMT 45.804844 4.230080 37,000 112 536 0
2021-08-04 05:32:59 GMT 45.808056 4.219299 37,000 112 535 0
2021-08-04 05:32:54 GMT 45.813766 4.200060 37,000 113 535 0
2021-08-04 05:32:50 GMT 45.820770 4.176613 37,000 112 536 0
2021-08-04 05:32:45 GMT 45.820770 4.176613 37,000 112 536 0
2021-08-04 05:32:42 GMT 45.824718 4.163200 37,000 112 536 0
2021-08-04 05:32:39 GMT 45.826538 4.157052 37,000 112 536 0
2021-08-04 05:32:35 GMT 45.831284 4.141022 37,000 112 535 0
2021-08-04 05:32:32 GMT 45.834263 4.130928 37,000 112 535 0
2021-08-04 05:32:29 GMT 45.836498 4.123444 37,000 112 535 0
2021-08-04 05:32:25 GMT 45.840733 4.109093 37,000 112 535 0
2021-08-04 05:32:22 GMT 45.843246 4.100647 37,000 112 535 0
2021-08-04 05:32:19 GMT 45.846554 4.089592 37,000 112 535 0
2021-08-04 05:32:15 GMT 45.850510 4.076202 37,000 112 535 0
2021-08-04 05:32:12 GMT 45.853302 4.066795 37,000 112 535 0
2021-08-04 05:32:09 GMT 45.856155 4.056970 37,000 112 535 0
2021-08-04 05:32:05 GMT 45.860054 4.043930 37,000 112 535 0
2021-08-04 05:32:02 GMT 45.862846 4.034523 37,000 112 535 0
2021-08-04 05:31:59 GMT 45.865826 4.024429 37,000 112 535 0
2021-08-04 05:31:56 GMT 45.869751 4.011082 37,000 112 534 0
2021-08-04 05:31:52 GMT 45.872131 4.002909 37,000 112 534 0
2021-08-04 05:31:49 GMT 45.875416 3.991882 37,000 112 534 0
2021-08-04 05:31:45 GMT 45.883392 3.964859 37,000 112 534 0
2021-08-04 05:31:41 GMT 45.883392 3.964859 37,000 113 533 0
2021-08-04 05:31:38 GMT 45.885517 3.957687 37,000 113 533 0
2021-08-04 05:31:35 GMT 45.888611 3.947307 37,000 112 533 0
2021-08-04 05:31:32 GMT 45.891220 3.938532 37,000 113 533 0
2021-08-04 05:31:28 GMT 45.895477 3.924263 37,000 113 533 0
2021-08-04 05:31:25 GMT 45.898365 3.914497 37,000 112 533 0
2021-08-04 05:31:21 GMT 45.902115 3.901888 37,000 112 533 0
2021-08-04 05:31:18 GMT 45.904976 3.892113 37,000 113 532 0
2021-08-04 05:31:12 GMT 45.910950 3.872011 37,000 113 532 0
2021-08-04 05:31:09 GMT 45.914978 3.858345 37,000 113 532 0
2021-08-04 05:31:03 GMT 45.919407 3.843430 37,000 113 532 0
2021-08-04 05:30:59 GMT 45.924389 3.826538 37,000 113 532 0
2021-08-04 05:30:55 GMT 45.926949 3.817818 37,000 112 531 0
2021-08-04 05:30:51 GMT 45.934525 3.792159 37,000 112 531 0
2021-08-04 05:30:47 GMT 45.934525 3.792159 37,000 112 531 0
2021-08-04 05:30:43 GMT 45.938599 3.778225 37,000 112 531 0
2021-08-04 05:30:40 GMT 45.941025 3.770119 37,000 112 531 0
2021-08-04 05:30:37 GMT 45.944035 3.759727 37,000 112 532 0
2021-08-04 05:30:33 GMT 45.948395 3.744730 37,000 112 531 0
2021-08-04 05:30:30 GMT 45.951141 3.735285 37,000 112 532 0
2021-08-04 05:30:27 GMT 45.953659 3.726509 37,000 112 531 0
2021-08-04 05:30:23 GMT 45.957813 3.711800 37,000 111 532 0
2021-08-04 05:30:19 GMT 45.960838 3.701019 37,000 111 532 0
2021-08-04 05:30:16 GMT 45.964874 3.686583 37,000 111 532 0
2021-08-04 05:30:10 GMT 45.969543 3.669903 37,000 111 532 0
2021-08-04 05:30:07 GMT 45.972153 3.660390 37,000 111 531 0
2021-08-04 05:30:04 GMT 45.974525 3.651924 37,000 111 531 0
2021-08-04 05:30:01 GMT 45.977737 3.640457 37,000 111 531 0
2021-08-04 05:29:58 GMT 45.980804 3.629307 37,000 111 531 0
2021-08-04 05:29:55 GMT 45.983093 3.621134 37,000 111 531 0
2021-08-04 05:29:50 GMT 45.987396 3.605726 37,000 111 531 0
2021-08-04 05:29:47 GMT 45.990120 3.595963 37,000 111 530 0
2021-08-04 05:29:44 GMT 45.992844 3.586098 37,000 111 530 0
2021-08-04 05:29:41 GMT 45.996918 3.571428 37,000 111 530 0
2021-08-04 05:29:37 GMT 46.000034 3.560326 37,000 111 530 0
2021-08-04 05:29:31 GMT 46.004410 3.544670 37,000 111 529 0
2021-08-04 05:29:28 GMT 46.008224 3.530966 37,000 111 529 0
2021-08-04 05:29:24 GMT 46.011932 3.517568 37,000 111 529 0
2021-08-04 05:29:21 GMT 46.014908 3.506849 37,000 111 528 0
2021-08-04 05:29:17 GMT 46.017563 3.497404 37,000 111 528 0
2021-08-04 05:29:14 GMT 46.024200 3.473287 37,000 111 528 0
2021-08-04 05:29:10 GMT 46.024200 3.473287 37,000 111 528 0
2021-08-04 05:29:07 GMT 46.026569 3.464813 37,000 111 528 0
2021-08-04 05:29:04 GMT 46.032028 3.444951 37,000 111 527 0
2021-08-04 05:29:01 GMT 46.032028 3.444951 37,000 111 527 0
2021-08-04 05:28:57 GMT 46.035553 3.432290 37,000 111 527 0
2021-08-04 05:28:50 GMT 46.041420 3.411186 37,000 111 526 0
2021-08-04 05:28:47 GMT 46.044910 3.398552 37,000 111 526 0
2021-08-04 05:28:40 GMT 46.050934 3.376822 37,000 111 526 0
2021-08-04 05:28:36 GMT 46.054779 3.362888 37,000 111 525 0
2021-08-04 05:28:30 GMT 46.062649 3.334351 37,000 111 525 0
2021-08-04 05:28:27 GMT 46.062649 3.334351 37,000 111 524 0
2021-08-04 05:28:23 GMT 46.065720 3.323364 37,000 111 524 0
2021-08-04 05:28:20 GMT 46.068375 3.313614 37,000 111 524 0
2021-08-04 05:28:17 GMT 46.072449 3.298712 37,000 111 524 0
2021-08-04 05:28:13 GMT 46.075871 3.286423 37,000 111 524 0
2021-08-04 05:28:10 GMT 46.077545 3.280243 37,000 111 523 0
2021-08-04 05:28:06 GMT 46.081177 3.266991 37,000 111 523 0
2021-08-04 05:28:01 GMT 46.085876 3.249825 37,000 111 523 0
2021-08-04 05:27:58 GMT 46.088013 3.242106 37,000 111 523 0
2021-08-04 05:27:55 GMT 46.090622 3.232727 37,000 111 523 0
2021-08-04 05:27:51 GMT 46.094166 3.219818 37,000 111 523 0
2021-08-04 05:27:48 GMT 46.097424 3.207802 37,000 111 523 0
2021-08-04 05:27:45 GMT 46.099655 3.199768 37,000 111 523 0
2021-08-04 05:27:41 GMT 46.103428 3.185829 37,000 111 523 0
2021-08-04 05:27:38 GMT 46.106174 3.175804 37,000 111 523 0
2021-08-04 05:27:35 GMT 46.108734 3.166397 37,000 111 523 0
2021-08-04 05:27:30 GMT 46.113235 3.149861 37,000 111 523 0
2021-08-04 05:27:27 GMT 46.116302 3.138539 37,000 111 522 0
2021-08-04 05:27:24 GMT 46.118317 3.131104 37,000 111 522 0
2021-08-04 05:27:21 GMT 46.120930 3.121422 37,000 111 523 0
2021-08-04 05:27:18 GMT 46.124191 3.109406 37,000 111 521 0
2021-08-04 05:27:14 GMT 46.127449 3.097458 37,000 111 521 0
2021-08-04 05:27:10 GMT 46.130520 3.086197 37,000 111 521 0
2021-08-04 05:27:07 GMT 46.133595 3.074867 37,000 111 521 0
2021-08-04 05:27:04 GMT 46.135780 3.066765 37,000 111 521 0
2021-08-04 05:27:00 GMT 46.139179 3.054199 37,000 111 521 0
2021-08-04 05:26:57 GMT 46.141926 3.044174 37,000 111 521 0
2021-08-04 05:26:54 GMT 46.145233 3.031892 37,000 111 521 0
2021-08-04 05:26:49 GMT 46.148987 3.018025 37,000 111 521 0
2021-08-04 05:26:46 GMT 46.151981 3.007027 37,000 111 520 0
2021-08-04 05:26:43 GMT 46.155052 2.995766 37,000 111 520 0
2021-08-04 05:26:39 GMT 46.157684 2.986071 37,000 111 520 0
2021-08-04 05:26:36 GMT 46.162827 2.967064 37,000 111 520 0
2021-08-04 05:26:33 GMT 46.162827 2.967064 37,000 111 520 0
2021-08-04 05:26:29 GMT 46.166412 2.953812 37,000 111 520 0
2021-08-04 05:26:26 GMT 46.169220 2.943532 37,000 111 520 0
2021-08-04 05:26:23 GMT 46.172047 2.933212 37,000 111 520 0
2021-08-04 05:26:18 GMT 46.178936 2.907738 37,000 111 518 0
2021-08-04 05:26:15 GMT 46.178936 2.907738 37,000 111 520 0
2021-08-04 05:26:10 GMT 46.183456 2.890945 37,000 111 520 0
2021-08-04 05:26:07 GMT 46.186340 2.880294 37,000 111 520 0
2021-08-04 05:26:04 GMT 46.188309 2.872925 37,000 111 520 0
2021-08-04 05:26:01 GMT 46.190414 2.865154 37,000 111 520 0
2021-08-04 05:25:58 GMT 46.193207 2.854838 37,000 111 520 0
2021-08-04 05:25:54 GMT 46.196999 2.840652 37,000 111 518 0
2021-08-04 05:25:51 GMT 46.199661 2.830654 37,000 111 519 0
2021-08-04 05:25:47 GMT 46.202724 2.819366 37,000 111 519 0
2021-08-04 05:25:44 GMT 46.205376 2.809341 37,000 111 518 0
2021-08-04 05:25:39 GMT 46.210922 2.788719 37,000 111 518 0
2021-08-04 05:25:35 GMT 46.214355 2.775857 37,000 111 518 0
2021-08-04 05:25:30 GMT 46.218506 2.760384 37,000 111 518 0
2021-08-04 05:25:27 GMT 46.220764 2.752008 37,000 111 518 0
2021-08-04 05:25:24 GMT 46.225674 2.733673 37,000 111 517 0
2021-08-04 05:25:21 GMT 46.225674 2.733673 37,000 111 518 0
2021-08-04 05:25:17 GMT 46.228775 2.722131 37,000 111 518 0
2021-08-04 05:25:14 GMT 46.232098 2.709846 37,000 111 517 0
2021-08-04 05:25:11 GMT 46.233868 2.703117 37,000 111 517 0
2021-08-04 05:25:07 GMT 46.237778 2.688629 37,000 111 517 0
2021-08-04 05:25:04 GMT 46.241547 2.674484 37,000 111 517 0
2021-08-04 05:25:00 GMT 46.243271 2.668030 37,000 111 517 0
2021-08-04 05:24:57 GMT 46.245785 2.658760 37,000 111 517 0
2021-08-04 05:24:53 GMT 46.249557 2.644624 37,000 111 517 0
2021-08-04 05:24:50 GMT 46.252396 2.633972 37,000 111 517 0
2021-08-04 05:24:47 GMT 46.254913 2.624661 37,000 111 516 0
2021-08-04 05:24:43 GMT 46.258167 2.612480 37,000 111 517 0
2021-08-04 05:24:40 GMT 46.260681 2.603142 37,000 111 517 0
2021-08-04 05:24:37 GMT 46.263245 2.593510 37,000 111 517 0
2021-08-04 05:24:34 GMT 46.266907 2.579643 37,000 110 517 0
2021-08-04 05:24:31 GMT 46.269154 2.571281 37,000 110 517 0
2021-08-04 05:24:28 GMT 46.271111 2.563934 37,000 110 517 0
2021-08-04 05:24:25 GMT 46.273865 2.553651 37,000 110 517 0
2021-08-04 05:24:22 GMT 46.276245 2.544608 37,000 110 517 0
2021-08-04 05:24:17 GMT 46.281303 2.525620 37,000 110 517 0
2021-08-04 05:24:13 GMT 46.284439 2.513725 37,000 110 517 0
2021-08-04 05:24:11 GMT 46.286564 2.505638 37,000 110 517 0
2021-08-04 05:24:08 GMT 46.288467 2.498586 37,000 110 517 0
2021-08-04 05:24:05 GMT 46.291122 2.488604 37,000 110 517 0
2021-08-04 05:24:02 GMT 46.293316 2.480232 37,000 110 517 0
2021-08-04 05:23:58 GMT 46.296753 2.467302 37,000 110 517 0
2021-08-04 05:23:55 GMT 46.301971 2.447685 37,000 110 517 0
2021-08-04 05:23:52 GMT 46.301971 2.447685 37,000 110 517 0
2021-08-04 05:23:47 GMT 46.305790 2.433197 37,000 110 517 0
2021-08-04 05:23:44 GMT 46.308815 2.421936 37,000 110 517 0
2021-08-04 05:23:41 GMT 46.311470 2.411980 37,000 110 517 0
2021-08-04 05:23:35 GMT 46.317673 2.388455 37,000 110 517 0
2021-08-04 05:23:32 GMT 46.319290 2.382317 37,000 110 517 0
2021-08-04 05:23:27 GMT 46.323303 2.367152 37,000 110 517 0
2021-08-04 05:23:24 GMT 46.326180 2.356224 37,000 110 517 0
2021-08-04 05:23:19 GMT 46.330185 2.341049 37,000 110 517 0
2021-08-04 05:23:16 GMT 46.332733 2.331312 37,000 110 517 0
2021-08-04 05:23:13 GMT 46.335159 2.321934 37,000 110 517 0
2021-08-04 05:23:09 GMT 46.340790 2.300631 37,000 110 517 0
2021-08-04 05:23:06 GMT 46.340790 2.300631 37,000 110 517 0
2021-08-04 05:23:03 GMT 46.343685 2.289688 37,000 110 517 64
2021-08-04 05:23:00 GMT 46.346603 2.278725 37,000 110 517 64
2021-08-04 05:22:54 GMT 46.351505 2.259956 37,000 110 517 0
2021-08-04 05:22:49 GMT 46.355713 2.244158 37,000 110 518 0
2021-08-04 05:22:45 GMT 46.362583 2.217934 37,000 110 518 0
2021-08-04 05:22:41 GMT 46.362583 2.217934 37,000 110 517 0
2021-08-04 05:22:35 GMT 46.368122 2.196922 37,000 110 518 64
2021-08-04 05:22:32 GMT 46.370224 2.188825 37,000 110 518 0
2021-08-04 05:22:30 GMT 46.372128 2.181747 37,000 110 518 0
2021-08-04 05:22:24 GMT 46.376770 2.163905 37,000 110 519 -64
2021-08-04 05:22:21 GMT 46.379578 2.153252 37,000 110 518 0
2021-08-04 05:22:16 GMT 46.383160 2.139656 37,000 110 518 0
2021-08-04 05:22:14 GMT 46.385769 2.129631 37,000 110 519 -64
2021-08-04 05:22:11 GMT 46.388233 2.120224 37,000 110 519 0
2021-08-04 05:22:08 GMT 46.390594 2.111117 37,000 110 519 0
2021-08-04 05:22:04 GMT 46.394897 2.094570 37,000 110 519 0
2021-08-04 05:22:01 GMT 46.396568 2.088089 37,000 110 518 -64
2021-08-04 05:21:56 GMT 46.399979 2.075143 37,000 110 518 0
2021-08-04 05:21:51 GMT 46.405087 2.055336 37,000 110 519 0
2021-08-04 05:21:47 GMT 46.407944 2.044261 37,000 110 519 0
2021-08-04 05:21:44 GMT 46.410671 2.033913 37,000 110 519 0
2021-08-04 05:21:41 GMT 46.414032 2.020881 37,000 110 519 0
2021-08-04 05:21:37 GMT 46.416073 2.013107 37,000 110 519 0
2021-08-04 05:21:32 GMT 46.420807 1.994956 37,000 110 519 0
2021-08-04 05:21:29 GMT 46.425064 1.978745 37,000 110 519 0
2021-08-04 05:21:23 GMT 46.429596 1.961194 37,000 110 519 0
2021-08-04 05:21:18 GMT 46.433483 1.946228 37,000 110 518 0
2021-08-04 05:21:13 GMT 46.436741 1.933594 37,000 110 518 0
2021-08-04 05:21:10 GMT 46.438934 1.925153 37,000 110 518 0
2021-08-04 05:21:07 GMT 46.445938 1.898156 37,000 110 519 0
2021-08-04 05:21:02 GMT 46.445938 1.898156 37,000 110 519 0
2021-08-04 05:20:59 GMT 46.448936 1.886421 37,000 110 519 0
2021-08-04 05:20:56 GMT 46.455036 1.862663 37,000 110 519 -64
2021-08-04 05:20:51 GMT 46.458755 1.848383 37,000 110 519 0
2021-08-04 05:20:47 GMT 46.458755 1.848383 37,000 110 518 0
2021-08-04 05:20:41 GMT 46.464615 1.825606 37,000 110 518 0
2021-08-04 05:20:37 GMT 46.467140 1.815834 37,000 110 518 0
2021-08-04 05:20:32 GMT 46.471481 1.798944 37,000 110 519 0
2021-08-04 05:20:29 GMT 46.474030 1.789192 37,000 110 519 0
2021-08-04 05:20:27 GMT 46.475693 1.782666 37,000 110 519 0
2021-08-04 05:20:23 GMT 46.479012 1.769623 37,000 110 518 0
2021-08-04 05:20:20 GMT 46.483711 1.751427 37,000 110 518 0
2021-08-04 05:20:17 GMT 46.483711 1.751427 37,000 110 518 0
2021-08-04 05:20:15 GMT 46.485901 1.743008 37,000 110 518 0
2021-08-04 05:20:10 GMT 46.489902 1.727394 37,000 110 518 0
2021-08-04 05:20:07 GMT 46.491898 1.719561 37,000 110 518 0
2021-08-04 05:20:03 GMT 46.496330 1.702332 37,000 110 518 0
2021-08-04 05:20:00 GMT 46.497940 1.696182 37,000 110 518 0
2021-08-04 05:19:57 GMT 46.499680 1.689349 37,000 110 518 0
2021-08-04 05:19:54 GMT 46.502930 1.676621 37,000 110 518 0
2021-08-04 05:19:50 GMT 46.506245 1.663673 37,000 110 518 0
2021-08-04 05:19:47 GMT 46.508743 1.653911 37,000 110 518 0
2021-08-04 05:19:45 GMT 46.510849 1.645806 37,000 110 518 0
2021-08-04 05:19:42 GMT 46.512993 1.637306 37,000 110 518 0
2021-08-04 05:19:38 GMT 46.516254 1.624672 37,000 110 518 0
2021-08-04 05:19:35 GMT 46.519001 1.613892 37,000 110 518 0
2021-08-04 05:19:32 GMT 46.521973 1.602195 37,000 110 518 64
2021-08-04 05:19:28 GMT 46.524632 1.591782 37,000 110 518 0
2021-08-04 05:19:25 GMT 46.527283 1.581428 37,000 110 518 0
2021-08-04 05:19:21 GMT 46.530304 1.569705 37,000 110 517 0
2021-08-04 05:19:18 GMT 46.532780 1.559990 37,000 110 518 -64
2021-08-04 05:19:15 GMT 46.535706 1.548603 37,000 110 517 0
2021-08-04 05:19:11 GMT 46.538269 1.538555 37,000 110 517 64
2021-08-04 05:19:08 GMT 46.541111 1.527512 37,000 110 517 -64
2021-08-04 05:19:04 GMT 46.544369 1.514809 37,000 110 517 0
2021-08-04 05:18:59 GMT 46.548653 1.497917 37,000 110 516 0
2021-08-04 05:18:56 GMT 46.550995 1.488848 37,000 110 516 0
2021-08-04 05:18:53 GMT 46.553558 1.478733 37,000 110 516 0
2021-08-04 05:18:50 GMT 46.555939 1.469354 37,000 110 517 0
2021-08-04 05:18:47 GMT 46.559734 1.454384 37,000 110 517 0
2021-08-04 05:18:42 GMT 46.562988 1.441353 37,000 110 516 0
2021-08-04 05:18:39 GMT 46.565086 1.433235 37,000 110 516 0
2021-08-04 05:18:36 GMT 46.567600 1.423141 37,000 110 516 0
2021-08-04 05:18:30 GMT 46.574955 1.394302 37,000 110 516 0
2021-08-04 05:18:27 GMT 46.574955 1.394302 37,000 110 516 0
2021-08-04 05:18:21 GMT 46.580402 1.372810 37,000 110 516 0
2021-08-04 05:18:16 GMT 46.584267 1.357567 37,000 110 517 -64
2021-08-04 05:18:11 GMT 46.589081 1.338389 37,000 110 517 64
2021-08-04 05:18:07 GMT 46.591415 1.328944 37,000 110 517 0
2021-08-04 05:18:05 GMT 46.592972 1.322754 37,000 110 517 0
2021-08-04 05:18:02 GMT 46.596275 1.309708 37,000 110 516 0
2021-08-04 05:17:57 GMT 46.599701 1.296052 37,000 110 516 0
2021-08-04 05:17:55 GMT 46.600845 1.291496 37,000 110 516 0
2021-08-04 05:17:49 GMT 46.606110 1.270730 37,000 110 516 0
2021-08-04 05:17:46 GMT 46.608994 1.259341 37,000 110 517 0
2021-08-04 05:17:41 GMT 46.612755 1.244339 37,000 110 517 0
2021-08-04 05:17:38 GMT 46.616062 1.231293 37,000 110 517 -64
2021-08-04 05:17:29 GMT 46.623463 1.201698 37,000 109 516 0
2021-08-04 05:17:26 GMT 46.625092 1.195175 37,000 109 516 0
2021-08-04 05:17:20 GMT 46.629978 1.175606 37,000 110 517 0
2021-08-04 05:17:17 GMT 46.632496 1.165512 37,000 110 517 0
2021-08-04 05:17:12 GMT 46.637329 1.146263 37,000 110 517 0
2021-08-04 05:17:07 GMT 46.640453 1.133926 37,000 110 517 0
2021-08-04 05:17:05 GMT 46.641998 1.127706 37,000 109 516 0
2021-08-04 05:17:00 GMT 46.646210 1.110825 37,000 109 515 0
2021-08-04 05:16:57 GMT 46.648727 1.100709 37,000 109 516 0
2021-08-04 05:16:53 GMT 46.651485 1.089638 37,000 109 515 0
2021-08-04 05:16:50 GMT 46.654266 1.078536 37,000 109 515 0
2021-08-04 05:16:47 GMT 46.657104 1.067148 37,000 109 515 0
2021-08-04 05:16:44 GMT 46.659542 1.057365 37,000 109 515 0
2021-08-04 05:16:40 GMT 46.662140 1.046984 37,000 109 515 0
2021-08-04 05:16:37 GMT 46.665115 1.034926 37,000 109 515 0
2021-08-04 05:16:35 GMT 46.666718 1.028427 37,000 109 515 0
2021-08-04 05:16:32 GMT 46.669128 1.018639 37,000 109 515 0
2021-08-04 05:16:30 GMT 46.670288 1.014092 37,000 109 515 0
2021-08-04 05:16:27 GMT 46.673180 1.002365 37,000 109 515 0
2021-08-04 05:16:24 GMT 46.675140 0.994598 37,000 109 515 0
2021-08-04 05:16:21 GMT 46.678486 0.980873 37,000 109 515 0
2021-08-04 05:16:17 GMT 46.681328 0.969475 37,000 109 515 0
2021-08-04 05:16:15 GMT 46.682831 0.963313 37,000 109 514 0
2021-08-04 05:16:10 GMT 46.686634 0.947983 37,000 109 514 0
2021-08-04 05:16:07 GMT 46.689426 0.936584 37,000 109 515 0
2021-08-04 05:16:04 GMT 46.690979 0.930421 37,000 109 515 0
2021-08-04 05:16:00 GMT 46.697479 0.904094 37,000 109 515 0
2021-08-04 05:15:57 GMT 46.699249 0.896896 37,000 109 514 0
2021-08-04 05:15:54 GMT 46.699249 0.896896 37,000 109 514 0
2021-08-04 05:15:50 GMT 46.702694 0.882957 37,000 109 514 0
2021-08-04 05:15:47 GMT 46.705444 0.871872 37,000 109 514 0
2021-08-04 05:15:44 GMT 46.707458 0.863767 37,000 109 514 0
2021-08-04 05:15:40 GMT 46.710842 0.850067 37,000 109 514 0
2021-08-04 05:15:37 GMT 46.713547 0.839047 37,000 109 514 0
2021-08-04 05:15:34 GMT 46.715561 0.830942 37,000 109 514 0
2021-08-04 05:15:29 GMT 46.720230 0.812050 37,000 109 514 0
2021-08-04 05:15:26 GMT 46.721832 0.805552 37,000 109 514 0
2021-08-04 05:15:23 GMT 46.724030 0.796777 37,000 109 514 0
2021-08-04 05:15:20 GMT 46.726578 0.786415 37,000 109 513 0
2021-08-04 05:15:17 GMT 46.729881 0.773094 37,000 109 513 0
2021-08-04 05:15:14 GMT 46.731766 0.765225 37,000 109 513 0
2021-08-04 05:15:09 GMT 46.738029 0.739929 37,000 109 513 0
2021-08-04 05:15:06 GMT 46.739937 0.732101 37,000 109 513 0
2021-08-04 05:15:03 GMT 46.739937 0.732101 37,000 109 513 0
2021-08-04 05:14:59 GMT 46.743713 0.716791 37,000 109 513 0
2021-08-04 05:14:56 GMT 46.748199 0.698570 37,000 109 513 0
2021-08-04 05:14:53 GMT 46.748199 0.698570 37,000 109 513 0
2021-08-04 05:14:48 GMT 46.752090 0.682693 37,000 109 513 0
2021-08-04 05:14:45 GMT 46.755066 0.670635 37,000 109 514 0
2021-08-04 05:14:42 GMT 46.757488 0.660896 37,000 109 514 0
2021-08-04 05:14:38 GMT 46.761108 0.646251 37,000 109 514 0
2021-08-04 05:14:35 GMT 46.762802 0.639418 37,000 109 514 0
2021-08-04 05:14:32 GMT 46.765594 0.628029 37,000 109 514 0
2021-08-04 05:14:29 GMT 46.770287 0.609192 37,000 109 514 0
2021-08-04 05:14:26 GMT 46.770287 0.609192 37,000 109 514 0
2021-08-04 05:14:23 GMT 46.772289 0.601089 37,000 109 514 0
2021-08-04 05:14:19 GMT 46.776352 0.584486 37,000 109 514 0
2021-08-04 05:14:16 GMT 46.778389 0.576370 37,000 109 514 0
2021-08-04 05:14:14 GMT 46.779739 0.570808 37,000 109 514 0
2021-08-04 05:14:11 GMT 46.782158 0.561058 37,000 109 514 0
2021-08-04 05:14:08 GMT 46.784489 0.551582 37,000 109 513 0
2021-08-04 05:14:05 GMT 46.787281 0.540184 37,000 109 514 0
2021-08-04 05:14:01 GMT 46.789673 0.530425 37,000 109 514 0
2021-08-04 05:13:58 GMT 46.792587 0.518692 37,000 109 514 0
2021-08-04 05:13:55 GMT 46.795238 0.507912 37,000 109 515 0
2021-08-04 05:13:52 GMT 46.797318 0.499476 37,000 109 515 0
2021-08-04 05:13:48 GMT 46.800594 0.486076 37,000 109 515 0
2021-08-04 05:13:45 GMT 46.803314 0.475025 37,000 109 514 0
2021-08-04 05:13:42 GMT 46.805649 0.465579 37,000 109 514 0
2021-08-04 05:13:39 GMT 46.808258 0.454794 37,000 109 514 0
2021-08-04 05:13:35 GMT 46.811554 0.441463 37,000 109 514 0
2021-08-04 05:13:32 GMT 46.813023 0.435265 37,000 109 514 0
2021-08-04 05:13:29 GMT 46.815956 0.423180 37,000 109 513 0
2021-08-04 05:13:26 GMT 46.818237 0.413704 37,000 109 513 0
2021-08-04 05:13:24 GMT 46.819729 0.407455 37,000 109 514 0
2021-08-04 05:13:21 GMT 46.822147 0.397362 37,000 108 513 0
2021-08-04 05:13:18 GMT 46.825241 0.384254 37,000 108 513 0
2021-08-04 05:13:15 GMT 46.828995 0.367908 37,000 108 513 0
2021-08-04 05:13:12 GMT 46.828995 0.367908 37,000 108 513 0
2021-08-04 05:13:09 GMT 46.833923 0.346550 37,000 108 513 0
2021-08-04 05:13:05 GMT 46.833923 0.346550 37,000 108 513 0
2021-08-04 05:13:03 GMT 46.835587 0.339370 37,000 108 513 0
2021-08-04 05:13:00 GMT 46.838516 0.326575 37,000 108 512 0
2021-08-04 05:12:57 GMT 46.840302 0.318741 37,000 108 512 0
2021-08-04 05:12:54 GMT 46.842270 0.310230 37,000 108 512 0
2021-08-04 05:12:52 GMT 46.843983 0.302673 37,000 108 512 0
2021-08-04 05:12:49 GMT 46.846867 0.290314 37,000 108 512 0
2021-08-04 05:12:45 GMT 46.849102 0.280495 37,000 108 511 0
2021-08-04 05:12:42 GMT 46.851288 0.270950 37,000 108 512 0
2021-08-04 05:12:38 GMT 46.854500 0.256874 37,000 108 511 0
2021-08-04 05:12:35 GMT 46.856415 0.248398 37,000 108 511 0
2021-08-04 05:12:31 GMT 46.859482 0.234970 37,000 108 511 0
2021-08-04 05:12:28 GMT 46.861908 0.224148 37,000 108 511 0
2021-08-04 05:12:25 GMT 46.864929 0.210732 37,000 108 511 0
2021-08-04 05:12:22 GMT 46.866421 0.204208 37,000 108 511 0
2021-08-04 05:12:18 GMT 46.869305 0.191416 37,000 108 511 0
2021-08-04 05:12:14 GMT 46.872665 0.176674 37,000 108 511 0
2021-08-04 05:12:11 GMT 46.874146 0.170147 37,000 108 511 0
2021-08-04 05:12:08 GMT 46.876740 0.158684 37,000 108 511 0
2021-08-04 05:12:05 GMT 46.878754 0.149895 37,000 108 511 0
2021-08-04 05:12:02 GMT 46.881317 0.138428 37,000 108 511 0
2021-08-04 05:11:58 GMT 46.886353 0.116180 37,000 108 511 0
2021-08-04 05:11:55 GMT 46.886353 0.116180 37,000 108 511 0
2021-08-04 05:11:51 GMT 46.889229 0.103384 37,000 108 511 0
2021-08-04 05:11:48 GMT 46.893604 0.084088 37,000 108 511 0
2021-08-04 05:11:45 GMT 46.893604 0.084088 37,000 108 511 0
2021-08-04 05:11:42 GMT 46.896561 0.070999 37,000 108 511 0
2021-08-04 05:11:36 GMT 46.900169 0.054932 37,000 108 512 0
2021-08-04 05:11:33 GMT 46.902969 0.042435 37,000 108 512 0
2021-08-04 05:11:27 GMT 46.906860 0.025063 37,000 108 512 64
2021-08-04 05:11:24 GMT 46.909424 0.013527 37,000 108 512 64
2021-08-04 05:11:21 GMT 46.911297 0.005000 37,000 108 512 0
2021-08-04 05:11:18 GMT 46.913818 -0.006111 37,000 108 512 0
2021-08-04 05:11:15 GMT 46.915924 -0.015656 37,000 108 512 0
2021-08-04 05:11:13 GMT 46.917755 -0.023895 37,000 108 512 0
2021-08-04 05:11:11 GMT 46.918884 -0.028804 37,000 108 512 0
2021-08-04 05:11:05 GMT 46.924236 -0.052748 37,000 108 512 0
2021-08-04 05:11:02 GMT 46.925354 -0.057678 37,000 108 512 0
2021-08-04 05:10:58 GMT 46.929245 -0.075050 37,000 108 512 0
2021-08-04 05:10:55 GMT 46.930710 -0.081623 37,000 108 512 0
2021-08-04 05:10:49 GMT 46.937622 -0.112473 37,000 108 512 0
2021-08-04 05:10:45 GMT 46.937622 -0.112473 37,000 108 512 0
2021-08-04 05:10:42 GMT 46.939831 -0.122329 37,000 108 512 0
2021-08-04 05:10:37 GMT 46.943882 -0.140428 37,000 108 512 0
2021-08-04 05:10:34 GMT 46.945698 -0.148668 37,000 108 512 0
2021-08-04 05:10:32 GMT 46.947468 -0.156555 37,000 108 512 0
2021-08-04 05:10:27 GMT 46.950989 -0.172005 37,000 107 513 0
2021-08-04 05:10:24 GMT 46.954742 -0.188759 37,000 108 512 0
2021-08-04 05:10:22 GMT 46.954742 -0.188759 37,000 108 512 0
2021-08-04 05:10:18 GMT 46.958038 -0.203178 37,000 108 513 0
2021-08-04 05:10:15 GMT 46.960098 -0.212379 37,000 108 513 0
2021-08-04 05:10:12 GMT 46.962410 -0.222966 37,000 107 513 0
2021-08-04 05:10:07 GMT 46.965946 -0.238741 37,000 109 512 0
2021-08-04 05:10:04 GMT 46.968018 -0.247948 37,000 108 512 0
2021-08-04 05:10:01 GMT 46.969997 -0.256489 37,000 109 512 0
2021-08-04 05:09:58 GMT 46.976097 -0.280433 37,000 112 510 64
2021-08-04 05:09:54 GMT 46.976097 -0.280433 37,000 112 510 64
2021-08-04 05:09:51 GMT 46.978363 -0.288734 37,000 116 507 0
2021-08-04 05:09:47 GMT 46.982895 -0.304253 37,000 114 509 0
2021-08-04 05:09:44 GMT 46.985592 -0.313040 37,000 115 509 0
2021-08-04 05:09:42 GMT 46.988205 -0.321144 37,000 115 508 0
2021-08-04 05:09:36 GMT 46.992764 -0.334660 37,000 116 507 0
2021-08-04 05:09:34 GMT 46.996113 -0.344097 37,000 117 506 0
2021-08-04 05:09:31 GMT 46.999092 -0.352267 37,000 118 506 0
2021-08-04 05:09:27 GMT 47.007294 -0.373329 37,000 120 505 0
2021-08-04 05:09:24 GMT 47.007294 -0.373329 37,000 121 504 0
2021-08-04 05:09:21 GMT 47.011047 -0.382324 37,000 122 503 0
2021-08-04 05:09:17 GMT 47.015480 -0.392691 37,000 123 502 0
2021-08-04 05:09:14 GMT 47.020340 -0.403473 37,000 123 502 0
2021-08-04 05:09:11 GMT 47.023441 -0.410227 37,000 124 501 0
2021-08-04 05:09:07 GMT 47.029724 -0.423255 37,000 126 500 0
2021-08-04 05:09:04 GMT 47.035767 -0.435196 37,000 128 499 0
2021-08-04 05:08:57 GMT 47.042152 -0.447129 37,000 129 498 0
2021-08-04 05:08:54 GMT 47.047508 -0.456848 37,000 129 498 0
2021-08-04 05:08:51 GMT 47.051743 -0.464454 37,000 129 498 0
2021-08-04 05:08:46 GMT 47.062542 -0.483751 37,000 129 498 0
2021-08-04 05:08:43 GMT 47.062542 -0.483751 37,000 129 499 0
2021-08-04 05:08:40 GMT 47.066734 -0.491356 37,000 129 499 0
2021-08-04 05:08:38 GMT 47.070236 -0.497612 37,000 129 499 0
2021-08-04 05:08:36 GMT 47.073296 -0.503117 37,000 129 499 0
2021-08-04 05:08:33 GMT 47.079575 -0.514366 37,000 129 499 0
2021-08-04 05:08:30 GMT 47.086716 -0.527206 37,000 129 499 0
2021-08-04 05:08:27 GMT 47.086716 -0.527206 37,000 128 500 0
2021-08-04 05:08:24 GMT 47.090927 -0.534828 37,000 128 500 -64
2021-08-04 05:08:21 GMT 47.096714 -0.545373 37,000 128 500 -64
2021-08-04 05:08:17 GMT 47.100769 -0.552818 37,000 128 500 0
2021-08-04 05:08:13 GMT 47.106209 -0.562908 37,000 127 500 0
2021-08-04 05:08:10 GMT 47.111610 -0.573050 37,000 127 501 0
2021-08-04 05:08:06 GMT 47.116917 -0.583332 37,000 126 502 0
2021-08-04 05:08:03 GMT 47.120640 -0.590726 37,000 125 502 0
2021-08-04 05:08:00 GMT 47.124878 -0.599248 37,000 125 502 64
2021-08-04 05:07:56 GMT 47.129906 -0.609460 37,000 125 502 0
2021-08-04 05:07:53 GMT 47.133957 -0.617706 37,000 125 502 0
2021-08-04 05:07:50 GMT 47.138168 -0.626289 37,000 125 502 0
2021-08-04 05:07:47 GMT 47.142426 -0.634804 37,000 126 503 -64
2021-08-04 05:07:44 GMT 47.145966 -0.641996 37,000 126 503 -64
2021-08-04 05:07:41 GMT 47.155228 -0.660729 37,000 125 502 0
2021-08-04 05:07:38 GMT 47.155228 -0.660729 37,000 125 503 0
2021-08-04 05:07:36 GMT 47.162071 -0.674532 37,000 126 506 0
2021-08-04 05:07:33 GMT 47.162071 -0.674532 37,000 125 503 0
2021-08-04 05:07:30 GMT 47.165844 -0.682279 37,000 125 503 0
2021-08-04 05:07:26 GMT 47.172226 -0.695297 37,000 125 503 0
2021-08-04 05:07:23 GMT 47.175247 -0.701408 37,000 125 503 0
2021-08-04 05:07:21 GMT 47.178085 -0.707245 37,000 125 503 0
2021-08-04 05:07:16 GMT 47.184357 -0.719948 37,000 125 504 0
2021-08-04 05:07:13 GMT 47.188980 -0.729355 37,000 125 504 0
2021-08-04 05:07:10 GMT 47.193192 -0.737938 37,000 126 504 0
2021-08-04 05:07:06 GMT 47.198292 -0.748127 37,000 126 504 0
2021-08-04 05:07:03 GMT 47.202805 -0.757282 37,000 126 504 0
2021-08-04 05:07:01 GMT 47.205971 -0.763620 37,000 126 505 0
2021-08-04 05:06:58 GMT 47.209442 -0.770485 37,000 126 505 0
2021-08-04 05:06:53 GMT 47.217049 -0.785663 37,000 126 504 0
2021-08-04 05:06:51 GMT 47.222031 -0.795547 37,000 126 505 0
2021-08-04 05:06:46 GMT 47.226173 -0.803833 37,000 126 505 0
2021-08-04 05:06:43 GMT 47.231186 -0.813744 37,000 126 505 -64
2021-08-04 05:06:40 GMT 47.234276 -0.819820 37,000 126 505 0
2021-08-04 05:06:37 GMT 47.239395 -0.829961 37,000 126 506 0
2021-08-04 05:06:34 GMT 47.242035 -0.835167 37,000 126 506 0
2021-08-04 05:06:31 GMT 47.247776 -0.846511 37,000 126 506 0
2021-08-04 05:06:28 GMT 47.250290 -0.851440 37,000 126 506 0
2021-08-04 05:06:24 GMT 47.256409 -0.863525 37,000 126 506 0
2021-08-04 05:06:21 GMT 47.261444 -0.873413 37,000 126 506 0
2021-08-04 05:06:18 GMT 47.269516 -0.889400 37,000 126 506 0
2021-08-04 05:06:15 GMT 47.269516 -0.889400 37,000 126 506 0
2021-08-04 05:06:12 GMT 47.273285 -0.896865 37,000 126 506 0
2021-08-04 05:06:09 GMT 47.277893 -0.905950 37,000 126 506 0
2021-08-04 05:06:04 GMT 47.284424 -0.918938 37,000 126 506 0
2021-08-04 05:06:01 GMT 47.289162 -0.928345 37,000 126 506 0
2021-08-04 05:05:58 GMT 47.292618 -0.935280 37,000 126 506 0
2021-08-04 05:05:54 GMT 47.298431 -0.946884 37,000 126 506 0
2021-08-04 05:05:51 GMT 47.302094 -0.954025 37,000 126 506 -64
2021-08-04 05:05:48 GMT 47.306396 -0.962608 37,000 126 506 0
2021-08-04 05:05:45 GMT 47.312805 -0.975311 37,000 126 506 0
2021-08-04 05:05:42 GMT 47.315414 -0.980530 37,000 126 506 0
2021-08-04 05:05:39 GMT 47.320587 -0.990761 37,000 126 506 0
2021-08-04 05:05:35 GMT 47.324215 -0.997925 37,000 126 506 0
2021-08-04 05:05:32 GMT 47.329891 -1.009263 37,000 126 506 0
2021-08-04 05:05:30 GMT 47.331985 -1.013420 37,000 126 506 0
2021-08-04 05:05:24 GMT 47.339947 -1.029194 37,000 126 506 0
2021-08-04 05:05:21 GMT 47.343441 -1.036095 37,000 126 506 0
2021-08-04 05:05:19 GMT 47.351494 -1.052152 37,000 126 506 0
2021-08-04 05:05:16 GMT 47.351494 -1.052152 37,000 126 506 0
2021-08-04 05:05:12 GMT 47.357071 -1.063202 37,000 126 506 0
2021-08-04 05:05:10 GMT 47.359127 -1.067364 37,000 126 507 -64
2021-08-04 05:05:07 GMT 47.363178 -1.075393 37,000 126 506 0
2021-08-04 05:05:04 GMT 47.367599 -1.084282 37,000 126 506 0
2021-08-04 05:05:01 GMT 47.371902 -1.092865 37,000 126 506 0
2021-08-04 05:04:59 GMT 47.375793 -1.100605 37,000 126 506 0
2021-08-04 05:04:56 GMT 47.379101 -1.107295 37,000 126 506 0
2021-08-04 05:04:54 GMT 47.382591 -1.114197 37,000 126 506 0
2021-08-04 05:04:51 GMT 47.385475 -1.120042 37,000 126 506 0
2021-08-04 05:04:49 GMT 47.388382 -1.125893 37,000 126 506 0
2021-08-04 05:04:46 GMT 47.393509 -1.136124 37,000 126 506 64
2021-08-04 05:04:44 GMT 47.396164 -1.141411 37,000 126 506 64
2021-08-04 05:04:41 GMT 47.399769 -1.148635 37,000 126 506 64
2021-08-04 05:04:39 GMT 47.402653 -1.154480 37,000 126 507 0
2021-08-04 05:04:36 GMT 47.407497 -1.164199 37,000 126 507 0
2021-08-04 05:04:33 GMT 47.410007 -1.169199 37,000 126 506 0
2021-08-04 05:04:31 GMT 47.413734 -1.176734 37,000 126 506 0
2021-08-04 05:04:28 GMT 47.417358 -1.183914 37,000 126 507 0
2021-08-04 05:04:25 GMT 47.421509 -1.192298 37,000 126 507 -64
2021-08-04 05:04:21 GMT 47.428585 -1.206454 37,000 126 507 0
2021-08-04 05:04:17 GMT 47.434261 -1.217863 37,000 126 507 0
2021-08-04 05:04:14 GMT 47.437042 -1.223465 37,000 126 506 0
2021-08-04 05:04:12 GMT 47.440224 -1.229835 37,000 126 506 0
2021-08-04 05:04:09 GMT 47.445190 -1.239876 37,000 126 507 0
2021-08-04 05:04:06 GMT 47.448509 -1.246596 37,000 126 507 0
2021-08-04 05:04:04 GMT 47.450836 -1.251315 37,000 126 507 0
2021-08-04 05:04:01 GMT 47.455444 -1.260544 37,000 126 508 64
2021-08-04 05:03:58 GMT 47.459152 -1.268028 37,000 126 508 0
2021-08-04 05:03:55 GMT 47.463593 -1.276949 37,000 126 508 0
2021-08-04 05:03:51 GMT 47.470249 -1.290401 37,000 126 508 0
2021-08-04 05:03:48 GMT 47.474251 -1.298499 37,000 126 507 0
2021-08-04 05:03:45 GMT 47.476868 -1.303802 37,000 126 507 -64
2021-08-04 05:03:43 GMT 47.479652 -1.309345 37,000 126 507 0
2021-08-04 05:03:40 GMT 47.484215 -1.318571 37,000 126 508 0
2021-08-04 05:03:37 GMT 47.488632 -1.327560 37,000 126 508 0
2021-08-04 05:03:35 GMT 47.490692 -1.331749 37,000 126 508 0
2021-08-04 05:03:33 GMT 47.494736 -1.339839 37,000 126 507 0
2021-08-04 05:03:30 GMT 47.499016 -1.348431 37,000 126 507 0
2021-08-04 05:03:27 GMT 47.501816 -1.354065 37,000 126 507 0
2021-08-04 05:03:24 GMT 47.506233 -1.362939 37,000 126 507 0
2021-08-04 05:03:21 GMT 47.510422 -1.371300 37,000 126 507 0
2021-08-04 05:03:18 GMT 47.515125 -1.380827 37,000 126 507 0
2021-08-04 05:03:15 GMT 47.518753 -1.388054 37,000 126 507 0
2021-08-04 05:03:12 GMT 47.522598 -1.395882 37,000 126 507 0
2021-08-04 05:03:09 GMT 47.528458 -1.407555 37,000 126 507 0
2021-08-04 05:03:06 GMT 47.535374 -1.421532 37,000 126 507 0
2021-08-04 05:03:03 GMT 47.535374 -1.421532 37,000 126 507 0
2021-08-04 05:03:00 GMT 47.539146 -1.429068 37,000 126 508 0
2021-08-04 05:02:57 GMT 47.543987 -1.438857 37,000 126 507 0
2021-08-04 05:02:53 GMT 47.549667 -1.450336 37,000 126 507 0
2021-08-04 05:02:51 GMT 47.552601 -1.456181 37,000 126 507 0
2021-08-04 05:02:48 GMT 47.556793 -1.464546 37,000 126 508 0
2021-08-04 05:02:45 GMT 47.564053 -1.478999 37,000 126 507 0
2021-08-04 05:02:43 GMT 47.564053 -1.478999 37,000 126 507 0
2021-08-04 05:02:40 GMT 47.567917 -1.486862 37,000 126 508 0
2021-08-04 05:02:37 GMT 47.571716 -1.494347 37,000 126 508 0
2021-08-04 05:02:34 GMT 47.576065 -1.502998 37,000 126 508 0
2021-08-04 05:02:32 GMT 47.578156 -1.507169 37,000 126 508 0
2021-08-04 05:02:29 GMT 47.583324 -1.517451 37,000 126 508 0
2021-08-04 05:02:27 GMT 47.586136 -1.523048 37,000 126 508 0
2021-08-04 05:02:24 GMT 47.590210 -1.531082 37,000 126 508 0
2021-08-04 05:02:20 GMT 47.595798 -1.542241 37,000 126 508 0
2021-08-04 05:02:17 GMT 47.601425 -1.553329 37,000 126 508 0
2021-08-04 05:02:14 GMT 47.604355 -1.559235 37,000 126 508 0
2021-08-04 05:02:10 GMT 47.612640 -1.575645 37,000 126 508 0
2021-08-04 05:02:08 GMT 47.612640 -1.575645 37,000 126 508 0
2021-08-04 05:02:06 GMT 47.614838 -1.580059 37,000 126 508 0
2021-08-04 05:02:03 GMT 47.618774 -1.587868 37,000 126 508 0
2021-08-04 05:02:00 GMT 47.622986 -1.596257 37,000 126 508 0
2021-08-04 05:01:57 GMT 47.627872 -1.605976 37,000 126 508 0
2021-08-04 05:01:54 GMT 47.632370 -1.614922 37,000 126 508 0
2021-08-04 05:01:50 GMT 47.637745 -1.625484 37,000 127 508 0
2021-08-04 05:01:48 GMT 47.641113 -1.632156 37,000 126 508 0
2021-08-04 05:01:46 GMT 47.642956 -1.635766 37,000 126 507 0
2021-08-04 05:01:44 GMT 47.646881 -1.643486 37,000 127 508 0
2021-08-04 05:01:40 GMT 47.651276 -1.652138 37,000 127 508 0
2021-08-04 05:01:37 GMT 47.656410 -1.662034 37,000 127 508 0
2021-08-04 05:01:34 GMT 47.660660 -1.670334 37,000 127 508 0
2021-08-04 05:01:32 GMT 47.663498 -1.675896 37,000 127 508 0
2021-08-04 05:01:28 GMT 47.668747 -1.686120 37,000 127 508 0
2021-08-04 05:01:26 GMT 47.670914 -1.690247 37,000 127 508 0
2021-08-04 05:01:23 GMT 47.676590 -1.701302 37,000 127 508 0
2021-08-04 05:01:21 GMT 47.678707 -1.705416 37,000 127 507 0
2021-08-04 05:01:18 GMT 47.683968 -1.715628 37,000 127 507 0
2021-08-04 05:01:16 GMT 47.685379 -1.718399 37,000 127 507 0
2021-08-04 05:01:13 GMT 47.689743 -1.727037 37,000 126 507 0
2021-08-04 05:01:10 GMT 47.693985 -1.735359 37,000 126 507 0
2021-08-04 05:01:07 GMT 47.698772 -1.744784 37,000 126 508 0
2021-08-04 05:01:04 GMT 47.703381 -1.753939 37,000 126 508 0
2021-08-04 05:01:02 GMT 47.709850 -1.766756 37,000 126 507 0
2021-08-04 05:00:59 GMT 47.709850 -1.766756 37,000 126 507 0
2021-08-04 05:00:56 GMT 47.713345 -1.773729 37,000 126 508 0
2021-08-04 05:00:53 GMT 47.718521 -1.783974 37,000 126 508 0
2021-08-04 05:00:50 GMT 47.723446 -1.793729 37,000 126 507 0
2021-08-04 05:00:46 GMT 47.727219 -1.801277 37,000 126 507 0
2021-08-04 05:00:44 GMT 47.731293 -1.809311 37,000 126 506 0
2021-08-04 05:00:39 GMT 47.737133 -1.821054 37,000 126 507 0
2021-08-04 05:00:37 GMT 47.739784 -1.826336 37,000 126 507 0
2021-08-04 05:00:35 GMT 47.742828 -1.832520 37,000 126 507 0
2021-08-04 05:00:33 GMT 47.746490 -1.839729 37,000 126 507 0
2021-08-04 05:00:30 GMT 47.749840 -1.846478 37,000 126 507 0
2021-08-04 05:00:28 GMT 47.753311 -1.853462 37,000 126 507 0
2021-08-04 05:00:26 GMT 47.755566 -1.857887 37,000 126 507 0
2021-08-04 05:00:24 GMT 47.759060 -1.864859 37,000 126 506 0
2021-08-04 05:00:19 GMT 47.765900 -1.878521 37,000 126 506 0
2021-08-04 05:00:16 GMT 47.769951 -1.886620 37,000 126 506 0
2021-08-04 05:00:13 GMT 47.773441 -1.893592 37,000 126 506 0
2021-08-04 05:00:09 GMT 47.779449 -1.905635 37,000 126 507 0
2021-08-04 05:00:07 GMT 47.782940 -1.912607 37,000 126 507 0
2021-08-04 05:00:04 GMT 47.787415 -1.921509 37,000 126 507 0
2021-08-04 04:59:59 GMT 47.792995 -1.932678 37,000 126 507 0
2021-08-04 04:59:57 GMT 47.796616 -1.939911 37,000 126 507 0
2021-08-04 04:59:55 GMT 47.799957 -1.946571 37,000 126 507 0
2021-08-04 04:59:52 GMT 47.802658 -1.951859 37,000 126 507 0
2021-08-04 04:59:50 GMT 47.806137 -1.958862 37,000 126 507 0
2021-08-04 04:59:47 GMT 47.811310 -1.969162 37,000 126 507 0
2021-08-04 04:59:45 GMT 47.813278 -1.973076 37,000 126 507 0
2021-08-04 04:59:42 GMT 47.816319 -1.979229 37,000 126 507 0
2021-08-04 04:59:40 GMT 47.827377 -2.001228 37,000 126 507 0
2021-08-04 04:59:35 GMT 47.827377 -2.001228 37,000 126 506 0
2021-08-04 04:59:33 GMT 47.829758 -2.005966 37,000 126 506 0
2021-08-04 04:59:29 GMT 47.835079 -2.016555 37,000 126 506 0
2021-08-04 04:59:27 GMT 47.839233 -2.024986 37,000 126 506 0
2021-08-04 04:59:25 GMT 47.841202 -2.028900 37,000 126 506 0
2021-08-04 04:59:22 GMT 47.849136 -2.044795 37,000 126 506 0
2021-08-04 04:59:19 GMT 47.849136 -2.044795 37,000 126 506 0
2021-08-04 04:59:16 GMT 47.854706 -2.055954 37,000 126 507 0
2021-08-04 04:59:13 GMT 47.857498 -2.061584 37,000 126 507 0
2021-08-04 04:59:10 GMT 47.862682 -2.071909 37,000 126 507 0
2021-08-04 04:59:07 GMT 47.866592 -2.079726 37,000 126 506 0
2021-08-04 04:59:05 GMT 47.869400 -2.085274 37,000 126 507 0
2021-08-04 04:59:02 GMT 47.872375 -2.091110 37,000 126 507 0
2021-08-04 04:58:59 GMT 47.877274 -2.100861 37,000 126 507 0
2021-08-04 04:58:57 GMT 47.880661 -2.107590 37,000 126 507 0
2021-08-04 04:58:55 GMT 47.883591 -2.113426 37,000 126 507 0
2021-08-04 04:58:53 GMT 47.886108 -2.118439 37,000 126 507 0
2021-08-04 04:58:50 GMT 47.896133 -2.138214 37,000 126 507 0
2021-08-04 04:58:46 GMT 47.896133 -2.138214 37,000 126 507 0
2021-08-04 04:58:43 GMT 47.900345 -2.146559 37,000 126 507 0
2021-08-04 04:58:38 GMT 47.906395 -2.158532 37,000 126 507 0
2021-08-04 04:58:36 GMT 47.909225 -2.164101 37,000 126 507 0
2021-08-04 04:58:34 GMT 47.912449 -2.170504 37,000 126 507 0
2021-08-04 04:58:32 GMT 47.915268 -2.176048 37,000 126 507 0
2021-08-04 04:58:29 GMT 47.918839 -2.182983 37,000 126 507 0
2021-08-04 04:58:25 GMT 47.925751 -2.196648 37,000 127 507 0
2021-08-04 04:58:23 GMT 47.928555 -2.202195 37,000 127 507 0
2021-08-04 04:58:19 GMT 47.933491 -2.211914 37,000 127 507 0
2021-08-04 04:58:15 GMT 47.940147 -2.225013 37,000 127 506 0
2021-08-04 04:58:11 GMT 47.946213 -2.236954 37,000 127 506 0
2021-08-04 04:58:08 GMT 47.948502 -2.241417 37,000 127 507 0
2021-08-04 04:58:05 GMT 47.954727 -2.253639 37,000 127 507 0
2021-08-04 04:58:03 GMT 47.956696 -2.257553 37,000 127 507 0
2021-08-04 04:58:01 GMT 47.963188 -2.270367 37,000 127 507 0
2021-08-04 04:57:58 GMT 47.963188 -2.270367 37,000 127 507 0
2021-08-04 04:57:56 GMT 47.966309 -2.276436 37,000 127 507 0
2021-08-04 04:57:54 GMT 47.968735 -2.281174 37,000 127 507 0
2021-08-04 04:57:51 GMT 47.973358 -2.290375 37,000 127 507 0
2021-08-04 04:57:48 GMT 47.977753 -2.299026 37,000 127 507 0
2021-08-04 04:57:45 GMT 47.982010 -2.307404 37,000 127 507 0
2021-08-04 04:57:42 GMT 47.985676 -2.314664 37,000 127 507 0
2021-08-04 04:57:37 GMT 47.992470 -2.328045 37,000 127 508 0
2021-08-04 04:57:34 GMT 47.996845 -2.336707 37,000 127 508 0
2021-08-04 04:57:32 GMT 48.000198 -2.343398 37,000 127 508 0
2021-08-04 04:57:29 GMT 48.004574 -2.352060 37,000 127 508 0
2021-08-04 04:57:27 GMT 48.006718 -2.356215 37,000 127 508 0
2021-08-04 04:57:24 GMT 48.011536 -2.365700 37,000 127 508 64
2021-08-04 04:57:22 GMT 48.014053 -2.370781 37,000 127 508 0
2021-08-04 04:57:19 GMT 48.018867 -2.380301 37,000 127 508 0
2021-08-04 04:57:16 GMT 48.022964 -2.388400 37,000 127 508 0
2021-08-04 04:57:14 GMT 48.025223 -2.392822 37,000 127 508 0
2021-08-04 04:57:12 GMT 48.028873 -2.400090 37,000 127 508 0
2021-08-04 04:57:10 GMT 48.031586 -2.405388 37,000 127 508 0
2021-08-04 04:57:08 GMT 48.034012 -2.410194 37,000 127 508 0
2021-08-04 04:57:04 GMT 48.039230 -2.420494 37,000 127 509 0
2021-08-04 04:57:02 GMT 48.042889 -2.427767 37,000 127 509 0
2021-08-04 04:56:59 GMT 48.046875 -2.435600 37,000 127 509 0
2021-08-04 04:56:57 GMT 48.048985 -2.439810 37,000 127 509 0
2021-08-04 04:56:54 GMT 48.053833 -2.449265 37,000 127 509 0
2021-08-04 04:56:52 GMT 48.056808 -2.455170 37,000 127 509 0
2021-08-04 04:56:50 GMT 48.059784 -2.461008 37,000 127 509 0
2021-08-04 04:56:48 GMT 48.068115 -2.477554 37,000 127 509 0
2021-08-04 04:56:44 GMT 48.071640 -2.484558 37,000 127 509 0
2021-08-04 04:56:42 GMT 48.071640 -2.484558 37,000 126 509 0
2021-08-04 04:56:40 GMT 48.074356 -2.489882 37,000 126 509 0
2021-08-04 04:56:37 GMT 48.078003 -2.497124 37,000 126 510 0
2021-08-04 04:56:34 GMT 48.082123 -2.505295 37,000 126 509 0
2021-08-04 04:56:32 GMT 48.084785 -2.510587 37,000 126 510 0
2021-08-04 04:56:30 GMT 48.088882 -2.518757 37,000 126 510 0
2021-08-04 04:56:28 GMT 48.090324 -2.521574 37,000 126 510 0
2021-08-04 04:56:24 GMT 48.096237 -2.533335 37,000 126 510 0
2021-08-04 04:56:22 GMT 48.099197 -2.539284 37,000 126 509 0
2021-08-04 04:56:20 GMT 48.102055 -2.544884 37,000 126 509 0
2021-08-04 04:56:18 GMT 48.106293 -2.553291 37,000 127 509 0
2021-08-04 04:56:14 GMT 48.110413 -2.561462 37,000 127 509 0
2021-08-04 04:56:11 GMT 48.114811 -2.570167 37,000 127 509 0
2021-08-04 04:56:09 GMT 48.116951 -2.574322 37,000 127 509 0
2021-08-04 04:56:06 GMT 48.121933 -2.584111 37,000 127 509 0
2021-08-04 04:56:04 GMT 48.124634 -2.589463 37,000 127 510 0
2021-08-04 04:56:02 GMT 48.128357 -2.596756 37,000 127 510 0
2021-08-04 04:56:00 GMT 48.129776 -2.599503 37,000 127 510 0
2021-08-04 04:55:57 GMT 48.134216 -2.608154 37,000 127 510 0
2021-08-04 04:55:54 GMT 48.138931 -2.617424 37,000 127 510 0
2021-08-04 04:55:52 GMT 48.142231 -2.623831 37,000 127 510 0
2021-08-04 04:55:50 GMT 48.145111 -2.629440 37,000 127 510 0
2021-08-04 04:55:47 GMT 48.149231 -2.637543 37,000 127 510 0
2021-08-04 04:55:44 GMT 48.153820 -2.646437 37,000 127 510 0
2021-08-04 04:55:41 GMT 48.158802 -2.656297 37,000 127 510 0
2021-08-04 04:55:38 GMT 48.161827 -2.662161 37,000 127 511 0
2021-08-04 04:55:36 GMT 48.164520 -2.667495 37,000 127 511 0
2021-08-04 04:55:33 GMT 48.169930 -2.678134 37,000 127 511 0
2021-08-04 04:55:30 GMT 48.173187 -2.684639 37,000 127 511 0
2021-08-04 04:55:26 GMT 48.178169 -2.694469 37,000 127 511 0
2021-08-04 04:55:22 GMT 48.185715 -2.709468 37,000 126 512 0
2021-08-04 04:55:20 GMT 48.187683 -2.713412 37,000 126 512 0
2021-08-04 04:55:17 GMT 48.192673 -2.723271 37,000 126 512 0
2021-08-04 04:55:14 GMT 48.197113 -2.732004 37,000 127 512 0
2021-08-04 04:55:11 GMT 48.200821 -2.739328 37,000 127 511 0
2021-08-04 04:55:08 GMT 48.204239 -2.746148 37,000 127 511 0
2021-08-04 04:55:06 GMT 48.207092 -2.751793 37,000 127 511 0
2021-08-04 04:55:04 GMT 48.210388 -2.758273 37,000 127 512 0
2021-08-04 04:55:02 GMT 48.213776 -2.765033 37,000 127 512 0
2021-08-04 04:55:00 GMT 48.220486 -2.778312 37,000 127 512 0
2021-08-04 04:54:57 GMT 48.220486 -2.778312 37,000 127 512 0
2021-08-04 04:54:53 GMT 48.226070 -2.789371 37,000 127 512 0
2021-08-04 04:54:50 GMT 48.230633 -2.798406 37,000 126 514 0
2021-08-04 04:54:47 GMT 48.234924 -2.806936 37,000 126 513 0
2021-08-04 04:54:44 GMT 48.239044 -2.815106 37,000 126 513 0
2021-08-04 04:54:42 GMT 48.241898 -2.820812 37,000 126 513 0
2021-08-04 04:54:40 GMT 48.245483 -2.827895 37,000 126 513 0
2021-08-04 04:54:37 GMT 48.249023 -2.835036 37,000 126 513 0
2021-08-04 04:54:33 GMT 48.254425 -2.845811 37,000 126 514 0
2021-08-04 04:54:30 GMT 48.259121 -2.855217 37,000 126 514 0
2021-08-04 04:54:27 GMT 48.263443 -2.863770 37,000 126 514 0
2021-08-04 04:54:24 GMT 48.267967 -2.872853 37,000 126 515 0
2021-08-04 04:54:22 GMT 48.270992 -2.878852 37,000 126 515 0
2021-08-04 04:54:20 GMT 48.277817 -2.892503 37,000 126 515 0
2021-08-04 04:54:17 GMT 48.277817 -2.892503 37,000 126 515 0
2021-08-04 04:54:14 GMT 48.286102 -2.909053 37,000 126 515 0
2021-08-04 04:54:11 GMT 48.286102 -2.909053 37,000 126 515 0
2021-08-04 04:54:09 GMT 48.289124 -2.915039 37,000 126 515 0
2021-08-04 04:54:06 GMT 48.292557 -2.921870 37,000 126 515 0
2021-08-04 04:54:04 GMT 48.296829 -2.930386 37,000 126 515 0
2021-08-04 04:54:01 GMT 48.299973 -2.936730 37,000 126 516 0
2021-08-04 04:53:59 GMT 48.302673 -2.942153 37,000 126 516 0
2021-08-04 04:53:57 GMT 48.306561 -2.949829 37,000 126 515 0
2021-08-04 04:53:54 GMT 48.310822 -2.958421 37,000 126 515 64
2021-08-04 04:53:52 GMT 48.313683 -2.964068 37,000 126 515 0
2021-08-04 04:53:50 GMT 48.316708 -2.970067 37,000 126 515 0
2021-08-04 04:53:47 GMT 48.320847 -2.978351 37,000 126 516 0
2021-08-04 04:53:43 GMT 48.325882 -2.988352 37,000 126 516 0
2021-08-04 04:53:40 GMT 48.330719 -2.998111 37,000 126 516 0
2021-08-04 04:53:38 GMT 48.333466 -3.003532 37,000 126 516 0
2021-08-04 04:53:36 GMT 48.335606 -3.007796 37,000 126 516 0
2021-08-04 04:53:32 GMT 48.342499 -3.021522 37,000 126 516 0
2021-08-04 04:53:29 GMT 48.346500 -3.029552 37,000 126 517 0
2021-08-04 04:53:26 GMT 48.350784 -3.038142 37,000 126 516 0
2021-08-04 04:53:23 GMT 48.355087 -3.046734 37,000 126 516 0
2021-08-04 04:53:20 GMT 48.359207 -3.055067 37,000 126 516 0
2021-08-04 04:53:16 GMT 48.364655 -3.066031 37,000 126 517 0
2021-08-04 04:53:13 GMT 48.370056 -3.076895 37,000 126 517 0
2021-08-04 04:53:10 GMT 48.373352 -3.083496 37,000 126 517 0
2021-08-04 04:53:08 GMT 48.377060 -3.091032 37,000 126 517 0
2021-08-04 04:53:06 GMT 48.379181 -3.095326 37,000 126 516 0
2021-08-04 04:53:03 GMT 48.382599 -3.102229 37,000 126 517 0
2021-08-04 04:53:00 GMT 48.388023 -3.113178 37,000 126 516 0
2021-08-04 04:52:56 GMT 48.393723 -3.124695 37,000 126 518 0
2021-08-04 04:52:52 GMT 48.400131 -3.137653 37,000 126 517 0
2021-08-04 04:52:49 GMT 48.403854 -3.145126 37,000 126 517 0
2021-08-04 04:52:46 GMT 48.406834 -3.151197 37,000 126 517 0
2021-08-04 04:52:44 GMT 48.410233 -3.158136 37,000 126 518 0
2021-08-04 04:52:41 GMT 48.414932 -3.167604 37,000 126 518 0
2021-08-04 04:52:39 GMT 48.417400 -3.172519 37,000 126 518 0
2021-08-04 04:52:36 GMT 48.425629 -3.189275 37,000 126 518 0
2021-08-04 04:52:33 GMT 48.425629 -3.189275 37,000 126 518 0
2021-08-04 04:52:31 GMT 48.428650 -3.195331 37,000 126 518 0
2021-08-04 04:52:29 GMT 48.431786 -3.201647 37,000 126 518 0
2021-08-04 04:52:26 GMT 48.436340 -3.210895 37,000 126 518 0
2021-08-04 04:52:23 GMT 48.439774 -3.217797 37,000 126 518 0
2021-08-04 04:52:21 GMT 48.443619 -3.225614 37,000 126 518 0
2021-08-04 04:52:19 GMT 48.447056 -3.232510 37,000 126 519 0
2021-08-04 04:52:16 GMT 48.451199 -3.240895 37,000 126 519 0
2021-08-04 04:52:13 GMT 48.454193 -3.247023 37,000 126 519 0
2021-08-04 04:52:11 GMT 48.459869 -3.258573 37,000 126 519 0
2021-08-04 04:52:06 GMT 48.468746 -3.276528 37,000 126 519 0
2021-08-04 04:52:03 GMT 48.468746 -3.276528 37,000 126 519 0
2021-08-04 04:51:59 GMT 48.474609 -3.288363 37,000 126 519 0
2021-08-04 04:51:56 GMT 48.479187 -3.297659 37,000 126 519 64
2021-08-04 04:51:53 GMT 48.482620 -3.304572 37,000 126 519 0
2021-08-04 04:51:51 GMT 48.486202 -3.311800 37,000 126 519 0
2021-08-04 04:51:49 GMT 48.489349 -3.318223 37,000 126 519 0
2021-08-04 04:51:46 GMT 48.494339 -3.328364 37,000 126 519 0
2021-08-04 04:51:43 GMT 48.497177 -3.334139 37,000 126 519 0
2021-08-04 04:51:40 GMT 48.502357 -3.344542 37,000 126 519 0
2021-08-04 04:51:36 GMT 48.507339 -3.354733 37,000 126 519 0
2021-08-04 04:51:33 GMT 48.511917 -3.364000 37,000 126 519 0
2021-08-04 04:51:30 GMT 48.514938 -3.370127 37,000 126 519 0
2021-08-04 04:51:27 GMT 48.520374 -3.381115 37,000 126 520 0
2021-08-04 04:51:25 GMT 48.522514 -3.385451 37,000 126 520 0
2021-08-04 04:51:23 GMT 48.525681 -3.391884 37,000 126 520 0
2021-08-04 04:51:20 GMT 48.529823 -3.400269 37,000 126 520 0
2021-08-04 04:51:17 GMT 48.534805 -3.410460 37,000 126 520 0
2021-08-04 04:51:15 GMT 48.538239 -3.417382 37,000 126 520 0
2021-08-04 04:51:13 GMT 48.541718 -3.424354 37,000 126 520 0
2021-08-04 04:51:10 GMT 48.545139 -3.431348 37,000 126 520 0
2021-08-04 04:51:07 GMT 48.549282 -3.439805 37,000 126 520 0
2021-08-04 04:51:05 GMT 48.554718 -3.450834 37,000 126 520 0
2021-08-04 04:51:03 GMT 48.554718 -3.450834 37,000 126 520 0
2021-08-04 04:51:00 GMT 48.558289 -3.458088 37,000 126 520 0
2021-08-04 04:50:57 GMT 48.563004 -3.467736 37,000 126 520 0
2021-08-04 04:50:55 GMT 48.567169 -3.476116 37,000 126 520 0
2021-08-04 04:50:52 GMT 48.570000 -3.481943 37,000 126 520 0
2021-08-04 04:50:50 GMT 48.572983 -3.488089 37,000 126 520 0
2021-08-04 04:50:47 GMT 48.577866 -3.497989 37,000 126 520 0
2021-08-04 04:50:45 GMT 48.580147 -3.502687 37,000 126 520 0
2021-08-04 04:50:42 GMT 48.584976 -3.512597 37,000 126 520 0
2021-08-04 04:50:39 GMT 48.589272 -3.521335 37,000 126 520 0
2021-08-04 04:50:36 GMT 48.594131 -3.531259 37,000 126 520 0
2021-08-04 04:50:33 GMT 48.597977 -3.539147 37,000 126 520 0
2021-08-04 04:50:31 GMT 48.600952 -3.545274 37,000 126 520 0
2021-08-04 04:50:29 GMT 48.603241 -3.549922 37,000 126 520 0
2021-08-04 04:50:26 GMT 48.607361 -3.558373 37,000 126 520 0
2021-08-04 04:50:23 GMT 48.611942 -3.567738 37,000 126 520 0
2021-08-04 04:50:20 GMT 48.615524 -3.575038 37,000 126 521 0
2021-08-04 04:50:17 GMT 48.621067 -3.586386 37,000 126 521 0
2021-08-04 04:50:13 GMT 48.626221 -3.596966 37,000 126 521 0
2021-08-04 04:50:10 GMT 48.635056 -3.615065 37,000 126 521 0
2021-08-04 04:50:07 GMT 48.635056 -3.615065 37,000 126 520 0
2021-08-04 04:50:05 GMT 48.637173 -3.619489 37,000 126 521 0
2021-08-04 04:50:03 GMT 48.640713 -3.626789 37,000 126 520 0
2021-08-04 04:49:59 GMT 48.644855 -3.635246 37,000 126 521 0
2021-08-04 04:49:57 GMT 48.649277 -3.644353 37,000 126 521 0
2021-08-04 04:49:55 GMT 48.652256 -3.650497 37,000 126 521 0
2021-08-04 04:49:52 GMT 48.655563 -3.657250 37,000 126 521 0
2021-08-04 04:49:49 GMT 48.660400 -3.667193 37,000 126 521 0
2021-08-04 04:49:46 GMT 48.665665 -3.678035 37,000 126 521 0
2021-08-04 04:49:43 GMT 48.669525 -3.685913 37,000 126 521 0
2021-08-04 04:49:39 GMT 48.675385 -3.697956 37,000 126 521 0
2021-08-04 04:49:37 GMT 48.677353 -3.702040 37,000 126 521 0
2021-08-04 04:49:35 GMT 48.685089 -3.717816 37,000 126 521 0
2021-08-04 04:49:32 GMT 48.685089 -3.717816 37,000 126 521 0
2021-08-04 04:49:29 GMT 48.693035 -3.734267 37,000 126 520 0
2021-08-04 04:49:26 GMT 48.693035 -3.734267 37,000 126 521 0
2021-08-04 04:49:23 GMT 48.696899 -3.742146 37,000 126 521 0
2021-08-04 04:49:20 GMT 48.701881 -3.752482 37,000 126 521 0
2021-08-04 04:49:18 GMT 48.704132 -3.757113 37,000 126 521 0
2021-08-04 04:49:15 GMT 48.708847 -3.766832 37,000 126 521 0
2021-08-04 04:49:12 GMT 48.712402 -3.774165 37,000 126 521 0
2021-08-04 04:49:09 GMT 48.717381 -3.784429 37,000 126 521 0
2021-08-04 04:49:07 GMT 48.720200 -3.790283 37,000 126 521 0
2021-08-04 04:49:05 GMT 48.722763 -3.795565 37,000 126 520 0
2021-08-04 04:49:02 GMT 48.727066 -3.804378 37,000 126 520 0
2021-08-04 04:48:59 GMT 48.731766 -3.814063 37,000 126 521 0
2021-08-04 04:48:56 GMT 48.735443 -3.821693 37,000 126 521 0
2021-08-04 04:48:54 GMT 48.737457 -3.825848 37,000 126 521 0
2021-08-04 04:48:52 GMT 48.741402 -3.834012 37,000 126 521 0
2021-08-04 04:48:48 GMT 48.747967 -3.847528 37,000 126 521 0
2021-08-04 04:48:46 GMT 48.749222 -3.850215 37,000 126 521 0
2021-08-04 04:48:44 GMT 48.752762 -3.857574 37,000 126 521 0
2021-08-04 04:48:42 GMT 48.754906 -3.861983 37,000 126 521 0
2021-08-04 04:48:39 GMT 48.763550 -3.879864 37,000 126 521 0
2021-08-04 04:48:36 GMT 48.763550 -3.879864 37,000 126 521 0
2021-08-04 04:48:34 GMT 48.766113 -3.885216 37,000 126 521 0
2021-08-04 04:48:32 GMT 48.770081 -3.893425 37,000 126 521 0
2021-08-04 04:48:29 GMT 48.774223 -3.901953 37,000 126 521 0
2021-08-04 04:48:26 GMT 48.778179 -3.910193 37,000 126 521 0
2021-08-04 04:48:24 GMT 48.781158 -3.916337 37,000 126 521 0
2021-08-04 04:48:22 GMT 48.783279 -3.920781 37,000 126 521 0
2021-08-04 04:48:19 GMT 48.787537 -3.929564 37,000 126 521 0
2021-08-04 04:48:17 GMT 48.790237 -3.935202 37,000 126 521 0
2021-08-04 04:48:15 GMT 48.793915 -3.942791 37,000 126 521 0
2021-08-04 04:48:12 GMT 48.797607 -3.950500 37,000 126 521 0
2021-08-04 04:48:10 GMT 48.800858 -3.957261 37,000 126 521 0
2021-08-04 04:48:07 GMT 48.805969 -3.967871 37,000 126 521 0
2021-08-04 04:48:05 GMT 48.808205 -3.972570 37,000 126 521 0
2021-08-04 04:48:02 GMT 48.811745 -3.979942 37,000 126 521 0
2021-08-04 04:47:59 GMT 48.822914 -4.003143 37,000 126 520 0
2021-08-04 04:47:55 GMT 48.822914 -4.003143 37,000 126 520 0
2021-08-04 04:47:52 GMT 48.826492 -4.010573 37,000 126 520 0
2021-08-04 04:47:49 GMT 48.835114 -4.028513 37,000 126 521 0
2021-08-04 04:47:46 GMT 48.835114 -4.028513 37,000 126 521 0
2021-08-04 04:47:42 GMT 48.840748 -4.040294 37,000 126 521 0
2021-08-04 04:47:40 GMT 48.843475 -4.045856 37,000 126 521 0
2021-08-04 04:47:38 GMT 48.846405 -4.052054 37,000 126 521 0
2021-08-04 04:47:36 GMT 48.849266 -4.057930 37,000 126 521 0
2021-08-04 04:47:32 GMT 48.855038 -4.070073 37,000 126 521 0
2021-08-04 04:47:29 GMT 48.859322 -4.078891 37,000 126 521 0
2021-08-04 04:47:26 GMT 48.863571 -4.087689 37,000 126 521 0
2021-08-04 04:47:24 GMT 48.865837 -4.092407 37,000 126 521 0
2021-08-04 04:47:21 GMT 48.869934 -4.100936 37,000 126 520 0
2021-08-04 04:47:19 GMT 48.872910 -4.107126 37,000 126 520 0
2021-08-04 04:47:17 GMT 48.876034 -4.113657 37,000 126 520 0
2021-08-04 04:47:15 GMT 48.878128 -4.118066 37,000 126 520 0
2021-08-04 04:47:12 GMT 48.882923 -4.128113 37,000 125 521 0
2021-08-04 04:47:10 GMT 48.885902 -4.134256 37,000 125 521 0
2021-08-04 04:47:08 GMT 48.892410 -4.147832 37,000 125 521 0
2021-08-04 04:47:05 GMT 48.892410 -4.147832 37,000 125 521 0
2021-08-04 04:47:02 GMT 48.897308 -4.158184 37,000 125 521 0
2021-08-04 04:47:00 GMT 48.900146 -4.164107 37,000 125 520 0
2021-08-04 04:46:58 GMT 48.903534 -4.171213 37,000 125 520 0
2021-08-04 04:46:55 GMT 48.906921 -4.178256 37,000 125 520 0
2021-08-04 04:46:52 GMT 48.914253 -4.193669 37,000 125 520 0
2021-08-04 04:46:50 GMT 48.914253 -4.193669 37,000 125 520 0
2021-08-04 04:46:48 GMT 48.917358 -4.200158 37,000 125 520 0
2021-08-04 04:46:46 GMT 48.920162 -4.206101 37,000 125 520 0
2021-08-04 04:46:44 GMT 48.922256 -4.210510 37,000 125 520 0
2021-08-04 04:46:41 GMT 48.927933 -4.222342 37,000 125 520 0
2021-08-04 04:46:38 GMT 48.931870 -4.230652 37,000 125 521 0
2021-08-04 04:46:36 GMT 48.934689 -4.236531 37,000 125 521 0
2021-08-04 04:46:34 GMT 48.936085 -4.239494 37,000 125 521 0
2021-08-04 04:46:32 GMT 48.942463 -4.252793 37,000 125 521 0
2021-08-04 04:46:30 GMT 48.942463 -4.252793 37,000 125 521 0
2021-08-04 04:46:26 GMT 48.948212 -4.264949 37,000 125 520 0
2021-08-04 04:46:24 GMT 48.950329 -4.269345 37,000 125 520 0
2021-08-04 04:46:22 GMT 48.954147 -4.277368 37,000 125 520 0
2021-08-04 04:46:19 GMT 48.958244 -4.285897 37,000 125 520 0
2021-08-04 04:46:17 GMT 48.960480 -4.290667 37,000 125 520 0
2021-08-04 04:46:15 GMT 48.964016 -4.298039 37,000 125 520 0
2021-08-04 04:46:12 GMT 48.968113 -4.306641 37,000 125 520 0
2021-08-04 04:46:09 GMT 48.972885 -4.316711 37,000 125 520 0
2021-08-04 04:46:06 GMT 48.975449 -4.322064 37,000 125 520 0
2021-08-04 04:46:04 GMT 48.978104 -4.327698 37,000 125 521 0
2021-08-04 04:46:02 GMT 48.982357 -4.336564 37,000 125 521 0
2021-08-04 04:45:57 GMT 48.989502 -4.351713 37,000 125 521 0
2021-08-04 04:45:54 GMT 48.991901 -4.356730 37,000 125 521 0
2021-08-04 04:45:52 GMT 48.996277 -4.365981 37,000 125 521 0
2021-08-04 04:45:49 GMT 49.000374 -4.374582 37,000 125 521 0
2021-08-04 04:45:46 GMT 49.005157 -4.384672 37,000 125 521 0
2021-08-04 04:45:44 GMT 49.007263 -4.389110 37,000 125 521 0
2021-08-04 04:45:41 GMT 49.010605 -4.396221 37,000 125 521 0
2021-08-04 04:45:39 GMT 49.014130 -4.403616 37,000 125 521 0
2021-08-04 04:45:37 GMT 49.017506 -4.410794 37,000 125 520 0
2021-08-04 04:45:34 GMT 49.022301 -4.420913 37,000 125 520 0
2021-08-04 04:45:31 GMT 49.025116 -4.426786 37,000 125 520 0
2021-08-04 04:45:29 GMT 49.028046 -4.433054 37,000 125 520 0
2021-08-04 04:45:26 GMT 49.032120 -4.441646 37,000 125 520 0
2021-08-04 04:45:24 GMT 49.035381 -4.448523 37,000 125 520 0
2021-08-04 04:45:21 GMT 49.038593 -4.455317 37,000 125 520 0
2021-08-04 04:45:19 GMT 49.041386 -4.461317 37,000 125 520 0
2021-08-04 04:45:17 GMT 49.045624 -4.470238 37,000 125 520 0
2021-08-04 04:45:14 GMT 49.049973 -4.479394 37,000 125 520 0
2021-08-04 04:45:11 GMT 49.052948 -4.485661 37,000 125 520 0
2021-08-04 04:45:09 GMT 49.055584 -4.491312 37,000 125 520 0
2021-08-04 04:45:07 GMT 49.059540 -4.499606 37,000 125 520 0
2021-08-04 04:45:04 GMT 49.063339 -4.507705 37,000 125 521 0
2021-08-04 04:45:01 GMT 49.067276 -4.516015 37,000 125 520 0
2021-08-04 04:44:58 GMT 49.071899 -4.525804 37,000 125 520 0
2021-08-04 04:44:55 GMT 49.075554 -4.533523 37,000 125 520 0
2021-08-04 04:44:53 GMT 49.078949 -4.540663 37,000 125 520 0
2021-08-04 04:44:50 GMT 49.081745 -4.546605 37,000 125 520 0
2021-08-04 04:44:47 GMT 49.087372 -4.558551 37,000 125 520 0
2021-08-04 04:44:45 GMT 49.089615 -4.563270 37,000 125 520 0
2021-08-04 04:44:43 GMT 49.093525 -4.571614 37,000 125 520 0
2021-08-04 04:44:41 GMT 49.095795 -4.576369 37,000 125 520 0
2021-08-04 04:44:39 GMT 49.097622 -4.580215 37,000 125 520 0
2021-08-04 04:44:37 GMT 49.100967 -4.587355 37,000 125 520 0
2021-08-04 04:44:35 GMT 49.104046 -4.593948 37,000 125 520 0
2021-08-04 04:44:33 GMT 49.107395 -4.601031 37,000 125 520 0
2021-08-04 04:44:31 GMT 49.114014 -4.615032 37,000 125 520 0
2021-08-04 04:44:28 GMT 49.114014 -4.615032 37,000 125 520 0
2021-08-04 04:44:25 GMT 49.117905 -4.623413 37,000 125 520 0
2021-08-04 04:44:21 GMT 49.123535 -4.635315 37,000 125 520 0
2021-08-04 04:44:18 GMT 49.126484 -4.641579 37,000 125 520 0
2021-08-04 04:44:16 GMT 49.130535 -4.650180 37,000 125 520 0
2021-08-04 04:44:13 GMT 49.135979 -4.661817 37,000 125 520 0
2021-08-04 04:44:10 GMT 49.138912 -4.668033 37,000 125 520 0
2021-08-04 04:44:07 GMT 49.142578 -4.675809 37,000 125 521 0
2021-08-04 04:44:05 GMT 49.145943 -4.682922 37,000 125 520 0
2021-08-04 04:44:02 GMT 49.149246 -4.690078 37,000 125 520 0
2021-08-04 04:44:00 GMT 49.153198 -4.698486 37,000 125 520 0
2021-08-04 04:43:57 GMT 49.160141 -4.713352 37,000 125 520 0
2021-08-04 04:43:55 GMT 49.160141 -4.713352 37,000 125 520 0
2021-08-04 04:43:53 GMT 49.162079 -4.717572 37,000 125 520 0
2021-08-04 04:43:51 GMT 49.166004 -4.725928 37,000 125 520 0
2021-08-04 04:43:49 GMT 49.168240 -4.730698 37,000 125 519 0
2021-08-04 04:43:45 GMT 49.173920 -4.742913 37,000 125 519 0
2021-08-04 04:43:41 GMT 49.179474 -4.754897 37,000 125 519 0
2021-08-04 04:43:39 GMT 49.181580 -4.759334 37,000 125 519 0
2021-08-04 04:43:36 GMT 49.186707 -4.770390 37,000 125 519 0
2021-08-04 04:43:34 GMT 49.189087 -4.775461 37,000 125 519 0
2021-08-04 04:43:31 GMT 49.193844 -4.785630 37,000 125 519 0
2021-08-04 04:43:29 GMT 49.195892 -4.790039 37,000 125 519 0
2021-08-04 04:43:26 GMT 49.199524 -4.797845 37,000 125 519 0
2021-08-04 04:43:24 GMT 49.202457 -4.804133 37,000 125 519 0
2021-08-04 04:43:21 GMT 49.207577 -4.815120 37,000 125 519 0
2021-08-04 04:43:19 GMT 49.209824 -4.819899 37,000 125 519 0
2021-08-04 04:43:17 GMT 49.212185 -4.825022 37,000 125 519 0
2021-08-04 04:43:14 GMT 49.216469 -4.834273 37,000 125 519 0
2021-08-04 04:43:11 GMT 49.221176 -4.844478 37,000 125 520 0
2021-08-04 04:43:09 GMT 49.223404 -4.849235 37,000 125 520 0
2021-08-04 04:43:07 GMT 49.226196 -4.855234 37,000 125 520 0
2021-08-04 04:43:05 GMT 49.232250 -4.868389 37,000 125 520 0
2021-08-04 04:43:01 GMT 49.235741 -4.875906 37,000 125 520 -64
2021-08-04 04:42:58 GMT 49.240025 -4.885158 37,000 125 520 0
2021-08-04 04:42:55 GMT 49.243610 -4.892964 37,000 125 520 0
2021-08-04 04:42:51 GMT 49.249008 -4.904673 37,000 125 520 0
2021-08-04 04:42:49 GMT 49.251385 -4.909732 37,000 125 520 0
2021-08-04 04:42:46 GMT 49.256504 -4.920863 37,000 125 520 0
2021-08-04 04:42:44 GMT 49.258457 -4.925055 37,000 125 520 0
2021-08-04 04:42:41 GMT 49.263020 -4.934957 37,000 125 520 0
2021-08-04 04:42:39 GMT 49.265259 -4.939763 37,000 125 520 0
2021-08-04 04:42:36 GMT 49.270515 -4.951148 37,000 125 520 0
2021-08-04 04:42:34 GMT 49.272285 -4.955051 37,000 125 520 0
2021-08-04 04:42:30 GMT 49.279083 -4.969796 37,000 125 520 0
2021-08-04 04:42:27 GMT 49.282246 -4.976734 37,000 125 520 0
2021-08-04 04:42:25 GMT 49.285126 -4.983004 37,000 125 520 0
2021-08-04 04:42:21 GMT 49.291046 -4.995960 37,000 125 520 0
2021-08-04 04:42:19 GMT 49.292862 -4.999906 37,000 125 520 0
2021-08-04 04:42:17 GMT 49.296021 -5.006808 37,000 125 520 0
2021-08-04 04:42:15 GMT 49.298634 -5.012512 37,000 125 520 0
2021-08-04 04:42:11 GMT 49.304443 -5.025189 37,000 125 521 0
2021-08-04 04:42:07 GMT 49.309387 -5.036034 37,000 125 521 0
2021-08-04 04:42:05 GMT 49.312973 -5.043809 37,000 124 520 0
2021-08-04 04:42:03 GMT 49.314926 -5.048073 37,000 124 520 0
2021-08-04 04:42:00 GMT 49.319321 -5.057725 37,000 124 520 0
2021-08-04 04:41:57 GMT 49.326233 -5.072796 37,000 125 521 0
2021-08-04 04:41:55 GMT 49.326233 -5.072796 37,000 125 521 0
2021-08-04 04:41:53 GMT 49.328568 -5.077924 37,000 125 521 0
2021-08-04 04:41:50 GMT 49.333130 -5.087826 37,000 125 520 0
2021-08-04 04:41:47 GMT 49.336990 -5.096248 37,000 125 520 0
2021-08-04 04:41:45 GMT 49.340576 -5.104089 37,000 125 521 0
2021-08-04 04:41:43 GMT 49.343216 -5.109840 37,000 125 521 0
2021-08-04 04:41:40 GMT 49.347374 -5.118834 37,000 125 521 0
2021-08-04 04:41:37 GMT 49.357407 -5.140475 37,000 125 521 0
2021-08-04 04:41:33 GMT 49.357407 -5.140475 37,000 125 521 0
2021-08-04 04:41:29 GMT 49.362457 -5.151215 37,000 126 521 0
2021-08-04 04:41:27 GMT 49.365017 -5.156563 37,000 126 521 0
2021-08-04 04:41:25 GMT 49.368275 -5.163430 37,000 126 521 0
2021-08-04 04:41:23 GMT 49.371117 -5.169356 37,000 126 521 0
2021-08-04 04:41:20 GMT 49.374374 -5.176223 37,000 126 521 0
2021-08-04 04:41:17 GMT 49.379196 -5.186322 37,000 126 521 0
2021-08-04 04:41:15 GMT 49.382614 -5.193498 37,000 126 521 0
2021-08-04 04:41:13 GMT 49.385330 -5.199139 37,000 126 521 0
2021-08-04 04:41:10 GMT 49.388992 -5.206869 37,000 126 521 0
2021-08-04 04:41:07 GMT 49.393414 -5.216121 37,000 126 521 0
2021-08-04 04:41:05 GMT 49.396671 -5.222987 37,000 126 522 0
2021-08-04 04:41:02 GMT 49.400070 -5.230196 37,000 126 522 0
2021-08-04 04:40:59 GMT 49.405060 -5.240619 37,000 126 522 0
2021-08-04 04:40:57 GMT 49.408035 -5.246887 37,000 126 521 0
2021-08-04 04:40:54 GMT 49.411148 -5.253437 37,000 126 521 0
2021-08-04 04:40:50 GMT 49.417248 -5.266282 37,000 125 522 0
2021-08-04 04:40:47 GMT 49.425476 -5.283649 37,000 126 522 0
2021-08-04 04:40:45 GMT 49.425476 -5.283649 37,000 126 523 0
2021-08-04 04:40:43 GMT 49.431747 -5.296783 37,000 126 522 0
2021-08-04 04:40:40 GMT 49.431747 -5.296783 37,000 126 522 0
2021-08-04 04:40:37 GMT 49.435871 -5.305506 37,000 126 522 0
2021-08-04 04:40:35 GMT 49.439686 -5.313523 37,000 126 523 0
2021-08-04 04:40:32 GMT 49.443100 -5.320708 37,000 126 523 0
2021-08-04 04:40:30 GMT 49.445663 -5.326129 37,000 126 523 0
2021-08-04 04:40:27 GMT 49.450104 -5.335380 37,000 126 523 0
2021-08-04 04:40:25 GMT 49.453629 -5.342897 37,000 126 523 0
2021-08-04 04:40:23 GMT 49.457611 -5.351233 37,000 126 523 0
2021-08-04 04:40:20 GMT 49.460312 -5.356919 37,000 126 523 0
2021-08-04 04:40:17 GMT 49.464478 -5.365665 37,000 126 523 0
2021-08-04 04:40:15 GMT 49.468178 -5.373428 37,000 126 523 0
2021-08-04 04:40:13 GMT 49.470879 -5.379144 37,000 126 523 0
2021-08-04 04:40:10 GMT 49.474834 -5.387532 37,000 126 523 0
2021-08-04 04:40:07 GMT 49.478851 -5.395877 37,000 126 523 0
2021-08-04 04:40:05 GMT 49.482651 -5.403972 37,000 126 523 0
2021-08-04 04:40:00 GMT 49.489357 -5.418116 37,000 126 523 0
2021-08-04 04:39:58 GMT 49.492199 -5.424054 37,000 126 523 0
2021-08-04 04:39:56 GMT 49.494900 -5.429770 37,000 126 523 0
2021-08-04 04:39:54 GMT 49.497025 -5.434257 37,000 125 524 0
2021-08-04 04:39:50 GMT 49.503571 -5.448062 37,000 125 524 0
2021-08-04 04:39:48 GMT 49.509514 -5.460725 37,000 125 524 0
2021-08-04 04:39:46 GMT 49.509514 -5.460725 37,000 125 524 0
2021-08-04 04:39:44 GMT 49.511536 -5.464903 37,000 125 523 0
2021-08-04 04:39:40 GMT 49.517475 -5.477501 37,000 125 523 0
2021-08-04 04:39:36 GMT 49.523296 -5.489898 37,000 125 523 64
2021-08-04 04:39:34 GMT 49.525543 -5.494682 37,000 125 523 64
2021-08-04 04:39:30 GMT 49.532047 -5.508530 37,000 125 523 0
2021-08-04 04:39:27 GMT 49.535583 -5.516102 37,000 125 523 0
2021-08-04 04:39:24 GMT 49.538956 -5.523376 37,000 125 523 0
2021-08-04 04:39:22 GMT 49.542664 -5.531183 37,000 125 523 0
2021-08-04 04:39:19 GMT 49.547836 -5.542386 37,000 125 524 0
2021-08-04 04:39:16 GMT 49.554474 -5.557058 37,000 124 524 0
2021-08-04 04:39:14 GMT 49.554474 -5.557058 37,000 124 524 0
2021-08-04 04:39:11 GMT 49.558182 -5.565298 37,000 124 524 0
2021-08-04 04:39:08 GMT 49.561844 -5.573610 37,000 123 524 0
2021-08-04 04:39:06 GMT 49.564545 -5.579826 37,000 123 524 0
2021-08-04 04:39:04 GMT 49.567196 -5.586028 37,000 123 524 0
2021-08-04 04:39:02 GMT 49.570267 -5.593229 37,000 122 524 0
2021-08-04 04:38:59 GMT 49.574707 -5.603822 37,000 121 524 0
2021-08-04 04:38:56 GMT 49.577202 -5.609782 37,000 122 524 0
2021-08-04 04:38:53 GMT 49.580925 -5.618913 37,000 121 524 0
2021-08-04 04:38:50 GMT 49.586281 -5.632275 37,000 121 524 0
2021-08-04 04:38:47 GMT 49.590134 -5.642130 37,000 119 524 0
2021-08-04 04:38:44 GMT 49.592609 -5.648532 37,000 120 524 0
2021-08-04 04:38:42 GMT 49.595963 -5.657217 37,000 120 525 0
2021-08-04 04:38:38 GMT 49.599083 -5.665605 37,000 119 524 0
2021-08-04 04:38:36 GMT 49.602219 -5.674005 37,000 119 524 0
2021-08-04 04:38:34 GMT 49.604855 -5.681119 37,000 119 524 0
2021-08-04 04:38:32 GMT 49.607693 -5.688914 37,000 118 524 0
2021-08-04 04:38:29 GMT 49.610626 -5.697079 37,000 118 524 0
2021-08-04 04:38:27 GMT 49.613514 -5.705319 37,000 118 524 0
2021-08-04 04:38:24 GMT 49.617050 -5.715489 37,000 117 524 0
2021-08-04 04:38:21 GMT 49.624454 -5.737239 37,000 117 524 0
2021-08-04 04:38:17 GMT 49.624454 -5.737239 37,000 116 523 0
2021-08-04 04:38:14 GMT 49.627617 -5.746889 37,000 116 524 0
2021-08-04 04:38:12 GMT 49.630226 -5.754906 37,000 116 524 0
2021-08-04 04:38:08 GMT 49.634045 -5.766931 37,000 115 523 0
2021-08-04 04:38:06 GMT 49.636230 -5.774038 37,000 115 524 0
2021-08-04 04:38:04 GMT 49.638840 -5.782423 37,000 114 524 0
2021-08-04 04:38:01 GMT 49.641174 -5.790229 37,000 114 523 0
2021-08-04 04:37:58 GMT 49.644192 -5.800336 37,000 114 524 0
2021-08-04 04:37:54 GMT 49.648590 -5.815309 37,000 114 524 0
2021-08-04 04:37:52 GMT 49.651337 -5.824416 37,000 114 524 0
2021-08-04 04:37:49 GMT 49.653732 -5.832627 37,000 114 524 0
2021-08-04 04:37:46 GMT 49.656555 -5.842125 37,000 114 525 0
2021-08-04 04:37:43 GMT 49.659180 -5.850888 37,000 114 525 0
2021-08-04 04:37:39 GMT 49.663696 -5.866180 37,000 114 525 0
2021-08-04 04:37:36 GMT 49.666534 -5.875734 37,000 114 525 0
2021-08-04 04:37:33 GMT 49.669235 -5.884913 37,000 114 525 0
2021-08-04 04:37:29 GMT 49.674774 -5.903634 37,000 114 526 0
2021-08-04 04:37:26 GMT 49.677292 -5.912162 37,000 114 526 0
2021-08-04 04:37:23 GMT 49.679478 -5.919627 37,000 114 526 0
2021-08-04 04:37:19 GMT 49.683994 -5.934918 37,000 114 526 0
2021-08-04 04:37:17 GMT 49.685528 -5.940040 37,000 114 526 0
2021-08-04 04:37:14 GMT 49.688835 -5.951324 37,000 114 526 0
2021-08-04 04:37:11 GMT 49.691536 -5.960528 37,000 114 526 0
2021-08-04 04:37:08 GMT 49.694653 -5.971069 37,000 114 526 0
2021-08-04 04:37:06 GMT 49.697166 -5.979606 37,000 114 527 0
2021-08-04 04:37:04 GMT 49.698898 -5.985453 37,000 114 526 0
2021-08-04 04:37:01 GMT 49.702290 -5.997051 37,000 114 526 0
2021-08-04 04:36:59 GMT 49.703888 -6.002510 37,000 114 526 0
2021-08-04 04:36:57 GMT 49.706013 -6.009670 37,000 114 526 0
2021-08-04 04:36:54 GMT 49.708714 -6.018875 37,000 114 526 0
2021-08-04 04:36:51 GMT 49.711830 -6.029490 37,000 114 526 0
2021-08-04 04:36:48 GMT 49.716614 -6.045878 37,000 114 527 0
2021-08-04 04:36:44 GMT 49.721375 -6.062003 37,000 114 527 0
2021-08-04 04:36:42 GMT 49.721375 -6.062003 37,000 114 527 0
2021-08-04 04:36:39 GMT 49.724167 -6.071536 37,000 114 527 0
2021-08-04 04:36:37 GMT 49.725769 -6.077030 37,000 114 527 0
2021-08-04 04:36:34 GMT 49.728962 -6.087985 37,000 114 527 0
2021-08-04 04:36:31 GMT 49.732269 -6.099291 37,000 114 527 0
2021-08-04 04:36:27 GMT 49.735901 -6.111590 37,000 114 527 0
2021-08-04 04:36:24 GMT 49.738998 -6.122276 37,000 114 527 0
2021-08-04 04:36:21 GMT 49.741810 -6.131856 37,000 114 528 0
2021-08-04 04:36:18 GMT 49.744324 -6.140392 37,000 114 528 0
2021-08-04 04:36:16 GMT 49.746605 -6.148335 37,000 114 528 0
2021-08-04 04:36:14 GMT 49.749027 -6.156575 37,000 114 528 0
2021-08-04 04:36:11 GMT 49.754429 -6.175059 37,000 114 528 0
2021-08-04 04:36:08 GMT 49.754429 -6.175059 37,000 114 528 0
2021-08-04 04:36:06 GMT 49.756519 -6.182333 37,000 114 528 0
2021-08-04 04:36:04 GMT 49.759048 -6.190868 37,000 114 528 0
2021-08-04 04:36:02 GMT 49.761223 -6.198442 37,000 114 528 0
2021-08-04 04:35:59 GMT 49.764156 -6.208389 37,000 114 528 0
2021-08-04 04:35:56 GMT 49.766739 -6.217322 37,000 114 528 0
2021-08-04 04:35:53 GMT 49.770023 -6.228654 37,000 114 528 0
2021-08-04 04:35:49 GMT 49.773743 -6.241391 37,000 114 528 0
2021-08-04 04:35:46 GMT 49.776680 -6.251369 37,000 114 528 0
2021-08-04 04:35:44 GMT 49.779282 -6.260256 37,000 114 528 0
2021-08-04 04:35:41 GMT 49.781982 -6.269579 37,000 114 529 0
2021-08-04 04:35:38 GMT 49.784454 -6.278181 37,000 114 529 0
2021-08-04 04:35:36 GMT 49.786640 -6.285739 37,000 114 529 0
2021-08-04 04:35:34 GMT 49.789154 -6.294349 37,000 114 529 0
2021-08-04 04:35:31 GMT 49.791824 -6.303623 37,000 114 529 0
2021-08-04 04:35:26 GMT 49.796814 -6.320897 37,000 114 530 0
2021-08-04 04:35:24 GMT 49.799103 -6.328848 37,000 114 530 0
2021-08-04 04:35:21 GMT 49.802078 -6.339184 37,000 114 529 0
2021-08-04 04:35:18 GMT 49.804516 -6.347425 37,000 114 530 0
2021-08-04 04:35:16 GMT 49.806702 -6.355013 37,000 114 530 0
2021-08-04 04:35:14 GMT 49.809685 -6.365389 37,000 114 530 0
2021-08-04 04:35:11 GMT 49.812199 -6.374000 37,000 114 530 0
2021-08-04 04:35:08 GMT 49.814899 -6.383354 37,000 114 530 0
2021-08-04 04:35:05 GMT 49.817085 -6.390925 37,000 114 530 0
2021-08-04 04:35:03 GMT 49.822174 -6.408499 37,000 114 530 0
2021-08-04 04:35:00 GMT 49.822174 -6.408499 37,000 114 530 0
2021-08-04 04:34:57 GMT 49.826675 -6.424107 37,000 114 530 0
2021-08-04 04:34:54 GMT 49.829285 -6.433089 37,000 114 530 0
2021-08-04 04:34:52 GMT 49.831795 -6.441700 37,000 114 530 0
2021-08-04 04:34:48 GMT 49.834869 -6.452389 37,000 114 530 0
2021-08-04 04:34:44 GMT 49.839569 -6.468634 37,000 114 530 0
2021-08-04 04:34:41 GMT 49.842270 -6.478031 37,000 114 530 0
2021-08-04 04:34:38 GMT 49.844738 -6.486684 37,000 114 530 0
2021-08-04 04:34:36 GMT 49.846756 -6.493570 37,000 114 530 0
2021-08-04 04:34:34 GMT 49.849136 -6.501882 37,000 114 530 0
2021-08-04 04:34:32 GMT 49.851059 -6.508460 37,000 114 530 0
2021-08-04 04:34:28 GMT 49.854950 -6.521976 37,000 114 530 0
2021-08-04 04:34:26 GMT 49.856747 -6.528180 37,000 114 530 0
2021-08-04 04:34:24 GMT 49.859543 -6.537904 37,000 114 530 0
2021-08-04 04:34:21 GMT 49.862091 -6.546912 37,000 114 530 0
2021-08-04 04:34:18 GMT 49.864708 -6.555869 37,000 114 530 0
2021-08-04 04:34:14 GMT 49.869507 -6.572499 37,000 114 530 0
2021-08-04 04:34:12 GMT 49.870480 -6.575985 37,000 114 530 0
2021-08-04 04:34:08 GMT 49.874161 -6.588828 37,000 114 530 0
2021-08-04 04:34:06 GMT 49.876648 -6.597507 37,000 114 530 0
2021-08-04 04:34:02 GMT 49.880630 -6.611384 37,000 114 530 0
2021-08-04 04:33:59 GMT 49.883934 -6.622826 37,000 114 530 0
2021-08-04 04:33:56 GMT 49.886490 -6.631839 37,000 114 530 0
2021-08-04 04:33:54 GMT 49.889008 -6.640440 37,000 113 530 0
2021-08-04 04:33:52 GMT 49.890591 -6.646060 37,000 113 530 0
2021-08-04 04:33:48 GMT 49.894363 -6.659233 37,000 113 531 0
2021-08-04 04:33:46 GMT 49.896458 -6.666474 37,000 113 531 0
2021-08-04 04:33:43 GMT 49.900600 -6.681098 37,000 113 531 0
2021-08-04 04:33:40 GMT 49.902603 -6.688001 37,000 113 531 0
2021-08-04 04:33:36 GMT 49.906540 -6.701949 37,000 113 531 0
2021-08-04 04:33:33 GMT 49.908932 -6.710271 37,000 113 531 0
2021-08-04 04:33:30 GMT 49.912308 -6.722043 37,000 113 531 0
2021-08-04 04:33:26 GMT 49.916519 -6.737004 37,000 113 531 0
2021-08-04 04:33:23 GMT 49.919220 -6.746401 37,000 113 531 0
2021-08-04 04:33:19 GMT 49.923550 -6.761714 37,000 113 531 0
2021-08-04 04:33:16 GMT 49.926018 -6.770399 37,000 113 531 0
2021-08-04 04:33:13 GMT 49.930069 -6.784636 37,000 113 531 0
2021-08-04 04:33:10 GMT 49.932037 -6.791647 37,000 113 531 0
2021-08-04 04:33:06 GMT 49.935928 -6.805163 37,000 113 531 0
2021-08-04 04:33:03 GMT 49.938911 -6.815606 37,000 113 532 0
2021-08-04 04:33:00 GMT 49.941986 -6.826370 37,000 113 532 0
2021-08-04 04:32:56 GMT 49.945953 -6.840363 37,000 113 532 0
2021-08-04 04:32:53 GMT 49.948654 -6.849759 37,000 113 532 0
2021-08-04 04:32:50 GMT 49.952183 -6.862298 37,000 113 531 0
2021-08-04 04:32:46 GMT 49.955978 -6.875490 37,000 113 531 0
2021-08-04 04:32:43 GMT 49.958817 -6.885609 37,000 113 531 0
2021-08-04 04:32:40 GMT 49.965729 -6.910039 37,000 113 532 0
2021-08-04 04:32:36 GMT 49.965729 -6.910039 37,000 113 532 0
2021-08-04 04:32:33 GMT 49.968796 -6.920881 37,000 113 532 0
2021-08-04 04:32:31 GMT 49.971172 -6.929255 37,000 113 532 0
2021-08-04 04:32:26 GMT 49.975708 -6.945311 37,000 113 533 0
2021-08-04 04:32:22 GMT 49.979877 -6.959987 37,000 113 533 0
2021-08-04 04:32:19 GMT 49.982578 -6.969415 37,000 113 533 0
2021-08-04 04:32:16 GMT 49.985840 -6.980921 37,000 113 533 0
2021-08-04 04:32:13 GMT 49.988617 -6.990702 37,000 113 533 0
2021-08-04 04:32:11 GMT 49.991566 -7.001186 37,000 113 533 0
2021-08-04 04:32:06 GMT 49.995529 -7.015204 37,000 113 533 0
2021-08-04 04:32:03 GMT 49.998642 -7.026046 37,000 113 534 0
2021-08-04 04:31:59 GMT 50.002487 -7.039634 37,000 113 534 0
2021-08-04 04:31:56 GMT 50.005436 -7.050179 37,000 113 534 0
2021-08-04 04:31:53 GMT 50.011581 -7.071855 37,000 113 534 0
2021-08-04 04:31:50 GMT 50.015579 -7.085893 37,000 113 534 0
2021-08-04 04:31:46 GMT 50.015579 -7.085893 37,000 113 533 0
2021-08-04 04:31:43 GMT 50.018330 -7.095683 37,000 113 533 0
2021-08-04 04:31:39 GMT 50.022308 -7.109744 37,000 113 534 0
2021-08-04 04:31:36 GMT 50.025639 -7.121665 37,000 113 534 0
2021-08-04 04:31:32 GMT 50.029690 -7.136066 37,000 113 534 0
2021-08-04 04:31:25 GMT 50.035904 -7.158171 37,000 113 534 0
2021-08-04 04:31:23 GMT 50.038303 -7.166649 37,000 113 535 0
2021-08-04 04:31:21 GMT 50.039795 -7.171904 37,000 113 535 0
2021-08-04 04:31:18 GMT 50.042912 -7.183203 37,000 113 535 0
2021-08-04 04:31:15 GMT 50.045700 -7.193009 37,000 113 535 64
2021-08-04 04:31:13 GMT 50.048035 -7.201466 37,000 113 535 0
2021-08-04 04:31:11 GMT 50.049911 -7.208188 37,000 113 535 0
2021-08-04 04:31:06 GMT 50.055450 -7.227847 37,000 113 535 0
2021-08-04 04:31:03 GMT 50.058014 -7.237027 37,000 113 536 0
2021-08-04 04:31:01 GMT 50.059578 -7.242663 37,000 113 536 0
2021-08-04 04:30:56 GMT 50.065292 -7.263119 37,000 113 536 0
2021-08-04 04:30:53 GMT 50.067581 -7.271215 37,000 113 536 0
2021-08-04 04:30:49 GMT 50.071495 -7.285346 37,000 113 536 0
2021-08-04 04:30:46 GMT 50.075043 -7.298102 37,000 113 536 0
2021-08-04 04:30:43 GMT 50.077515 -7.306920 37,000 113 537 0
2021-08-04 04:30:41 GMT 50.084763 -7.332706 37,000 113 537 0
2021-08-04 04:30:36 GMT 50.084763 -7.332706 37,000 113 537 0
2021-08-04 04:30:33 GMT 50.087601 -7.342950 37,000 113 537 0
2021-08-04 04:30:30 GMT 50.091091 -7.355347 37,000 113 538 0
2021-08-04 04:30:26 GMT 50.095001 -7.369513 37,000 113 537 0
2021-08-04 04:30:23 GMT 50.097565 -7.378730 37,000 113 537 0
2021-08-04 04:30:21 GMT 50.099564 -7.385782 37,000 113 537 0
2021-08-04 04:30:16 GMT 50.104568 -7.403918 37,000 113 537 0
2021-08-04 04:30:13 GMT 50.107407 -7.414181 37,000 113 538 0
2021-08-04 04:30:10 GMT 50.109947 -7.423417 37,000 113 538 0
2021-08-04 04:30:06 GMT 50.114090 -7.438322 37,000 113 538 0
2021-08-04 04:30:03 GMT 50.117294 -7.450031 37,000 113 538 0
2021-08-04 04:30:01 GMT 50.119164 -7.456822 37,000 113 538 0
2021-08-04 04:29:57 GMT 50.123108 -7.471065 37,000 113 539 0
2021-08-04 04:29:53 GMT 50.127228 -7.486026 37,000 113 539 0
2021-08-04 04:29:50 GMT 50.129745 -7.495278 37,000 113 539 0
2021-08-04 04:29:45 GMT 50.137115 -7.522021 37,000 113 540 0
2021-08-04 04:29:43 GMT 50.137115 -7.522021 37,000 113 540 0
2021-08-04 04:29:40 GMT 50.139084 -7.529104 37,000 113 540 0
2021-08-04 04:29:33 GMT 50.146729 -7.557004 37,000 113 540 0
2021-08-04 04:29:31 GMT 50.149384 -7.566617 37,000 113 541 0
2021-08-04 04:29:25 GMT 50.153778 -7.582735 37,000 113 541 0
2021-08-04 04:29:23 GMT 50.156544 -7.592740 37,000 113 541 0
2021-08-04 04:29:20 GMT 50.159088 -7.602033 37,000 113 541 0
2021-08-04 04:29:15 GMT 50.163757 -7.619235 37,000 112 541 0
2021-08-04 04:29:13 GMT 50.166504 -7.629282 37,000 112 541 0
2021-08-04 04:29:07 GMT 50.171768 -7.648653 37,000 112 542 0
2021-08-04 04:29:05 GMT 50.173599 -7.655519 37,000 112 542 0
2021-08-04 04:29:03 GMT 50.176392 -7.665927 37,000 112 542 0
2021-08-04 04:29:00 GMT 50.178726 -7.674528 37,000 112 542 0
2021-08-04 04:28:57 GMT 50.181637 -7.685308 37,000 112 542 0
2021-08-04 04:28:53 GMT 50.185921 -7.701119 37,000 112 543 0
2021-08-04 04:28:49 GMT 50.188618 -7.711215 37,000 112 543 0
2021-08-04 04:28:45 GMT 50.192856 -7.727100 37,000 112 543 0
2021-08-04 04:28:42 GMT 50.195663 -7.737555 37,000 112 543 0
2021-08-04 04:28:40 GMT 50.198273 -7.747313 37,000 112 543 0
2021-08-04 04:28:37 GMT 50.200699 -7.756348 37,000 112 544 0
2021-08-04 04:28:35 GMT 50.202805 -7.764298 37,000 112 544 0
2021-08-04 04:28:32 GMT 50.205414 -7.774056 37,000 112 544 0
2021-08-04 04:28:29 GMT 50.208309 -7.784927 37,000 112 544 64
2021-08-04 04:28:25 GMT 50.212509 -7.800871 37,000 112 545 0
2021-08-04 04:28:22 GMT 50.215385 -7.811725 37,000 112 545 0
2021-08-04 04:28:17 GMT 50.219513 -7.827325 37,000 112 545 0
2021-08-04 04:28:14 GMT 50.222900 -7.840046 37,000 112 545 0
2021-08-04 04:28:11 GMT 50.225304 -7.849063 37,000 112 546 0
2021-08-04 04:28:07 GMT 50.230099 -7.867250 37,000 112 546 0
2021-08-04 04:28:05 GMT 50.231819 -7.873783 37,000 112 546 0
2021-08-04 04:28:00 GMT 50.237221 -7.894122 37,000 112 546 0
2021-08-04 04:27:56 GMT 50.239826 -7.903995 37,000 112 546 0
2021-08-04 04:27:54 GMT 50.242218 -7.913047 37,000 112 547 0
2021-08-04 04:27:51 GMT 50.245274 -7.924706 37,000 112 547 0
2021-08-04 04:27:47 GMT 50.248947 -7.938562 37,000 112 547 0
2021-08-04 04:27:45 GMT 50.250908 -7.945862 37,000 112 547 0
2021-08-04 04:27:42 GMT 50.253433 -7.955258 37,000 112 548 0
2021-08-04 04:27:39 GMT 50.256546 -7.966967 37,000 112 547 0
2021-08-04 04:27:35 GMT 50.263660 -7.993148 37,000 112 548 0
2021-08-04 04:27:32 GMT 50.263660 -7.993148 37,000 113 549 0
2021-08-04 04:27:29 GMT 50.266640 -8.003985 37,000 113 549 0
2021-08-04 04:27:25 GMT 50.270924 -8.019203 37,000 114 549 0
2021-08-04 04:27:22 GMT 50.273849 -8.029343 37,000 114 549 0
2021-08-04 04:27:17 GMT 50.279583 -8.048747 37,000 114 550 0
2021-08-04 04:27:14 GMT 50.282051 -8.057061 37,000 114 550 0
2021-08-04 04:27:11 GMT 50.284611 -8.065672 37,000 114 550 0
2021-08-04 04:27:09 GMT 50.287582 -8.075746 37,000 114 550 0
2021-08-04 04:27:05 GMT 50.291977 -8.090563 37,000 114 550 0
2021-08-04 04:27:02 GMT 50.294815 -8.100321 37,000 114 551 0
2021-08-04 04:27:00 GMT 50.298016 -8.111102 37,000 114 551 0
2021-08-04 04:26:57 GMT 50.300575 -8.119787 37,000 114 551 0
2021-08-04 04:26:55 GMT 50.302734 -8.126992 37,000 114 551 0
2021-08-04 04:26:52 GMT 50.305698 -8.137083 37,000 114 551 0
2021-08-04 04:26:48 GMT 50.309422 -8.149777 37,000 114 551 0
2021-08-04 04:26:44 GMT 50.314449 -8.166702 37,000 114 551 0
2021-08-04 04:26:41 GMT 50.317429 -8.176864 37,000 114 551 0
2021-08-04 04:26:37 GMT 50.322456 -8.193871 37,000 114 552 0
2021-08-04 04:26:35 GMT 50.324181 -8.199661 37,000 114 552 0
2021-08-04 04:26:32 GMT 50.327362 -8.210473 37,000 114 552 0
2021-08-04 04:26:27 GMT 50.333023 -8.229651 37,000 114 552 0
2021-08-04 04:26:25 GMT 50.334641 -8.235120 37,000 114 553 0
2021-08-04 04:26:22 GMT 50.337936 -8.246323 37,000 114 553 0
2021-08-04 04:26:18 GMT 50.342056 -8.260490 37,000 114 553 0
2021-08-04 04:26:14 GMT 50.345993 -8.273934 37,000 114 553 0
2021-08-04 04:26:12 GMT 50.348759 -8.283320 37,000 114 554 0
2021-08-04 04:26:06 GMT 50.354507 -8.302990 37,000 114 554 0
2021-08-04 04:26:04 GMT 50.356625 -8.310266 37,000 114 554 0
2021-08-04 04:26:02 GMT 50.359467 -8.320065 37,000 114 554 0
2021-08-04 04:25:58 GMT 50.364075 -8.335728 37,000 114 554 -64
2021-08-04 04:25:55 GMT 50.366634 -8.344413 37,000 114 554 -64
2021-08-04 04:25:52 GMT 50.370026 -8.356114 37,000 114 554 0
2021-08-04 04:25:47 GMT 50.375248 -8.373957 37,000 114 554 0
2021-08-04 04:25:44 GMT 50.378677 -8.385604 37,000 114 554 0
2021-08-04 04:25:41 GMT 50.381195 -8.394350 37,000 114 554 0
2021-08-04 04:25:38 GMT 50.384628 -8.406420 37,000 113 554 0
2021-08-04 04:25:35 GMT 50.388199 -8.419286 37,000 113 554 0
2021-08-04 04:25:32 GMT 50.390717 -8.428465 37,000 112 554 0
2021-08-04 04:25:28 GMT 50.394562 -8.442921 37,000 112 554 0
2021-08-04 04:25:24 GMT 50.398617 -8.458433 37,000 111 554 0
2021-08-04 04:25:22 GMT 50.402206 -8.472627 37,000 111 554 0
2021-08-04 04:25:16 GMT 50.405506 -8.486048 37,000 110 553 0
2021-08-04 04:25:14 GMT 50.408161 -8.496886 37,000 110 553 0
2021-08-04 04:25:11 GMT 50.410721 -8.507723 37,000 110 553 0
2021-08-04 04:25:05 GMT 50.414886 -8.525752 37,000 109 552 0
2021-08-04 04:25:01 GMT 50.418961 -8.544246 37,000 108 552 0
2021-08-04 04:24:55 GMT 50.423801 -8.566961 37,000 108 552 0
2021-08-04 04:24:51 GMT 50.427200 -8.583719 37,000 107 551 0
2021-08-04 04:24:48 GMT 50.428940 -8.592465 37,000 107 551 0
2021-08-04 04:24:45 GMT 50.431274 -8.604246 37,000 106 551 0
2021-08-04 04:24:41 GMT 50.434464 -8.621076 37,000 106 550 0
2021-08-04 04:24:36 GMT 50.437580 -8.638297 37,000 105 550 -64
2021-08-04 04:24:33 GMT 50.439537 -8.649432 37,000 105 550 0
2021-08-04 04:24:31 GMT 50.441353 -8.659750 37,000 104 550 -64
2021-08-04 04:24:25 GMT 50.444778 -8.680573 37,000 104 549 0
2021-08-04 04:24:21 GMT 50.447544 -8.697906 37,000 103 548 0
2021-08-04 04:24:16 GMT 50.450195 -8.715276 37,000 103 548 0
2021-08-04 04:24:14 GMT 50.451324 -8.723000 37,000 102 547 0
2021-08-04 04:24:11 GMT 50.453407 -8.737620 37,000 102 547 0
2021-08-04 04:24:06 GMT 50.455597 -8.753505 37,000 101 547 0
2021-08-04 04:24:03 GMT 50.457085 -8.764789 37,000 101 546 0
2021-08-04 04:24:01 GMT 50.458557 -8.776414 37,000 100 546 0
2021-08-04 04:23:56 GMT 50.460526 -8.793110 37,000 100 545 0
2021-08-04 04:23:54 GMT 50.461304 -8.799687 37,000 100 545 0
2021-08-04 04:23:51 GMT 50.462906 -8.814071 37,000 100 545 0
2021-08-04 04:23:46 GMT 50.464954 -8.831969 37,000 100 546 0
2021-08-04 04:23:41 GMT 50.467346 -8.852957 37,000 100 546 0
2021-08-04 04:23:36 GMT 50.469421 -8.871237 37,000 100 546 0
2021-08-04 04:23:33 GMT 50.471832 -8.892204 37,000 100 546 0
2021-08-04 04:23:31 GMT 50.471832 -8.892204 37,000 100 546 0
2021-08-04 04:23:25 GMT 50.474079 -8.912065 37,000 100 546 0
2021-08-04 04:23:23 GMT 50.475475 -8.924165 37,000 100 546 64
2021-08-04 04:23:20 GMT 50.476456 -8.933113 37,000 100 546 0
2021-08-04 04:23:16 GMT 50.478287 -8.949087 37,000 100 546 0
2021-08-04 04:23:13 GMT 50.479477 -8.959567 37,000 100 546 0
2021-08-04 04:23:10 GMT 50.480850 -8.971710 37,000 99 547 0
2021-08-04 04:23:06 GMT 50.482784 -8.988821 37,000 99 547 0
2021-08-04 04:23:00 GMT 50.485203 -9.010645 37,000 99 547 0
2021-08-04 04:22:56 GMT 50.487110 -9.027421 37,000 100 546 0
2021-08-04 04:22:54 GMT 50.487812 -9.033583 37,000 100 546 0
2021-08-04 04:22:49 GMT 50.490051 -9.053457 37,000 100 546 0
2021-08-04 04:22:44 GMT 50.492233 -9.073000 37,000 100 546 0
2021-08-04 04:22:40 GMT 50.494217 -9.090464 37,000 100 546 0
2021-08-04 04:22:36 GMT 50.495911 -9.105291 37,000 100 546 0
2021-08-04 04:22:33 GMT 50.496937 -9.114273 37,000 100 546 0
2021-08-04 04:22:30 GMT 50.498703 -9.129856 37,000 100 546 0
2021-08-04 04:22:25 GMT 50.500610 -9.147009 37,000 100 546 0
2021-08-04 04:22:23 GMT 50.501358 -9.153616 37,000 99 547 0
2021-08-04 04:22:20 GMT 50.503174 -9.169575 37,000 99 547 0
2021-08-04 04:22:15 GMT 50.505112 -9.186739 37,000 99 547 0
2021-08-04 04:22:13 GMT 50.505779 -9.192959 37,000 99 547 0
2021-08-04 04:22:09 GMT 50.507538 -9.208567 37,000 99 547 0
2021-08-04 04:22:05 GMT 50.509506 -9.226130 37,000 99 547 0
2021-08-04 04:22:03 GMT 50.510063 -9.231188 37,000 99 547 0
2021-08-04 04:21:59 GMT 50.512066 -9.249152 37,000 99 547 0
2021-08-04 04:21:56 GMT 50.513462 -9.262068 37,000 99 547 0
2021-08-04 04:21:54 GMT 50.514343 -9.269863 37,000 99 546 0
2021-08-04 04:21:49 GMT 50.516464 -9.289013 37,000 99 546 0
2021-08-04 04:21:46 GMT 50.517929 -9.302228 37,000 99 546 0
2021-08-04 04:21:43 GMT 50.518982 -9.311997 37,000 99 546 0
2021-08-04 04:21:39 GMT 50.520584 -9.326453 37,000 99 547 0
2021-08-04 04:21:36 GMT 50.522095 -9.340114 37,000 99 547 0
2021-08-04 04:21:31 GMT 50.523972 -9.357316 37,000 99 547 0
2021-08-04 04:21:29 GMT 50.525051 -9.367107 37,000 99 547 0
2021-08-04 04:21:26 GMT 50.526398 -9.379578 37,000 99 547 0
2021-08-04 04:21:23 GMT 50.527428 -9.389005 37,000 99 547 0
2021-08-04 04:21:19 GMT 50.529190 -9.405381 37,000 99 547 0
2021-08-04 04:21:16 GMT 50.530792 -9.419909 37,000 99 547 0
2021-08-04 04:21:12 GMT 50.532036 -9.431614 37,000 99 547 0
2021-08-04 04:21:09 GMT 50.533291 -9.442972 37,000 99 547 0
2021-08-04 04:21:06 GMT 50.534958 -9.458578 37,000 99 547 0
2021-08-04 04:21:03 GMT 50.535805 -9.466058 37,000 99 547 0
2021-08-04 04:20:59 GMT 50.537903 -9.485581 37,000 99 547 0
2021-08-04 04:20:56 GMT 50.539249 -9.497755 37,000 99 547 0
2021-08-04 04:20:53 GMT 50.540180 -9.506366 37,000 99 547 0
2021-08-04 04:20:49 GMT 50.541859 -9.521583 37,000 99 547 0
2021-08-04 04:20:47 GMT 50.542831 -9.530206 37,000 99 547 0
2021-08-04 04:20:44 GMT 50.544090 -9.541923 37,000 99 547 0
2021-08-04 04:20:38 GMT 50.546539 -9.564683 37,000 99 548 0
2021-08-04 04:20:35 GMT 50.547684 -9.575235 37,000 99 548 0
2021-08-04 04:20:33 GMT 50.548737 -9.584993 37,000 99 548 0
2021-08-04 04:20:28 GMT 50.550888 -9.605014 37,000 99 548 0
2021-08-04 04:20:25 GMT 50.551914 -9.614373 37,000 99 548 -64
2021-08-04 04:20:22 GMT 50.553448 -9.628923 37,000 99 548 0
2021-08-04 04:20:18 GMT 50.555191 -9.645346 37,000 99 548 -64
2021-08-04 04:20:15 GMT 50.556152 -9.654380 37,000 99 548 0
2021-08-04 04:20:12 GMT 50.559219 -9.683364 37,000 99 548 0
2021-08-04 04:20:08 GMT 50.559219 -9.683364 37,000 99 548 0
2021-08-04 04:20:05 GMT 50.560291 -9.693579 37,000 99 548 0
2021-08-04 04:20:03 GMT 50.562946 -9.718669 37,000 99 548 0
2021-08-04 04:19:59 GMT 50.562946 -9.718669 37,000 99 548 0
2021-08-04 04:19:55 GMT 50.564575 -9.733961 37,000 99 548 0
2021-08-04 04:19:51 GMT 50.566086 -9.748053 37,000 99 548 0
2021-08-04 04:19:48 GMT 50.567741 -9.763728 37,000 99 548 0
2021-08-04 04:19:45 GMT 50.568741 -9.773206 37,000 99 548 0
2021-08-04 04:19:42 GMT 50.569885 -9.783759 37,000 99 548 0
2021-08-04 04:19:38 GMT 50.571884 -9.802626 37,000 99 548 0
2021-08-04 04:19:35 GMT 50.572952 -9.812815 37,000 99 548 0
2021-08-04 04:19:29 GMT 50.575237 -9.834397 37,000 99 549 0
2021-08-04 04:19:25 GMT 50.577072 -9.851701 37,000 99 549 0
2021-08-04 04:19:22 GMT 50.578030 -9.860675 37,000 99 549 0
2021-08-04 04:19:18 GMT 50.579865 -9.878371 37,000 99 549 0
2021-08-04 04:19:15 GMT 50.581242 -9.891333 37,000 99 549 0
2021-08-04 04:19:12 GMT 50.582497 -9.903507 37,000 99 549 0
2021-08-04 04:19:07 GMT 50.584625 -9.923618 37,000 99 549 0
2021-08-04 04:19:04 GMT 50.585663 -9.933793 37,000 99 550 0
2021-08-04 04:19:02 GMT 50.586548 -9.942049 37,000 99 550 0
2021-08-04 04:18:58 GMT 50.588177 -9.957845 37,000 99 550 0
2021-08-04 04:18:55 GMT 50.589340 -9.969202 37,000 99 550 0
2021-08-04 04:18:52 GMT 50.590599 -9.981450 37,000 99 550 0
2021-08-04 04:18:47 GMT 50.592831 -10.003052 37,000 99 550 0
2021-08-04 04:18:44 GMT 50.593964 -10.014110 37,000 99 550 0
2021-08-04 04:18:39 GMT 50.596115 -10.035360 37,000 99 550 0
2021-08-04 04:18:37 GMT 50.597069 -10.044473 37,000 99 550 0
2021-08-04 04:18:34 GMT 50.598232 -10.055905 37,000 99 549 0
2021-08-04 04:18:31 GMT 50.599503 -10.068464 37,000 99 549 0
2021-08-04 04:18:28 GMT 50.600281 -10.075981 37,000 99 550 0
2021-08-04 04:18:25 GMT 50.601631 -10.089384 37,000 99 551 0
2021-08-04 04:18:22 GMT 50.602562 -10.098440 37,000 99 551 0
2021-08-04 04:18:18 GMT 50.604469 -10.116998 37,000 99 551 0
2021-08-04 04:18:15 GMT 50.605541 -10.127242 37,000 99 551 0
2021-08-04 04:18:12 GMT 50.606873 -10.139875 37,000 99 551 0
2021-08-04 04:18:08 GMT 50.608383 -10.154475 37,000 99 551 0
2021-08-04 04:18:05 GMT 50.610901 -10.178978 37,000 99 551 -64
2021-08-04 04:18:02 GMT 50.610901 -10.178978 37,000 99 551 0
2021-08-04 04:17:58 GMT 50.612522 -10.194793 37,000 99 551 0
2021-08-04 04:17:54 GMT 50.614059 -10.210233 37,000 99 551 0
2021-08-04 04:17:52 GMT 50.615112 -10.220465 37,000 99 551 0
2021-08-04 04:17:49 GMT 50.616348 -10.232753 37,000 99 551 0
2021-08-04 04:17:44 GMT 50.617996 -10.248943 37,000 99 551 0
2021-08-04 04:17:41 GMT 50.619232 -10.261230 37,000 99 551 0
2021-08-04 04:17:38 GMT 50.620438 -10.273033 37,000 99 552 0
2021-08-04 04:17:35 GMT 50.621750 -10.285733 37,000 99 552 0
2021-08-04 04:17:31 GMT 50.623280 -10.300796 37,000 99 553 0
2021-08-04 04:17:27 GMT 50.624634 -10.314283 37,000 99 552 0
2021-08-04 04:17:25 GMT 50.625778 -10.325703 37,000 99 552 0
2021-08-04 04:17:22 GMT 50.627327 -10.340807 37,000 99 552 0
2021-08-04 04:17:18 GMT 50.628304 -10.350680 37,000 98 552 64
2021-08-04 04:17:15 GMT 50.629795 -10.365378 37,000 98 553 0
2021-08-04 04:17:11 GMT 50.631332 -10.380818 37,000 98 553 0
2021-08-04 04:17:08 GMT 50.632446 -10.391953 36,975 98 553 0
2021-08-04 04:17:04 GMT 50.633938 -10.407022 37,000 98 553 0
2021-08-04 04:16:58 GMT 50.636452 -10.432112 37,000 98 554 0
2021-08-04 04:16:55 GMT 50.637726 -10.444818 37,000 98 554 0
2021-08-04 04:16:48 GMT 50.640335 -10.471127 37,000 98 555 0
2021-08-04 04:16:45 GMT 50.641804 -10.485411 37,000 98 555 0
2021-08-04 04:16:38 GMT 50.644501 -10.512976 36,975 98 555 0
2021-08-04 04:16:35 GMT 50.645668 -10.524531 37,000 98 556 0
2021-08-04 04:16:29 GMT 50.647980 -10.548031 37,000 98 556 0
2021-08-04 04:16:25 GMT 50.649765 -10.566027 37,000 98 556 0
2021-08-04 04:16:18 GMT 50.652233 -10.591191 37,000 98 556 0
2021-08-04 04:16:15 GMT 50.653564 -10.604770 36,975 98 557 0
2021-08-04 04:16:08 GMT 50.656284 -10.632390 37,000 98 557 0
2021-08-04 04:16:05 GMT 50.657593 -10.645969 37,000 98 557 0
2021-08-04 04:15:57 GMT 50.660240 -10.672772 37,000 98 558 0
2021-08-04 04:15:54 GMT 50.661777 -10.688435 37,000 98 558 0
2021-08-04 04:15:47 GMT 50.664291 -10.714045 37,000 98 558 0
2021-08-04 04:15:44 GMT 50.665642 -10.728075 36,975 98 559 0
2021-08-04 04:15:37 GMT 50.668156 -10.753759 37,000 98 559 0
2021-08-04 04:15:33 GMT 50.669678 -10.769854 37,000 98 559 0
2021-08-04 04:15:27 GMT 50.672066 -10.794373 37,000 98 560 64
2021-08-04 04:15:24 GMT 50.673508 -10.809250 37,000 98 560 0
2021-08-04 04:15:17 GMT 50.677509 -10.851517 37,000 98 561 0
2021-08-04 04:15:13 GMT 50.677509 -10.851517 36,975 98 560 0
2021-08-04 04:15:07 GMT 50.679749 -10.874906 37,000 98 561 0
2021-08-04 04:15:03 GMT 50.681351 -10.891385 37,000 98 561 0
2021-08-04 04:14:57 GMT 50.683887 -10.917664 37,000 98 562 0
2021-08-04 04:14:54 GMT 50.685196 -10.931396 37,000 98 562 0
2021-08-04 04:14:47 GMT 50.687706 -10.957642 37,000 98 563 0
2021-08-04 04:14:43 GMT 50.689407 -10.975490 36,975 98 564 0
2021-08-04 04:14:37 GMT 50.691525 -10.997772 37,000 98 565 0
2021-08-04 04:14:33 GMT 50.692978 -11.013274 36,975 98 566 0
2021-08-04 04:14:27 GMT 50.695435 -11.039276 37,000 98 566 0
2021-08-04 04:14:24 GMT 50.697250 -11.058807 37,000 98 567 0
2021-08-04 04:14:16 GMT 50.699341 -11.080825 37,000 98 567 0
2021-08-04 04:14:13 GMT 50.700714 -11.095969 37,000 98 568 0
2021-08-04 04:14:06 GMT 50.703232 -11.122915 37,000 98 568 -64
2021-08-04 04:14:03 GMT 50.704559 -11.137167 37,000 98 568 0
2021-08-04 04:13:54 GMT 50.707817 -11.171951 37,000 98 569 0
2021-08-04 04:13:52 GMT 50.708607 -11.180573 37,000 98 569 0
2021-08-04 04:13:44 GMT 50.711727 -11.214066 37,000 98 569 0
2021-08-04 04:13:42 GMT 50.712524 -11.222237 37,000 98 569 0
2021-08-04 04:13:34 GMT 50.715500 -11.254231 37,000 98 570 0
2021-08-04 04:13:32 GMT 50.716232 -11.262397 37,000 98 570 0
2021-08-04 04:13:24 GMT 50.719345 -11.295578 37,000 98 569 -64
2021-08-04 04:13:22 GMT 50.720058 -11.303406 37,000 98 569 0
2021-08-04 04:13:16 GMT 50.722481 -11.329651 37,000 98 569 0
2021-08-04 04:13:12 GMT 50.723923 -11.345240 37,000 98 569 0
2021-08-04 04:13:04 GMT 50.726944 -11.378050 37,000 98 570 0
2021-08-04 04:13:02 GMT 50.727768 -11.387478 37,000 98 570 -64
2021-08-04 04:12:54 GMT 50.730789 -11.420362 36,975 98 570 0
2021-08-04 04:12:52 GMT 50.731476 -11.427711 36,975 98 570 0
2021-08-04 04:12:45 GMT 50.733887 -11.454391 37,000 98 570 -64
2021-08-04 04:12:42 GMT 50.735275 -11.470023 37,000 98 570 0
2021-08-04 04:12:33 GMT 50.738525 -11.505803 37,000 98 570 0
2021-08-04 04:12:24 GMT 50.741913 -11.543587 37,000 98 570 -64
2021-08-04 04:12:17 GMT 50.744732 -11.574860 37,000 98 570 64
2021-08-04 04:12:14 GMT 50.745575 -11.584266 37,000 98 570 0
2021-08-04 04:12:06 GMT 50.748409 -11.615906 37,000 98 570 0
2021-08-04 04:12:03 GMT 50.749512 -11.628286 37,000 98 570 64
2021-08-04 04:11:54 GMT 50.753113 -11.668549 37,000 97 570 0
2021-08-04 04:11:46 GMT 50.756649 -11.708374 37,000 97 569 64
2021-08-04 04:11:43 GMT 50.756649 -11.708374 37,000 97 569 64
2021-08-04 04:11:33 GMT 50.760269 -11.749433 37,000 97 569 0
2021-08-04 04:11:23 GMT 50.764023 -11.791745 37,000 97 569 0
2021-08-04 04:11:13 GMT 50.767544 -11.831970 37,000 97 569 64
2021-08-04 04:11:06 GMT 50.770477 -11.865616 37,000 97 569 -64
2021-08-04 04:11:03 GMT 50.771164 -11.873845 37,000 97 569 -128
2021-08-04 04:10:53 GMT 50.774712 -11.914902 37,000 97 569 0
2021-08-04 04:10:43 GMT 50.778202 -11.955109 37,000 97 569 64
2021-08-04 04:10:34 GMT 50.781555 -11.994171 37,000 97 569 0
2021-08-04 04:10:25 GMT 50.784851 -12.032330 37,000 97 569 0
2021-08-04 04:10:20 GMT 50.786209 -12.048340 37,000 97 569 0
2021-08-04 04:10:17 GMT 50.787598 -12.064770 37,000 97 569 0
2021-08-04 04:10:14 GMT 50.788696 -12.077538 37,000 97 569 0
2021-08-04 04:10:11 GMT 50.789383 -12.085703 37,000 97 569 0
2021-08-04 04:10:07 GMT 50.791100 -12.105865 37,000 97 569 0
2021-08-04 04:10:02 GMT 50.792637 -12.123489 37,000 97 569 0
2021-08-04 04:09:53 GMT 50.795849 -12.161713 37,000 97 568 0
2021-08-04 04:09:42 GMT 50.799637 -12.206850 37,000 97 568 0
2021-08-04 04:09:32 GMT 50.803154 -12.248764 37,000 97 568 0
2021-08-04 04:09:24 GMT 50.805954 -12.281973 37,000 97 568 0
2021-08-04 04:09:19 GMT 50.807648 -12.302535 37,000 97 568 0
2021-08-04 04:09:12 GMT 50.810093 -12.331696 37,000 97 568 0
2021-08-04 04:09:02 GMT 50.813442 -12.372437 37,000 97 568 0
2021-08-04 04:08:52 GMT 50.816666 -12.411507 37,000 97 568 0
2021-08-04 04:08:43 GMT 50.819866 -12.450180 37,000 97 569 0
2021-08-04 04:08:32 GMT 50.823349 -12.492940 37,000 97 569 0
2021-08-04 04:08:22 GMT 50.826805 -12.534866 37,000 97 569 0
2021-08-04 04:08:12 GMT 50.830124 -12.576005 37,000 97 569 0
2021-08-04 04:08:03 GMT 50.833366 -12.615967 37,000 97 569 0
2021-08-04 04:07:53 GMT 50.836624 -12.656708 37,000 97 569 0
2021-08-04 04:07:42 GMT 50.840073 -12.699890 37,000 97 568 0
2021-08-04 04:07:32 GMT 50.843307 -12.741023 37,000 97 568 0
2021-08-04 04:07:23 GMT 50.849800 -12.823715 37,000 96 568 0
2021-08-04 04:07:12 GMT 50.853058 -12.865287 37,000 96 568 0
2021-08-04 04:07:02 GMT 50.853058 -12.865287 37,000 97 568 0
2021-08-04 04:06:52 GMT 50.859512 -12.948353 37,000 96 568 0
2021-08-04 04:06:42 GMT 50.859512 -12.948353 37,000 96 568 0
2021-08-04 04:06:31 GMT 50.862900 -12.991556 37,000 96 568 0
2021-08-04 04:06:21 GMT 50.865955 -13.031464 37,000 96 568 0
2021-08-04 04:06:12 GMT 50.869259 -13.074722 37,000 96 569 0
2021-08-04 04:06:01 GMT 50.872471 -13.117142 37,000 96 569 0
2021-08-04 04:05:53 GMT 50.874710 -13.146404 37,000 96 568 0
2021-08-04 04:05:51 GMT 50.875626 -13.158355 37,000 96 569 0
2021-08-04 04:05:43 GMT 50.877777 -13.187157 37,000 96 568 0
2021-08-04 04:05:41 GMT 50.878712 -13.199539 37,000 96 568 0
2021-08-04 04:05:33 GMT 50.880943 -13.229218 37,000 96 568 0
2021-08-04 04:05:30 GMT 50.881943 -13.242385 37,000 96 568 0
2021-08-04 04:05:24 GMT 50.883877 -13.268356 37,000 96 568 0
2021-08-04 04:05:21 GMT 50.884949 -13.282776 37,000 96 568 0
2021-08-04 04:05:12 GMT 50.887600 -13.318253 37,000 96 568 0
2021-08-04 04:05:10 GMT 50.888111 -13.325272 37,000 96 568 0
2021-08-04 04:05:04 GMT 50.890182 -13.352917 37,000 96 568 0
2021-08-04 04:05:01 GMT 50.891190 -13.366501 37,000 96 568 0
2021-08-04 04:04:49 GMT 50.894485 -13.411486 37,000 96 568 0
2021-08-04 04:04:42 GMT 50.896633 -13.440781 37,000 96 569 0
2021-08-04 04:04:40 GMT 50.897415 -13.451497 37,000 96 568 0
2021-08-04 04:04:33 GMT 50.899384 -13.478369 37,000 96 568 0
2021-08-04 04:04:29 GMT 50.900681 -13.496094 37,000 96 569 0
2021-08-04 04:04:24 GMT 50.902264 -13.517990 37,000 96 568 0
2021-08-04 04:04:20 GMT 50.903458 -13.534488 37,000 96 568 0
2021-08-04 04:04:12 GMT 50.905838 -13.567521 37,000 96 568 0
2021-08-04 04:04:10 GMT 50.906406 -13.575745 37,000 96 568 0
2021-08-04 04:03:59 GMT 50.909500 -13.618667 37,000 96 568 0
2021-08-04 04:03:50 GMT 50.912460 -13.660736 37,000 96 569 0
2021-08-04 04:03:39 GMT 50.915344 -13.701248 37,000 96 568 0
2021-08-04 04:03:29 GMT 50.918335 -13.744193 37,000 96 568 0
2021-08-04 04:03:19 GMT 50.921257 -13.785400 37,000 96 568 0
2021-08-04 04:03:08 GMT 50.924236 -13.827972 37,000 96 568 0
2021-08-04 04:02:59 GMT 50.927124 -13.869274 37,000 96 569 0
2021-08-04 04:02:48 GMT 50.930058 -13.911438 37,000 96 569 0
2021-08-04 04:02:38 GMT 50.933128 -13.955688 37,000 96 569 0
2021-08-04 04:02:28 GMT 50.935783 -13.994522 37,000 96 569 0
2021-08-04 04:02:18 GMT 50.938717 -14.037170 37,000 96 570 0
2021-08-04 04:02:07 GMT 50.941772 -14.081875 37,000 96 570 0
2021-08-04 04:01:58 GMT 50.944427 -14.121217 37,000 96 570 0
2021-08-04 04:01:47 GMT 50.947281 -14.163437 37,000 96 570 0
2021-08-04 04:01:37 GMT 50.950027 -14.204483 37,000 96 570 0
2021-08-04 04:01:27 GMT 50.952915 -14.247131 37,000 96 570 0
2021-08-04 04:01:17 GMT 50.955734 -14.289798 37,000 95 570 0
2021-08-04 04:01:07 GMT 50.958481 -14.331665 37,000 95 570 0
2021-08-04 04:00:57 GMT 50.961182 -14.372641 37,000 95 569 0
2021-08-04 04:00:47 GMT 50.963928 -14.415324 37,000 95 569 0
2021-08-04 04:00:36 GMT 50.966675 -14.458008 37,000 95 569 0
2021-08-04 04:00:27 GMT 50.969330 -14.499875 37,000 95 569 0
2021-08-04 04:00:16 GMT 50.971848 -14.540480 37,000 95 569 0
2021-08-04 04:00:05 GMT 50.974869 -14.588582 37,000 95 569 0
2021-08-04 03:59:56 GMT 50.977119 -14.625473 37,000 95 569 0
2021-08-04 03:59:45 GMT 50.979950 -14.671128 37,000 95 569 0
2021-08-04 03:59:36 GMT 50.982288 -14.709320 37,000 95 569 0
2021-08-04 03:59:25 GMT 50.985035 -14.754486 37,000 95 570 0
2021-08-04 03:59:16 GMT 50.987457 -14.793536 37,000 95 570 0
2021-08-04 03:59:05 GMT 50.990017 -14.836349 37,000 95 570 0
2021-08-04 03:58:55 GMT 50.992577 -14.879990 37,000 96 572 0
2021-08-04 03:58:45 GMT 50.995602 -14.919434 37,000 98 574 0
2021-08-04 03:58:33 GMT 51.000641 -14.967684 37,000 100 577 0
2021-08-04 03:58:24 GMT 51.005611 -15.005875 37,000 102 580 0
2021-08-04 03:58:15 GMT 51.011803 -15.046005 37,000 105 584 0
2021-08-04 03:58:01 GMT 51.022415 -15.103073 37,000 107 586 0
We lost coverage of the aircraft here for a total of 131 minutes
2021-08-04 01:46:33 GMT 49.166668 -48.349998 37,000 79 570
2021-08-04 01:45:33 GMT 49.133331 -48.566666 37,000 77 570
2021-08-04 01:44:33 GMT 49.099998 -48.816666 37,000 81 570
2021-08-04 01:43:33 GMT 49.083332 -49.049999 37,000 79 570
2021-08-04 01:42:32 GMT 49.033333 -49.283333 37,000 79 570
2021-08-04 01:41:33 GMT 49.033333 -49.516666 37,000 76 570
2021-08-04 01:40:33 GMT 49.000000 -49.766666 37,000 73 570
We lost coverage of the aircraft here for a total of 7 minutes
2021-08-04 01:33:09 GMT 48.629242 -51.501228 37,000 68 587 64
2021-08-04 01:33:07 GMT 48.627350 -51.508461 37,000 68 587 0
2021-08-04 01:32:58 GMT 48.617805 -51.545467 37,000 68 587 0
2021-08-04 01:32:46 GMT 48.606262 -51.590206 37,000 68 588 0
2021-08-04 01:32:38 GMT 48.598251 -51.621094 37,000 68 589 0
2021-08-04 01:32:28 GMT 48.588058 -51.660027 37,000 68 589 0
2021-08-04 01:32:14 GMT 48.573944 -51.713772 37,000 68 589 0
2021-08-04 01:32:08 GMT 48.567902 -51.736660 37,000 68 589 0
2021-08-04 01:31:57 GMT 48.557327 -51.776665 37,000 68 589 0
2021-08-04 01:31:47 GMT 48.546936 -51.815960 37,000 68 590 0
2021-08-04 01:31:36 GMT 48.536293 -51.856407 37,000 68 590 0
2021-08-04 01:31:27 GMT 48.526978 -51.891949 37,000 68 590 0
2021-08-04 01:31:17 GMT 48.517181 -51.929836 37,000 68 591 0
2021-08-04 01:31:07 GMT 48.507431 -51.968784 37,000 70 593 0
2021-08-04 01:30:57 GMT 48.497890 -52.008770 37,000 70 594 0
2021-08-04 01:30:47 GMT 48.488800 -52.046883 37,000 70 594 0
2021-08-04 01:30:37 GMT 48.479416 -52.086250 37,000 70 594 0
2021-08-04 01:30:26 GMT 48.469482 -52.127872 37,000 70 595 0
2021-08-04 01:30:17 GMT 48.460419 -52.165550 37,000 70 595 0
2021-08-04 01:30:07 GMT 48.451126 -52.204075 37,000 70 595 0
2021-08-04 01:29:57 GMT 48.441696 -52.243370 37,000 70 595 0
2021-08-04 01:29:47 GMT 48.432297 -52.282200 37,000 69 596 64
2021-08-04 01:29:36 GMT 48.422836 -52.321472 37,000 70 595 0
2021-08-04 01:29:24 GMT 48.411987 -52.366123 37,000 69 596 0
2021-08-04 01:29:17 GMT 48.404663 -52.396404 37,000 69 595 0
2021-08-04 01:29:15 GMT 48.403610 -52.400631 37,000 69 595 0
2021-08-04 01:29:06 GMT 48.394310 -52.439045 37,000 69 595 0
2021-08-04 01:28:56 GMT 48.385139 -52.476631 37,000 69 595 0
2021-08-04 01:28:46 GMT 48.375458 -52.516602 37,000 69 595 0
2021-08-04 01:28:36 GMT 48.365982 -52.555355 37,000 69 595 0
2021-08-04 01:28:26 GMT 48.356510 -52.594009 37,000 69 594 0
2021-08-04 01:28:16 GMT 48.346619 -52.634232 37,000 69 594 0
2021-08-04 01:28:07 GMT 48.338058 -52.669090 37,000 69 594 -64
2021-08-04 01:28:05 GMT 48.336723 -52.674458 37,000 69 594 -64
2021-08-04 01:27:56 GMT 48.327667 -52.711205 37,000 69 595 -64
2021-08-04 01:27:47 GMT 48.318832 -52.747192 37,000 69 596 0
2021-08-04 01:27:45 GMT 48.317688 -52.751839 37,000 69 596 0
2021-08-04 01:27:37 GMT 48.309586 -52.784729 37,000 69 596 0
2021-08-04 01:27:32 GMT 48.305649 -52.800575 37,000 69 596 0
2021-08-04 01:27:25 GMT 48.298504 -52.829567 37,000 69 595 0
2021-08-04 01:27:17 GMT 48.290077 -52.863537 37,000 69 595 64
2021-08-04 01:27:15 GMT 48.289055 -52.867802 37,000 69 595 64
2021-08-04 01:27:02 GMT 48.276859 -52.916805 37,000 69 594 0
2021-08-04 01:26:54 GMT 48.269176 -52.947670 37,000 69 594 0
2021-08-04 01:26:45 GMT 48.259682 -52.985832 37,000 69 595 0
2021-08-04 01:26:35 GMT 48.249893 -53.025162 37,000 69 595 0
2021-08-04 01:26:27 GMT 48.243622 -53.050232 37,000 69 595 0
2021-08-04 01:26:24 GMT 48.239662 -53.065990 37,000 69 595 64
2021-08-04 01:26:21 GMT 48.237076 -53.076431 37,000 69 595 0
2021-08-04 01:26:15 GMT 48.231007 -53.100681 37,000 69 595 64
2021-08-04 01:26:10 GMT 48.227142 -53.116150 37,000 69 595 64
2021-08-04 01:26:05 GMT 48.221146 -53.140022 37,000 69 596 64
2021-08-04 01:26:00 GMT 48.217087 -53.156193 37,000 69 596 64
2021-08-04 01:25:55 GMT 48.211166 -53.179745 37,000 69 596 0
2021-08-04 01:25:50 GMT 48.207550 -53.193970 37,000 69 596 0
2021-08-04 01:25:44 GMT 48.201508 -53.217915 37,000 69 596 0
2021-08-04 01:25:38 GMT 48.195484 -53.241840 37,000 69 597 -64
2021-08-04 01:25:34 GMT 48.191803 -53.256508 37,000 69 597 -64
2021-08-04 01:25:30 GMT 48.187618 -53.273067 37,000 69 597 -64
2021-08-04 01:25:24 GMT 48.181961 -53.295452 37,000 69 597 -64
2021-08-04 01:25:20 GMT 48.177475 -53.313202 37,000 69 597 -64
2021-08-04 01:25:14 GMT 48.172302 -53.333622 37,000 69 597 -64
2021-08-04 01:25:10 GMT 48.168392 -53.349102 37,000 69 597 -64
2021-08-04 01:25:04 GMT 48.162277 -53.373344 37,000 69 596 0
2021-08-04 01:24:59 GMT 48.157963 -53.390316 37,000 69 596 0
2021-08-04 01:24:54 GMT 48.152287 -53.412640 37,000 69 596 64
2021-08-04 01:24:49 GMT 48.148178 -53.428848 37,000 69 596 64
2021-08-04 01:24:43 GMT 48.141724 -53.454254 37,000 69 597 64
2021-08-04 01:24:40 GMT 48.138969 -53.465034 37,000 69 597 64
2021-08-04 01:24:33 GMT 48.131989 -53.492359 37,000 69 597 64
2021-08-04 01:24:27 GMT 48.126389 -53.514336 37,000 69 598 0
2021-08-04 01:24:24 GMT 48.122818 -53.528210 37,000 69 598 0
2021-08-04 01:24:19 GMT 48.118103 -53.546677 37,000 69 598 0
2021-08-04 01:24:14 GMT 48.113068 -53.566383 37,000 69 598 0
2021-08-04 01:24:07 GMT 48.106850 -53.590675 37,000 69 598 0
2021-08-04 01:24:04 GMT 48.102905 -53.606071 37,000 69 598 0
2021-08-04 01:23:59 GMT 48.098190 -53.624611 37,000 69 598 0
2021-08-04 01:23:53 GMT 48.092743 -53.645760 37,000 69 598 0
2021-08-04 01:23:44 GMT 48.082993 -53.683937 37,000 69 598 0
2021-08-04 01:23:33 GMT 48.072681 -53.723991 37,000 68 598 0
2021-08-04 01:23:23 GMT 48.063034 -53.761322 37,000 68 598 0
2021-08-04 01:23:13 GMT 48.053146 -53.799362 37,000 68 598 0
2021-08-04 01:23:03 GMT 48.042892 -53.838982 37,000 68 598 0
2021-08-04 01:22:52 GMT 48.032547 -53.878944 37,000 68 599 -64
2021-08-04 01:22:43 GMT 48.023071 -53.915474 37,000 68 599 0
2021-08-04 01:22:33 GMT 48.012817 -53.955093 37,000 68 599 0
2021-08-04 01:22:23 GMT 48.002808 -53.993576 37,000 68 599 0
2021-08-04 01:22:13 GMT 47.992584 -54.032753 37,000 68 598 0
2021-08-04 01:22:03 GMT 47.982368 -54.071892 37,000 68 598 0
2021-08-04 01:21:53 GMT 47.972733 -54.108791 37,000 68 599 0
2021-08-04 01:21:43 GMT 47.962463 -54.147903 37,000 68 599 0
2021-08-04 01:21:33 GMT 47.952301 -54.186562 37,000 68 598 0
2021-08-04 01:21:21 GMT 47.941589 -54.227177 37,000 68 598 0
2021-08-04 01:21:12 GMT 47.931656 -54.264702 37,000 68 599 -64
2021-08-04 01:21:01 GMT 47.921154 -54.304577 37,000 68 599 0
2021-08-04 01:20:52 GMT 47.911331 -54.341759 37,000 68 599 64
2021-08-04 01:20:42 GMT 47.900948 -54.380844 37,000 68 599 64
2021-08-04 01:20:32 GMT 47.890823 -54.419128 37,000 68 599 64
2021-08-04 01:20:22 GMT 47.880653 -54.457397 37,000 68 599 0
2021-08-04 01:20:12 GMT 47.870365 -54.496059 37,000 68 600 -64
2021-08-04 01:20:02 GMT 47.860291 -54.534004 37,000 68 600 0
2021-08-04 01:19:51 GMT 47.848530 -54.577965 37,000 68 599 -64
2021-08-04 01:19:42 GMT 47.839546 -54.611629 37,000 68 599 -64
2021-08-04 01:19:32 GMT 47.829300 -54.649841 37,000 68 599 0
2021-08-04 01:19:21 GMT 47.818645 -54.689518 37,000 68 599 0
2021-08-04 01:19:11 GMT 47.808266 -54.728111 37,000 68 599 0
2021-08-04 01:19:01 GMT 47.797882 -54.766636 37,000 68 599 0
2021-08-04 01:18:51 GMT 47.787506 -54.805161 37,000 68 599 0
2021-08-04 01:18:41 GMT 47.776886 -54.844505 37,000 68 599 0
2021-08-04 01:18:31 GMT 47.766785 -54.881851 37,000 68 599 0
2021-08-04 01:18:21 GMT 47.756058 -54.921478 37,000 68 599 0
2021-08-04 01:18:10 GMT 47.745090 -54.961853 37,000 68 599 0
2021-08-04 01:17:08 GMT 47.681076 -55.196411 37,000 67 598 0
2021-08-04 01:16:59 GMT 47.671818 -55.230171 37,000 67 598 0
2021-08-04 01:16:50 GMT 47.661804 -55.266518 37,000 67 598 0
2021-08-04 01:16:36 GMT 47.646973 -55.320213 37,000 67 597 0
2021-08-04 01:16:29 GMT 47.640518 -55.343628 37,000 67 597 64
2021-08-04 01:16:20 GMT 47.630386 -55.380318 37,000 67 596 0
2021-08-04 01:16:10 GMT 47.619919 -55.417992 37,000 67 596 0
2021-08-04 01:16:00 GMT 47.609619 -55.455345 37,000 67 596 0
2021-08-04 01:15:49 GMT 47.598450 -55.495651 37,000 67 596 0
2021-08-04 01:15:37 GMT 47.586868 -55.537468 37,000 67 595 0
2021-08-04 01:15:29 GMT 47.577553 -55.570961 37,000 67 595 0
2021-08-04 01:15:17 GMT 47.564934 -55.616104 37,000 67 595 0
2021-08-04 01:15:09 GMT 47.556557 -55.646175 37,000 67 596 0
2021-08-04 01:14:58 GMT 47.544983 -55.687569 37,000 67 596 0
2021-08-04 01:14:49 GMT 47.535282 -55.722092 37,000 67 596 0
2021-08-04 01:14:39 GMT 47.524620 -55.760052 37,000 67 596 0
2021-08-04 01:14:29 GMT 47.514038 -55.797569 37,000 67 595 0
2021-08-04 01:14:17 GMT 47.502602 -55.838081 37,000 67 595 0
2021-08-04 01:13:24 GMT 47.445763 -56.038864 37,000 67 596 0
2021-08-04 01:13:18 GMT 47.439384 -56.061333 37,000 67 596 0
2021-08-04 01:13:09 GMT 47.429607 -56.095768 37,000 67 595 0
2021-08-04 01:12:59 GMT 47.418854 -56.133518 37,000 67 595 0
2021-08-04 01:12:47 GMT 47.406464 -56.176804 37,000 67 596 0
2021-08-04 01:12:39 GMT 47.397255 -56.208942 37,000 67 595 0
2021-08-04 01:12:29 GMT 47.386036 -56.248028 37,000 67 595 0
2021-08-04 01:12:18 GMT 47.375198 -56.285637 37,000 67 594 0
2021-08-04 01:12:09 GMT 47.364624 -56.322441 37,000 67 593 0
2021-08-04 01:11:59 GMT 47.353958 -56.359653 37,000 66 593 0
2021-08-04 01:11:46 GMT 47.341438 -56.403034 37,000 66 593 0
2021-08-04 01:11:38 GMT 47.332409 -56.434231 37,000 66 593 0
2021-08-04 01:11:28 GMT 47.321503 -56.471992 37,000 66 592 0
2021-08-04 01:11:18 GMT 47.310993 -56.508247 37,000 66 592 0
2021-08-04 01:11:08 GMT 47.300079 -56.546013 37,000 66 591 0
2021-08-04 01:10:58 GMT 47.289047 -56.584053 37,000 66 591 0
2021-08-04 01:10:48 GMT 47.278198 -56.621338 37,000 66 591 0
2021-08-04 01:10:38 GMT 47.267349 -56.658623 37,000 66 591 0
2021-08-04 01:10:12 GMT 47.241119 -56.748573 37,000 66 590 0
2021-08-04 01:10:07 GMT 47.234741 -56.770302 37,000 66 591 0
2021-08-04 01:09:57 GMT 47.223614 -56.808262 37,000 66 591 0
2021-08-04 01:09:05 GMT 47.167240 -56.999535 37,000 66 589 0
2021-08-04 01:08:55 GMT 47.156158 -57.036896 37,000 66 589 0
2021-08-04 01:08:45 GMT 47.145405 -57.073200 37,000 66 589 0
2021-08-04 01:08:35 GMT 47.134140 -57.111259 37,000 66 589 0
2021-08-04 01:08:11 GMT 47.109653 -57.193558 37,000 66 590 0
2021-08-04 01:08:03 GMT 47.101181 -57.222080 37,000 66 590 -64
2021-08-04 01:07:53 GMT 47.089916 -57.259754 36,975 66 589 -64
2021-08-04 01:07:44 GMT 47.079208 -57.295555 37,000 66 589 0
2021-08-04 01:07:33 GMT 47.067719 -57.333870 37,000 66 589 64
2021-08-04 01:07:24 GMT 47.057144 -57.369232 37,000 66 589 0
2021-08-04 01:07:12 GMT 47.045197 -57.408989 37,000 66 589 0
2021-08-04 01:07:03 GMT 47.034897 -57.443253 37,000 66 589 0
2021-08-04 01:06:52 GMT 47.022903 -57.482941 37,000 66 589 0
2021-08-04 01:06:43 GMT 47.012238 -57.518234 37,000 66 589 0
2021-08-04 01:06:23 GMT 46.991226 -57.587723 37,000 66 588 0
2021-08-04 01:06:20 GMT 46.986969 -57.601868 37,000 66 588 0
2021-08-04 01:06:12 GMT 46.978043 -57.631325 37,000 66 588 0
2021-08-04 01:06:02 GMT 46.967102 -57.667305 36,975 65 589 0
2021-08-04 01:05:28 GMT 46.930149 -57.788509 37,000 65 589 0
2021-08-04 01:04:54 GMT 46.892166 -57.912781 37,000 65 588 0
2021-08-04 01:04:49 GMT 46.886490 -57.931252 37,000 65 589 0
2021-08-04 01:04:05 GMT 46.838013 -58.088737 37,000 65 590 0
2021-08-04 01:03:57 GMT 46.828899 -58.118088 37,000 65 591 0
2021-08-04 01:02:11 GMT 46.709770 -58.500549 37,000 65 593 0
2021-08-04 01:02:03 GMT 46.699631 -58.532810 37,000 65 593 0
2021-08-04 01:00:52 GMT 46.618011 -58.791058 37,000 65 592 0
2021-08-04 01:00:06 GMT 46.565598 -58.955448 37,000 65 592 0
2021-08-04 00:58:25 GMT 46.446751 -59.324524 37,000 64 591 0
2021-08-04 00:57:36 GMT 46.391075 -59.495567 37,000 64 592 0
2021-08-04 00:57:24 GMT 46.375854 -59.542080 37,000 64 592 0
2021-08-04 00:56:59 GMT 46.345825 -59.633583 37,000 64 593 0
2021-08-04 00:56:49 GMT 46.335526 -59.665073 37,000 64 593 0
2021-08-04 00:56:27 GMT 46.309235 -59.745094 37,000 64 594 0
2021-08-04 00:55:58 GMT 46.269516 -59.865505 37,000 64 593 0
2021-08-04 00:55:31 GMT 46.243595 -59.943604 37,000 64 593 0
2021-08-04 00:55:20 GMT 46.230423 -59.983223 37,000 64 593 0
2021-08-04 00:54:55 GMT 46.200714 -60.072235 37,000 64 593 0
2021-08-04 00:54:42 GMT 46.185287 -60.118595 37,000 64 593 0
2021-08-04 00:54:38 GMT 46.180752 -60.132088 37,000 64 593 0
2021-08-04 00:54:32 GMT 46.172791 -60.155907 37,000 64 593 0
2021-08-04 00:54:27 GMT 46.168854 -60.167698 37,000 64 593 0
2021-08-04 00:54:21 GMT 46.160156 -60.193623 37,000 64 593 0
2021-08-04 00:54:18 GMT 46.156544 -60.204323 37,000 64 593 0
2021-08-04 00:54:10 GMT 46.147614 -60.231003 37,000 64 594 64
2021-08-04 00:54:07 GMT 46.144718 -60.239548 37,000 64 594 64
2021-08-04 00:54:02 GMT 46.137222 -60.261887 37,000 64 594 64
2021-08-04 00:53:57 GMT 46.132198 -60.276833 37,000 64 594 64
2021-08-04 00:53:51 GMT 46.125137 -60.297791 37,000 64 594 0
2021-08-04 00:53:46 GMT 46.118881 -60.316246 37,000 64 594 0
2021-08-04 00:53:35 GMT 46.106548 -60.352844 37,000 64 593 0
2021-08-04 00:53:26 GMT 46.095142 -60.386559 37,000 64 593 0
2021-08-04 00:53:17 GMT 46.083969 -60.419586 37,000 64 593 0
2021-08-04 00:53:13 GMT 46.079132 -60.433716 37,000 64 593 0
2021-08-04 00:53:07 GMT 46.073273 -60.451134 37,000 64 593 0
2021-08-04 00:53:04 GMT 46.069397 -60.462433 37,000 64 593 0
2021-08-04 00:52:58 GMT 46.060272 -60.489349 37,000 64 593 0
2021-08-04 00:52:51 GMT 46.052948 -60.510956 37,000 64 593 0
2021-08-04 00:52:44 GMT 46.044910 -60.534668 37,000 63 593 0
2021-08-04 00:52:33 GMT 46.032295 -60.571815 37,000 64 593 0
2021-08-04 00:52:25 GMT 46.021820 -60.602596 37,000 64 593 0
2021-08-04 00:52:21 GMT 46.015594 -60.621017 37,000 64 593 0
2021-08-04 00:52:09 GMT 46.002316 -60.659912 37,000 63 593 0
2021-08-04 00:52:02 GMT 45.994495 -60.682915 37,000 63 593 0
2021-08-04 00:51:52 GMT 45.982811 -60.717178 37,000 63 593 0
2021-08-04 00:51:40 GMT 45.967121 -60.763046 37,000 63 593 0
2021-08-04 00:51:31 GMT 45.956322 -60.794495 37,000 63 593 0
2021-08-04 00:51:24 GMT 45.946777 -60.822372 37,000 63 593 0
2021-08-04 00:51:18 GMT 45.940704 -60.840008 37,000 63 594 0
2021-08-04 00:51:08 GMT 45.928577 -60.875244 37,000 63 593 0
2021-08-04 00:51:00 GMT 45.918846 -60.903397 37,000 63 593 0
2021-08-04 00:50:49 GMT 45.906559 -60.938965 37,000 63 593 0
2021-08-04 00:50:40 GMT 45.892456 -60.979816 37,000 63 593 0
2021-08-04 00:50:29 GMT 45.879700 -61.016693 37,000 63 593 0
2021-08-04 00:50:11 GMT 45.857166 -61.081718 37,000 63 593 0
2021-08-04 00:50:07 GMT 45.853397 -61.092636 37,000 63 593 0
2021-08-04 00:49:57 GMT 45.843246 -61.121819 37,000 63 593 0
2021-08-04 00:49:20 GMT 45.796600 -61.255852 37,000 63 593 0
2021-08-04 00:49:15 GMT 45.791702 -61.269882 37,000 63 593 0
2021-08-04 00:49:11 GMT 45.785427 -61.287712 37,000 63 593 0
2021-08-04 00:49:04 GMT 45.777142 -61.311539 37,000 63 593 0
2021-08-04 00:48:51 GMT 45.761581 -61.356030 37,000 63 593 0
2021-08-04 00:48:44 GMT 45.753571 -61.378807 37,000 63 593 0
2021-08-04 00:48:34 GMT 45.741440 -61.413441 37,000 63 593 0
2021-08-04 00:48:19 GMT 45.723221 -61.465157 37,000 63 593 0
2021-08-04 00:48:14 GMT 45.716446 -61.484383 37,000 63 593 0
2021-08-04 00:48:04 GMT 45.703125 -61.522099 37,000 63 593 0
2021-08-04 00:47:53 GMT 45.690414 -61.558113 37,000 63 593 0
2021-08-04 00:47:40 GMT 45.673965 -61.604561 37,000 63 593 0
2021-08-04 00:47:33 GMT 45.664951 -61.630074 37,000 63 593 0
2021-08-04 00:47:30 GMT 45.662476 -61.637051 37,000 63 593 0
2021-08-04 00:47:20 GMT 45.650101 -61.671959 37,000 63 593 0
2021-08-04 00:47:07 GMT 45.626312 -61.739010 37,000 63 593 0
2021-08-04 00:47:02 GMT 45.626312 -61.739010 37,000 63 593 0
2021-08-04 00:46:51 GMT 45.613419 -61.775299 37,000 63 594 0
2021-08-04 00:46:40 GMT 45.599129 -61.815399 37,000 63 594 0
2021-08-04 00:46:34 GMT 45.593170 -61.832127 37,000 63 594 0
2021-08-04 00:46:30 GMT 45.587673 -61.847466 37,000 63 594 0
2021-08-04 00:46:25 GMT 45.581951 -61.863533 37,000 63 594 0
2021-08-04 00:46:19 GMT 45.574219 -61.885117 37,000 63 594 0
2021-08-04 00:46:15 GMT 45.569519 -61.898346 37,000 63 594 0
2021-08-04 00:46:09 GMT 45.560806 -61.922764 37,000 62 593 0
2021-08-04 00:46:06 GMT 45.557556 -61.931808 37,000 62 593 0
2021-08-04 00:45:59 GMT 45.548664 -61.956505 37,000 62 593 0
2021-08-04 00:45:55 GMT 45.544289 -61.968719 37,000 62 593 0
2021-08-04 00:45:48 GMT 45.535950 -61.991989 37,000 62 594 0
2021-08-04 00:45:45 GMT 45.531441 -62.004559 37,000 62 594 0
2021-08-04 00:45:39 GMT 45.523041 -62.027828 37,000 62 594 0
2021-08-04 00:45:36 GMT 45.519150 -62.038616 37,000 62 594 0
2021-08-04 00:45:26 GMT 45.506908 -62.072685 37,000 62 594 0
2021-08-04 00:45:15 GMT 45.494522 -62.107086 37,000 62 594 0
2021-08-04 00:45:06 GMT 45.482346 -62.140766 37,000 62 594 0
2021-08-04 00:44:54 GMT 45.469482 -62.176537 37,000 62 594 0
2021-08-04 00:44:51 GMT 45.464218 -62.191120 37,000 62 593 0
2021-08-04 00:44:44 GMT 45.456573 -62.212242 37,000 62 593 0
2021-08-04 00:44:35 GMT 45.443893 -62.247292 37,000 62 593 0
2021-08-04 00:44:24 GMT 45.431355 -62.281895 37,000 62 593 0
2021-08-04 00:44:15 GMT 45.417759 -62.319344 37,000 62 594 0
2021-08-04 00:44:04 GMT 45.404026 -62.357059 37,000 62 594 0
2021-08-04 00:43:55 GMT 45.392578 -62.388546 37,000 62 594 0
2021-08-04 00:43:50 GMT 45.387177 -62.403416 37,000 62 593 0
2021-08-04 00:43:45 GMT 45.380859 -62.420719 37,000 62 593 0
2021-08-04 00:43:43 GMT 45.378983 -62.425922 37,000 62 593 0
2021-08-04 00:43:38 GMT 45.372139 -62.444546 37,000 62 593 0
2021-08-04 00:43:34 GMT 45.367718 -62.456673 37,000 62 593 0
2021-08-04 00:43:28 GMT 45.358292 -62.482517 37,000 62 592 0
2021-08-04 00:43:25 GMT 45.355240 -62.490837 37,000 62 592 0
2021-08-04 00:43:23 GMT 45.352615 -62.498081 37,000 62 592 0
2021-08-04 00:43:19 GMT 45.348072 -62.510464 37,000 62 592 0
2021-08-04 00:43:15 GMT 45.343136 -62.523930 37,000 62 592 0
2021-08-04 00:43:08 GMT 45.334442 -62.547714 37,000 62 593 0
2021-08-04 00:43:05 GMT 45.330139 -62.559422 37,000 62 593 0
2021-08-04 00:43:02 GMT 45.326469 -62.569416 37,000 62 593 0
2021-08-04 00:42:59 GMT 45.321899 -62.581852 37,000 62 593 0
2021-08-04 00:42:55 GMT 45.317348 -62.594269 37,000 62 593 0
2021-08-04 00:42:52 GMT 45.314072 -62.603237 37,000 62 593 0
2021-08-04 00:42:45 GMT 45.304916 -62.628021 37,000 62 593 0
2021-08-04 00:42:41 GMT 45.299843 -62.641830 37,000 62 593 0
2021-08-04 00:42:35 GMT 45.291512 -62.664543 37,000 62 593 0
2021-08-04 00:42:28 GMT 45.282486 -62.689034 37,000 62 593 0
2021-08-04 00:42:25 GMT 45.278709 -62.699375 37,000 62 593 0
2021-08-04 00:42:19 GMT 45.272095 -62.717285 37,000 62 593 0
2021-08-04 00:42:16 GMT 45.269073 -62.725502 37,000 62 593 0
2021-08-04 00:42:11 GMT 45.259552 -62.751354 37,000 62 593 0
2021-08-04 00:42:04 GMT 45.253475 -62.767841 37,000 62 593 0
2021-08-04 00:41:54 GMT 45.241013 -62.801514 37,000 62 593 0
2021-08-04 00:41:49 GMT 45.234512 -62.819038 37,000 62 592 0
2021-08-04 00:41:44 GMT 45.228058 -62.836571 37,000 62 592 0
2021-08-04 00:41:38 GMT 45.219402 -62.859951 37,000 62 592 0
2021-08-04 00:41:34 GMT 45.215057 -62.871616 37,000 62 592 0
2021-08-04 00:41:24 GMT 45.202744 -62.904903 37,000 62 592 0
2021-08-04 00:41:14 GMT 45.189468 -62.940540 37,000 62 592 0
2021-08-04 00:41:08 GMT 45.181973 -62.960705 37,000 62 592 0
2021-08-04 00:41:04 GMT 45.176620 -62.975105 37,000 62 592 0
2021-08-04 00:40:54 GMT 45.163723 -63.009674 37,000 62 592 0
2021-08-04 00:40:44 GMT 45.150829 -63.044239 37,000 62 592 0
2021-08-04 00:40:33 GMT 45.136780 -63.081795 37,000 62 592 0
2021-08-04 00:40:24 GMT 45.125179 -63.112904 37,000 62 591 0
2021-08-04 00:40:14 GMT 45.112518 -63.146667 37,000 62 591 0
2021-08-04 00:40:03 GMT 45.099014 -63.182896 37,000 62 591 0
2021-08-04 00:39:56 GMT 45.089378 -63.208431 37,000 62 591 0
2021-08-04 00:39:52 GMT 45.085423 -63.219017 37,000 62 591 0
2021-08-04 00:39:43 GMT 45.072601 -63.253132 37,000 62 591 0
2021-08-04 00:39:35 GMT 45.062897 -63.279026 37,000 61 591 0
2021-08-04 00:39:31 GMT 45.058517 -63.290562 37,000 61 591 0
2021-08-04 00:39:22 GMT 45.046085 -63.323589 37,000 61 591 0
2021-08-04 00:39:12 GMT 45.032730 -63.359005 37,000 61 591 0
2021-08-04 00:39:03 GMT 45.022301 -63.386559 37,000 61 591 0
2021-08-04 00:39:01 GMT 45.019730 -63.393337 37,000 61 591 0
2021-08-04 00:38:53 GMT 45.008698 -63.422569 37,000 61 591 0
2021-08-04 00:38:50 GMT 45.005585 -63.430702 37,000 61 591 0
2021-08-04 00:38:43 GMT 44.995811 -63.456493 37,000 61 591 0
2021-08-04 00:38:38 GMT 44.989380 -63.473446 37,000 61 590 0
2021-08-04 00:38:33 GMT 44.982971 -63.490383 37,000 61 590 0
2021-08-04 00:38:30 GMT 44.979752 -63.498901 37,000 61 590 0
2021-08-04 00:38:23 GMT 44.970612 -63.522949 37,000 61 589 0
2021-08-04 00:38:19 GMT 44.965969 -63.535141 37,000 61 589 0
2021-08-04 00:38:12 GMT 44.956707 -63.559525 37,000 61 589 0
2021-08-04 00:38:09 GMT 44.953495 -63.567966 37,000 61 589 0
2021-08-04 00:38:02 GMT 44.944107 -63.592724 37,000 61 589 0
2021-08-04 00:37:59 GMT 44.940273 -63.602867 37,000 61 590 0
2021-08-04 00:37:51 GMT 44.928822 -63.632946 37,000 61 590 0
2021-08-04 00:37:48 GMT 44.926208 -63.639744 37,000 61 590 0
2021-08-04 00:37:43 GMT 44.918381 -63.660408 37,000 61 590 0
2021-08-04 00:37:38 GMT 44.913227 -63.673943 37,000 61 590 0
2021-08-04 00:37:33 GMT 44.905334 -63.694546 37,000 61 590 0
2021-08-04 00:37:28 GMT 44.898743 -63.711807 37,000 61 590 0
2021-08-04 00:37:22 GMT 44.892014 -63.729336 37,000 61 590 0
2021-08-04 00:37:18 GMT 44.886978 -63.742546 37,000 61 590 0
2021-08-04 00:37:12 GMT 44.879616 -63.761768 37,000 61 589 0
2021-08-04 00:37:08 GMT 44.873657 -63.777271 37,000 61 589 0
2021-08-04 00:37:02 GMT 44.866562 -63.795841 37,000 61 589 0
2021-08-04 00:36:58 GMT 44.860107 -63.812714 37,000 61 589 0
2021-08-04 00:36:52 GMT 44.853642 -63.829563 37,000 61 589 0
2021-08-04 00:36:47 GMT 44.846924 -63.847046 37,000 61 589 0
2021-08-04 00:36:42 GMT 44.841118 -63.862251 37,000 61 589 0
2021-08-04 00:36:36 GMT 44.833054 -63.883080 37,000 61 588 0
2021-08-04 00:36:32 GMT 44.827240 -63.898251 37,000 61 588 0
2021-08-04 00:36:27 GMT 44.819962 -63.917084 37,000 61 589 0
2021-08-04 00:36:22 GMT 44.814423 -63.931538 37,000 61 589 0
2021-08-04 00:36:16 GMT 44.806870 -63.951088 37,000 61 589 0
2021-08-04 00:36:12 GMT 44.801056 -63.966194 37,000 61 589 0
2021-08-04 00:36:05 GMT 44.792889 -63.987389 37,000 61 589 0
2021-08-04 00:36:01 GMT 44.786911 -64.002815 37,000 61 589 0
2021-08-04 00:35:56 GMT 44.779484 -64.021957 37,000 61 588 0
2021-08-04 00:35:50 GMT 44.772591 -64.039711 37,000 61 588 0
2021-08-04 00:35:45 GMT 44.765991 -64.056831 37,000 61 588 0
2021-08-04 00:35:40 GMT 44.759464 -64.073608 37,000 61 588 0
2021-08-04 00:35:35 GMT 44.753132 -64.090019 37,000 61 588 0
2021-08-04 00:35:32 GMT 44.749363 -64.099731 37,000 61 588 0
2021-08-04 00:35:25 GMT 44.739727 -64.124519 37,000 61 588 0
2021-08-04 00:35:21 GMT 44.734543 -64.137924 37,000 61 587 0
2021-08-04 00:35:12 GMT 44.722733 -64.168327 37,000 61 588 0
2021-08-04 00:35:01 GMT 44.709187 -64.203094 37,000 61 588 0
2021-08-04 00:34:51 GMT 44.696571 -64.235519 37,000 61 588 0
2021-08-04 00:34:42 GMT 44.684189 -64.267273 37,000 61 587 0
2021-08-04 00:34:32 GMT 44.670784 -64.301636 37,000 61 587 0
2021-08-04 00:34:22 GMT 44.657364 -64.336006 37,000 61 587 0
2021-08-04 00:34:11 GMT 44.644295 -64.369362 37,000 61 587 0
2021-08-04 00:34:01 GMT 44.630997 -64.403358 37,000 61 587 0
2021-08-04 00:33:51 GMT 44.617859 -64.436974 37,000 61 587 0
2021-08-04 00:33:41 GMT 44.605179 -64.469276 37,000 61 586 0
2021-08-04 00:33:30 GMT 44.591084 -64.505157 37,000 61 586 0
2021-08-04 00:33:21 GMT 44.577850 -64.538727 37,000 61 586 0
2021-08-04 00:33:10 GMT 44.564224 -64.573280 37,000 61 585 0
2021-08-04 00:33:01 GMT 44.553101 -64.601486 37,000 61 586 0
2021-08-04 00:32:58 GMT 44.548370 -64.613411 37,000 61 586 0
2021-08-04 00:32:48 GMT 44.534637 -64.648201 37,000 61 586 0
2021-08-04 00:32:40 GMT 44.523491 -64.676376 37,000 61 586 0
2021-08-04 00:32:31 GMT 44.513397 -64.701889 37,000 61 586 0
2021-08-04 00:32:29 GMT 44.510880 -64.708168 37,000 60 585 0
2021-08-04 00:32:21 GMT 44.499748 -64.736336 37,000 60 585 0
2021-08-04 00:32:18 GMT 44.496597 -64.744263 37,000 60 585 0
2021-08-04 00:32:09 GMT 44.482944 -64.778603 37,000 60 585 0
2021-08-04 00:32:00 GMT 44.473846 -64.801414 37,000 60 585 0
2021-08-04 00:31:57 GMT 44.469398 -64.812637 37,000 60 584 0
2021-08-04 00:31:50 GMT 44.460461 -64.835075 37,000 60 584 0
2021-08-04 00:31:47 GMT 44.456268 -64.845627 37,000 60 584 0
2021-08-04 00:31:44 GMT 44.452312 -64.855507 37,000 60 584 0
2021-08-04 00:31:41 GMT 44.447983 -64.866432 37,000 60 584 0
2021-08-04 00:31:36 GMT 44.439976 -64.886528 37,000 60 584 0
2021-08-04 00:31:31 GMT 44.434067 -64.901344 37,000 60 584 0
2021-08-04 00:31:28 GMT 44.429455 -64.912918 37,000 60 584 0
2021-08-04 00:31:21 GMT 44.421982 -64.931686 37,000 60 585 0
2021-08-04 00:31:17 GMT 44.415665 -64.947441 37,000 60 585 0
2021-08-04 00:31:11 GMT 44.408321 -64.965912 37,000 60 584 0
2021-08-04 00:31:06 GMT 44.402252 -64.981056 37,000 60 584 0
2021-08-04 00:31:01 GMT 44.395157 -64.998779 37,000 60 584 0
2021-08-04 00:30:57 GMT 44.388817 -65.014542 37,000 60 584 0
2021-08-04 00:30:53 GMT 44.384857 -65.024414 37,000 60 584 0
2021-08-04 00:30:50 GMT 44.380669 -65.034912 37,000 60 584 0
2021-08-04 00:30:45 GMT 44.374756 -65.049713 37,000 60 583 0
2021-08-04 00:30:41 GMT 44.368011 -65.066460 37,000 60 583 0
2021-08-04 00:30:34 GMT 44.360229 -65.085754 37,000 60 583 0
2021-08-04 00:30:30 GMT 44.354324 -65.100533 37,000 60 583 0
2021-08-04 00:30:23 GMT 44.345856 -65.121529 37,000 60 583 0
2021-08-04 00:30:20 GMT 44.341782 -65.131660 37,000 60 583 0
2021-08-04 00:30:14 GMT 44.333977 -65.151001 37,000 60 583 0
2021-08-04 00:30:09 GMT 44.327507 -65.167084 37,000 60 583 0
2021-08-04 00:30:03 GMT 44.319592 -65.186707 37,000 60 583 0
2021-08-04 00:30:00 GMT 44.314472 -65.199501 37,000 60 583 0
2021-08-04 00:29:53 GMT 44.306122 -65.220139 37,000 60 583 0
2021-08-04 00:29:50 GMT 44.301773 -65.230934 37,000 60 583 0
2021-08-04 00:29:44 GMT 44.292252 -65.254539 37,000 60 583 0
2021-08-04 00:29:40 GMT 44.288029 -65.265022 37,000 60 583 0
2021-08-04 00:29:33 GMT 44.278488 -65.288536 37,000 60 584 0
2021-08-04 00:29:29 GMT 44.274391 -65.298645 37,000 60 583 0
2021-08-04 00:29:23 GMT 44.265381 -65.320915 37,000 60 584 0
2021-08-04 00:29:20 GMT 44.261681 -65.330063 37,000 60 583 0
2021-08-04 00:29:13 GMT 44.250961 -65.356552 37,000 60 583 0
2021-08-04 00:29:10 GMT 44.248672 -65.362114 37,000 60 583 0
2021-08-04 00:29:02 GMT 44.237778 -65.388863 37,000 60 583 0
2021-08-04 00:28:59 GMT 44.234482 -65.397034 37,000 60 583 0
2021-08-04 00:28:53 GMT 44.225323 -65.419563 37,000 60 583 0
2021-08-04 00:28:50 GMT 44.222111 -65.427399 37,000 60 583 0
2021-08-04 00:28:40 GMT 44.208145 -65.461632 37,000 60 583 0
2021-08-04 00:28:30 GMT 44.194611 -65.494926 37,000 60 583 0
2021-08-04 00:28:20 GMT 44.181976 -65.525909 37,000 60 583 0
2021-08-04 00:28:09 GMT 44.167088 -65.562416 37,000 60 583 0
2021-08-04 00:28:00 GMT 44.154427 -65.593346 37,000 60 583 0
2021-08-04 00:27:50 GMT 44.140869 -65.626579 37,000 60 583 0
2021-08-04 00:27:39 GMT 44.127983 -65.658089 37,000 60 583 0
2021-08-04 00:27:29 GMT 44.114017 -65.692223 37,000 60 583 0
2021-08-04 00:27:18 GMT 44.099541 -65.727669 37,000 60 583 0
2021-08-04 00:27:09 GMT 44.086319 -65.759842 37,000 60 583 0
2021-08-04 00:26:59 GMT 44.072212 -65.794243 37,000 60 583 0
2021-08-04 00:26:48 GMT 44.059479 -65.825417 37,000 60 582 0
2021-08-04 00:26:44 GMT 44.055176 -65.835770 37,000 60 582 0
2021-08-04 00:26:38 GMT 44.045353 -65.859764 37,000 60 582 0
2021-08-04 00:26:27 GMT 44.032181 -65.891876 37,000 60 582 0
2021-08-04 00:26:19 GMT 44.020294 -65.920715 37,000 60 582 0
2021-08-04 00:26:15 GMT 44.016304 -65.930397 37,000 60 582 0
2021-08-04 00:26:09 GMT 44.006714 -65.953743 37,000 60 582 0
2021-08-04 00:26:07 GMT 44.004044 -65.960190 37,000 60 582 0
2021-08-04 00:25:59 GMT 43.993542 -65.985786 37,000 60 581 0
2021-08-04 00:25:55 GMT 43.989395 -65.995789 37,000 60 581 0
2021-08-04 00:25:47 GMT 43.979141 -66.020676 37,000 60 581 0
2021-08-04 00:25:45 GMT 43.976486 -66.027191 37,000 60 581 0
2021-08-04 00:25:37 GMT 43.964493 -66.056282 37,000 60 581 0
2021-08-04 00:25:34 GMT 43.960602 -66.065643 37,000 60 581 0
2021-08-04 00:25:28 GMT 43.952763 -66.084663 37,000 60 581 0
2021-08-04 00:25:24 GMT 43.948620 -66.094734 37,000 60 581 0
2021-08-04 00:25:18 GMT 43.939407 -66.116997 37,000 60 581 0
2021-08-04 00:25:16 GMT 43.937027 -66.122810 37,000 60 581 0
2021-08-04 00:25:12 GMT 43.931808 -66.135399 37,000 60 580 0
2021-08-04 00:25:08 GMT 43.925808 -66.149857 37,000 60 580 0
2021-08-04 00:25:06 GMT 43.922596 -66.157639 37,000 60 580 0
2021-08-04 00:25:03 GMT 43.919678 -66.164711 37,000 60 580 0
2021-08-04 00:24:58 GMT 43.911934 -66.183403 37,000 60 580 0
2021-08-04 00:24:55 GMT 43.909241 -66.189819 37,000 60 580 0
2021-08-04 00:24:52 GMT 43.905231 -66.199493 37,000 60 581 0
2021-08-04 00:24:45 GMT 43.895462 -66.223030 37,000 60 581 0
2021-08-04 00:24:38 GMT 43.885166 -66.247757 37,000 60 580 0
2021-08-04 00:24:33 GMT 43.879807 -66.260651 37,000 60 580 0
2021-08-04 00:24:27 GMT 43.871620 -66.280258 37,000 59 581 0
2021-08-04 00:24:25 GMT 43.867722 -66.289520 37,000 59 581 0
2021-08-04 00:24:22 GMT 43.865009 -66.295952 37,000 59 581 0
2021-08-04 00:24:13 GMT 43.851135 -66.329041 37,000 59 580 0
2021-08-04 00:24:05 GMT 43.842957 -66.348610 37,000 59 580 0
2021-08-04 00:24:02 GMT 43.837418 -66.361702 37,000 59 580 0
2021-08-04 00:23:54 GMT 43.825672 -66.389595 37,000 59 580 0
2021-08-04 00:23:47 GMT 43.817806 -66.408165 37,000 59 580 0
2021-08-04 00:23:45 GMT 43.813751 -66.417717 37,000 59 580 0
2021-08-04 00:23:40 GMT 43.808167 -66.430878 37,000 59 580 0
2021-08-04 00:23:34 GMT 43.800156 -66.449722 37,000 59 580 0
2021-08-04 00:23:30 GMT 43.794857 -66.462120 37,000 59 580 0
2021-08-04 00:23:23 GMT 43.784042 -66.487343 37,000 59 581 0
2021-08-04 00:23:20 GMT 43.781170 -66.494034 37,000 59 580 0
2021-08-04 00:23:11 GMT 43.767574 -66.525551 37,000 59 580 0
2021-08-04 00:23:02 GMT 43.756439 -66.551277 37,000 59 580 0
2021-08-04 00:22:59 GMT 43.752258 -66.560799 37,000 59 580 0
2021-08-04 00:22:52 GMT 43.741333 -66.585838 37,000 58 581 0
2021-08-04 00:22:47 GMT 43.735931 -66.598160 37,000 58 580 0
2021-08-04 00:22:39 GMT 43.723351 -66.626587 37,000 58 580 0
2021-08-04 00:22:32 GMT 43.714691 -66.646202 37,000 58 580 0
2021-08-04 00:22:28 GMT 43.709106 -66.658775 37,000 58 580 0
2021-08-04 00:22:21 GMT 43.698261 -66.683022 37,000 58 580 0
2021-08-04 00:22:18 GMT 43.695328 -66.689690 37,000 58 580 0
2021-08-04 00:22:12 GMT 43.685349 -66.711983 37,000 58 580 0
2021-08-04 00:22:09 GMT 43.680542 -66.722717 37,000 58 580 0
2021-08-04 00:21:58 GMT 43.666466 -66.754173 37,000 58 580 0
2021-08-04 00:21:50 GMT 43.655758 -66.778038 37,000 58 580 0
2021-08-04 00:21:47 GMT 43.651428 -66.787788 37,000 59 580 0
2021-08-04 00:21:41 GMT 43.641605 -66.809891 37,000 58 580 0
2021-08-04 00:21:38 GMT 43.638565 -66.816803 37,000 58 580 0
2021-08-04 00:21:28 GMT 43.624660 -66.848862 37,000 59 579 0
2021-08-04 00:21:19 GMT 43.613571 -66.875824 37,000 61 580 0
2021-08-04 00:21:15 GMT 43.607994 -66.890129 37,000 61 580 0
2021-08-04 00:21:09 GMT 43.599430 -66.912300 37,000 62 580 0
2021-08-04 00:20:59 GMT 43.588257 -66.941788 37,000 62 580 0
2021-08-04 00:20:54 GMT 43.582157 -66.958206 37,000 63 580 0
2021-08-04 00:20:47 GMT 43.573963 -66.980637 37,000 63 580 0
2021-08-04 00:20:43 GMT 43.569214 -66.993858 37,000 63 580 0
2021-08-04 00:20:38 GMT 43.561386 -67.016090 37,000 64 580 0
2021-08-04 00:20:34 GMT 43.558140 -67.025429 37,000 64 581 0
2021-08-04 00:20:28 GMT 43.551109 -67.046158 37,000 65 580 0
2021-08-04 00:20:25 GMT 43.547619 -67.056496 37,000 65 580 0
2021-08-04 00:20:17 GMT 43.535797 -67.092865 37,000 66 580 0
2021-08-04 00:20:14 GMT 43.535797 -67.092865 37,000 66 580 0
2021-08-04 00:20:07 GMT 43.527786 -67.118225 37,000 66 580 0
2021-08-04 00:20:03 GMT 43.524582 -67.128380 37,000 66 579 0
2021-08-04 00:19:55 GMT 43.515518 -67.157127 37,000 66 579 0
2021-08-04 00:19:47 GMT 43.506886 -67.184471 37,000 66 580 0
2021-08-04 00:19:37 GMT 43.495514 -67.220299 37,000 66 580 0
2021-08-04 00:19:33 GMT 43.492401 -67.230064 37,000 66 580 0
2021-08-04 00:19:26 GMT 43.484665 -67.254402 37,000 66 580 0
2021-08-04 00:19:23 GMT 43.482010 -67.262833 37,000 66 580 0
2021-08-04 00:19:13 GMT 43.469421 -67.302307 37,000 66 580 0
2021-08-04 00:19:06 GMT 43.462238 -67.324936 37,000 66 580 0
2021-08-04 00:19:02 GMT 43.458702 -67.336052 37,000 66 580 0
2021-08-04 00:18:54 GMT 43.450508 -67.361687 37,000 66 579 0
2021-08-04 00:18:44 GMT 43.439117 -67.397415 37,000 66 579 0
2021-08-04 00:18:35 GMT 43.424999 -67.441536 37,000 66 579 0
2021-08-04 00:18:31 GMT 43.424999 -67.441536 37,000 66 579 0
2021-08-04 00:18:24 GMT 43.417648 -67.464424 37,000 66 579 0
2021-08-04 00:18:20 GMT 43.413315 -67.477898 37,000 66 579 0
2021-08-04 00:18:11 GMT 43.403725 -67.507851 37,000 66 579 0
2021-08-04 00:18:02 GMT 43.394226 -67.537407 37,000 66 578 0
2021-08-04 00:17:56 GMT 43.387436 -67.558640 37,000 66 578 0
2021-08-04 00:17:52 GMT 43.382172 -67.575050 37,000 66 579 0
2021-08-04 00:17:49 GMT 43.380123 -67.581482 37,000 66 579 0
2021-08-04 00:17:40 GMT 43.368896 -67.616379 37,000 66 579 0
2021-08-04 00:17:32 GMT 43.361115 -67.640526 37,000 66 579 0
2021-08-04 00:17:29 GMT 43.358185 -67.649590 37,000 66 579 0
2021-08-04 00:17:20 GMT 43.347767 -67.681801 37,000 66 579 0
2021-08-04 00:17:16 GMT 43.344452 -67.692200 37,000 66 579 0
2021-08-04 00:17:09 GMT 43.336853 -67.715706 37,000 66 579 0
2021-08-04 00:17:02 GMT 43.328587 -67.741173 37,000 66 579 0
2021-08-04 00:16:59 GMT 43.317123 -67.776703 37,000 66 579 0
2021-08-04 00:16:51 GMT 43.317123 -67.776703 37,000 66 579 0
2021-08-04 00:16:46 GMT 43.312454 -67.791138 37,000 66 578 0
2021-08-04 00:16:40 GMT 43.305824 -67.811539 37,000 66 578 0
2021-08-04 00:16:35 GMT 43.300518 -67.827957 37,000 66 578 0
2021-08-04 00:16:30 GMT 43.293766 -67.848747 37,000 66 578 0
2021-08-04 00:16:27 GMT 43.291809 -67.854759 37,000 66 578 0
2021-08-04 00:16:20 GMT 43.283012 -67.881844 37,000 66 578 0
2021-08-04 00:16:17 GMT 43.280182 -67.890526 37,000 66 577 0
2021-08-04 00:16:10 GMT 43.269516 -67.923294 37,000 65 578 0
2021-08-04 00:16:07 GMT 43.269516 -67.923294 37,000 65 577 0
2021-08-04 00:16:00 GMT 43.261459 -67.947952 37,000 65 578 0
2021-08-04 00:15:55 GMT 43.256760 -67.962341 37,000 65 578 0
2021-08-04 00:15:49 GMT 43.250107 -67.982697 37,000 65 578 0
2021-08-04 00:15:45 GMT 43.245773 -67.996017 37,000 65 578 0
2021-08-04 00:15:36 GMT 43.235641 -68.027084 37,000 65 578 0
2021-08-04 00:15:29 GMT 43.227570 -68.051735 37,000 65 578 0
2021-08-04 00:15:25 GMT 43.223846 -68.063118 37,000 65 578 0
2021-08-04 00:15:18 GMT 43.216026 -68.087112 37,000 65 577 0
2021-08-04 00:15:14 GMT 43.212208 -68.098755 37,000 65 577 0
2021-08-04 00:15:07 GMT 43.204762 -68.121445 37,000 65 577 0
2021-08-04 00:15:04 GMT 43.200756 -68.133743 37,000 65 577 0
2021-08-04 00:14:57 GMT 43.193958 -68.154404 37,000 65 577 0
2021-08-04 00:14:54 GMT 43.190144 -68.166046 37,000 65 577 0
2021-08-04 00:14:47 GMT 43.182461 -68.189323 37,000 65 577 0
2021-08-04 00:14:43 GMT 43.178177 -68.202278 37,000 65 577 0
2021-08-04 00:14:37 GMT 43.171051 -68.223885 37,000 65 577 0
2021-08-04 00:14:33 GMT 43.167664 -68.234230 37,000 65 577 0
2021-08-04 00:14:26 GMT 43.159790 -68.258118 37,000 65 577 0
2021-08-04 00:14:20 GMT 43.153225 -68.278069 37,000 65 577 0
2021-08-04 00:14:14 GMT 43.146744 -68.297722 37,000 65 576 0
2021-08-04 00:14:10 GMT 43.141171 -68.314621 37,000 65 576 0
2021-08-04 00:14:06 GMT 43.137543 -68.325638 37,000 65 576 0
2021-08-04 00:14:02 GMT 43.131866 -68.342880 37,000 65 576 0
2021-08-04 00:13:54 GMT 43.124405 -68.365433 37,000 65 577 0
2021-08-04 00:13:51 GMT 43.120789 -68.376411 37,000 65 577 0
2021-08-04 00:13:46 GMT 43.114517 -68.395325 37,000 65 577 0
2021-08-04 00:13:39 GMT 43.108212 -68.414223 37,000 65 576 0
2021-08-04 00:13:33 GMT 43.101181 -68.435410 37,000 65 577 0
2021-08-04 00:13:30 GMT 43.096985 -68.448021 37,000 65 576 0
2021-08-04 00:13:24 GMT 43.089821 -68.469543 37,000 65 577 0
2021-08-04 00:13:19 GMT 43.085587 -68.482124 37,000 65 577 0
2021-08-04 00:13:15 GMT 43.079956 -68.499054 37,000 65 577 0
2021-08-04 00:13:08 GMT 43.073776 -68.517578 37,000 65 577 0
2021-08-04 00:13:03 GMT 43.067802 -68.535530 37,000 65 577 0
2021-08-04 00:12:52 GMT 43.056335 -68.569954 37,000 65 577 0
2021-08-04 00:12:44 GMT 43.039490 -68.620354 37,000 65 578 0
2021-08-04 00:12:37 GMT 43.039490 -68.620354 37,000 65 578 0
2021-08-04 00:12:33 GMT 43.034752 -68.634598 37,000 65 578 0
2021-08-04 00:12:28 GMT 43.028000 -68.654808 37,000 65 578 0
2021-08-04 00:12:22 GMT 43.022881 -68.670044 37,000 65 578 0
2021-08-04 00:12:16 GMT 43.016144 -68.690231 37,000 65 578 0
2021-08-04 00:12:12 GMT 43.011055 -68.705490 37,000 65 578 0
2021-08-04 00:12:09 GMT 43.007950 -68.714752 37,000 65 578 0
2021-08-04 00:12:06 GMT 43.005707 -68.721336 37,000 65 578 0
2021-08-04 00:12:02 GMT 43.000168 -68.737946 37,000 65 578 0
2021-08-04 00:11:57 GMT 42.993851 -68.756783 37,000 65 578 0
2021-08-04 00:11:52 GMT 42.982986 -68.789192 37,000 65 578 0
2021-08-04 00:11:46 GMT 42.982986 -68.789192 37,000 65 578 0
2021-08-04 00:11:40 GMT 42.974670 -68.814018 37,000 65 577 0
2021-08-04 00:11:35 GMT 42.971008 -68.824936 37,000 65 577 0
2021-08-04 00:11:30 GMT 42.964783 -68.843460 37,000 65 577 0
2021-08-04 00:11:25 GMT 42.958313 -68.862633 37,000 65 577 0
2021-08-04 00:11:20 GMT 42.953293 -68.877441 37,000 65 577 0
2021-08-04 00:11:15 GMT 42.948074 -68.892967 37,000 65 577 0
2021-08-04 00:11:10 GMT 42.941833 -68.911484 37,000 65 576 0
2021-08-04 00:11:05 GMT 42.936905 -68.925987 37,000 65 576 0
2021-08-04 00:11:00 GMT 42.931366 -68.942467 37,000 65 577 0
2021-08-04 00:10:52 GMT 42.918419 -68.980667 37,000 65 576 0
2021-08-04 00:10:48 GMT 42.918419 -68.980667 37,000 65 576 0
2021-08-04 00:10:43 GMT 42.912598 -68.997803 37,000 65 576 0
2021-08-04 00:10:39 GMT 42.905319 -69.019180 37,000 65 576 0
2021-08-04 00:10:27 GMT 42.893280 -69.054695 37,000 65 576 0
2021-08-04 00:10:23 GMT 42.889927 -69.064568 37,000 65 576 0
2021-08-04 00:10:18 GMT 42.884575 -69.080330 37,000 65 576 0
2021-08-04 00:10:14 GMT 42.879547 -69.095108 37,000 65 576 0
2021-08-04 00:10:09 GMT 42.874146 -69.110901 37,000 65 576 0
2021-08-04 00:10:06 GMT 42.871258 -69.119438 37,000 65 576 0
2021-08-04 00:10:03 GMT 42.868561 -69.127319 37,000 65 575 0
2021-08-04 00:09:58 GMT 42.861389 -69.148338 37,000 65 575 0
2021-08-04 00:09:51 GMT 42.855011 -69.167046 37,000 65 575 0
2021-08-04 00:09:47 GMT 42.849846 -69.182083 37,000 65 575 0
2021-08-04 00:09:43 GMT 42.844025 -69.199173 37,000 65 575 0
2021-08-04 00:09:37 GMT 42.838299 -69.215897 37,000 65 575 0
2021-08-04 00:09:31 GMT 42.832443 -69.232964 37,000 65 575 0
2021-08-04 00:09:27 GMT 42.826401 -69.250656 37,000 65 575 0
2021-08-04 00:09:21 GMT 42.821449 -69.265068 37,000 65 575 0
2021-08-04 00:09:16 GMT 42.815258 -69.283058 37,000 65 575 0
2021-08-04 00:09:11 GMT 42.809784 -69.299141 37,000 65 575 0
2021-08-04 00:09:06 GMT 42.803604 -69.317116 37,000 65 575 0
2021-08-04 00:09:01 GMT 42.798019 -69.333534 37,000 65 575 0
2021-08-04 00:08:55 GMT 42.791840 -69.351509 37,000 65 575 0
2021-08-04 00:08:50 GMT 42.785881 -69.368889 37,000 64 574 0
2021-08-04 00:08:45 GMT 42.780487 -69.384590 37,000 65 575 0
2021-08-04 00:08:38 GMT 42.771973 -69.409439 37,000 64 574 0
2021-08-04 00:08:35 GMT 42.768799 -69.418587 37,000 64 574 0
2021-08-04 00:08:27 GMT 42.760464 -69.442795 37,000 64 575 0
2021-08-04 00:08:24 GMT 42.757206 -69.452248 37,000 64 575 0
2021-08-04 00:08:21 GMT 42.753529 -69.463043 37,000 64 575 0
2021-08-04 00:08:15 GMT 42.745743 -69.485596 37,000 64 575 0
2021-08-04 00:08:10 GMT 42.739883 -69.502571 37,000 64 575 0
2021-08-04 00:08:03 GMT 42.733559 -69.520912 37,000 64 575 0
2021-08-04 00:07:59 GMT 42.721828 -69.554893 37,000 64 575 0
2021-08-04 00:07:53 GMT 42.721828 -69.554893 37,000 64 575 0
2021-08-04 00:07:44 GMT 42.710953 -69.586220 37,000 64 575 0
2021-08-04 00:07:41 GMT 42.708557 -69.593086 37,000 64 575 0
2021-08-04 00:07:37 GMT 42.698364 -69.622421 37,000 64 575 0
2021-08-04 00:07:32 GMT 42.698364 -69.622421 37,000 64 575 0
2021-08-04 00:07:29 GMT 42.693512 -69.636467 37,000 64 575 0
2021-08-04 00:07:24 GMT 42.688156 -69.651825 37,000 64 575 0
2021-08-04 00:07:21 GMT 42.685318 -69.659935 37,000 64 576 0
2021-08-04 00:07:17 GMT 42.681381 -69.671356 37,000 64 576 0
2021-08-04 00:07:14 GMT 42.676579 -69.685066 37,000 64 576 0
2021-08-04 00:07:11 GMT 42.673737 -69.693176 37,000 64 575 0
2021-08-04 00:07:09 GMT 42.671738 -69.699051 37,000 64 575 0
2021-08-04 00:07:05 GMT 42.667408 -69.711449 37,000 64 575 0
2021-08-04 00:07:01 GMT 42.662052 -69.726776 37,000 64 575 0
2021-08-04 00:06:58 GMT 42.658562 -69.736870 37,000 64 575 0
2021-08-04 00:06:55 GMT 42.656525 -69.742767 37,000 64 575 0
2021-08-04 00:06:52 GMT 42.652405 -69.754509 37,000 64 575 0
2021-08-04 00:06:49 GMT 42.649483 -69.762924 37,000 64 574 0
2021-08-04 00:06:46 GMT 42.644943 -69.775978 37,000 64 574 0
2021-08-04 00:06:43 GMT 42.641647 -69.785408 37,000 64 574 0
2021-08-04 00:06:40 GMT 42.639381 -69.791924 37,000 64 574 0
2021-08-04 00:06:35 GMT 42.633610 -69.808533 37,000 64 575 0
2021-08-04 00:06:30 GMT 42.627464 -69.826096 37,000 64 575 0
2021-08-04 00:06:27 GMT 42.622810 -69.839447 37,000 64 575 0
2021-08-04 00:06:24 GMT 42.621094 -69.844330 37,000 64 575 0
2021-08-04 00:06:21 GMT 42.616989 -69.856056 37,000 64 575 0
2021-08-04 00:06:18 GMT 42.614044 -69.864494 37,000 64 575 0
2021-08-04 00:06:14 GMT 42.609962 -69.876244 37,000 64 575 0
2021-08-04 00:06:10 GMT 42.604839 -69.890869 37,000 64 575 0
2021-08-04 00:06:07 GMT 42.601913 -69.899330 37,000 64 575 0
2021-08-04 00:06:04 GMT 42.598618 -69.908752 37,000 64 575 0
2021-08-04 00:06:00 GMT 42.593155 -69.924339 37,000 64 575 0
2021-08-04 00:05:56 GMT 42.588127 -69.938644 37,000 64 575 0
2021-08-04 00:05:53 GMT 42.584824 -69.948097 37,000 64 574 0
2021-08-04 00:05:49 GMT 42.581406 -69.957817 37,000 64 574 0
2021-08-04 00:05:47 GMT 42.575821 -69.973732 37,000 64 574 0
2021-08-04 00:05:44 GMT 42.575821 -69.973732 37,000 64 574 0
2021-08-04 00:05:39 GMT 42.569649 -69.991280 37,000 64 574 0
2021-08-04 00:05:37 GMT 42.567272 -69.998116 37,000 64 574 0
2021-08-04 00:05:33 GMT 42.563370 -70.009125 37,000 64 574 0
2021-08-04 00:05:29 GMT 42.558243 -70.023735 37,000 64 575 0
2021-08-04 00:05:27 GMT 42.555916 -70.030243 37,000 64 575 0
2021-08-04 00:05:23 GMT 42.551376 -70.043213 37,000 64 575 0
2021-08-04 00:05:19 GMT 42.546791 -70.056236 37,000 64 575 0
2021-08-04 00:05:16 GMT 42.541992 -70.069862 37,000 64 574 0
2021-08-04 00:05:13 GMT 42.540253 -70.074669 37,000 64 574 0
2021-08-04 00:05:09 GMT 42.534779 -70.090279 37,000 64 575 0
2021-08-04 00:05:06 GMT 42.532127 -70.097755 37,000 64 575 0
2021-08-04 00:05:03 GMT 42.528587 -70.107780 37,000 64 574 0
2021-08-04 00:05:00 GMT 42.524818 -70.118515 37,000 64 574 0
2021-08-04 00:04:57 GMT 42.520813 -70.129822 37,000 64 574 0
2021-08-04 00:04:54 GMT 42.517277 -70.139915 37,000 64 574 0
2021-08-04 00:04:51 GMT 42.514893 -70.146706 37,000 64 574 0
2021-08-04 00:04:48 GMT 42.510433 -70.159332 37,000 64 574 0
2021-08-04 00:04:44 GMT 42.506516 -70.170364 37,000 64 575 0
2021-08-04 00:04:40 GMT 42.501389 -70.184975 37,000 64 575 0
2021-08-04 00:04:37 GMT 42.498276 -70.193710 37,000 64 575 0
2021-08-04 00:04:32 GMT 42.493149 -70.208252 37,000 64 574 0
2021-08-04 00:04:27 GMT 42.487297 -70.224739 37,000 64 574 0
2021-08-04 00:04:24 GMT 42.483711 -70.234833 37,000 64 574 0
2021-08-04 00:04:21 GMT 42.480286 -70.244522 37,000 64 574 0
2021-08-04 00:04:18 GMT 42.475937 -70.256805 37,000 64 574 0
2021-08-04 00:04:15 GMT 42.473602 -70.263252 37,000 64 574 0
2021-08-04 00:04:12 GMT 42.469048 -70.276222 37,000 64 574 0
2021-08-04 00:04:07 GMT 42.464298 -70.289444 37,000 64 574 0
2021-08-04 00:04:04 GMT 42.459732 -70.302391 37,000 64 574 0
2021-08-04 00:04:00 GMT 42.451450 -70.325661 37,000 64 574 0
2021-08-04 00:03:57 GMT 42.451450 -70.325661 37,000 64 574 0
2021-08-04 00:03:54 GMT 42.449707 -70.330475 37,000 64 574 64
2021-08-04 00:03:50 GMT 42.445122 -70.343414 37,000 64 574 0
2021-08-04 00:03:47 GMT 42.440140 -70.357338 37,000 64 575 0
2021-08-04 00:03:44 GMT 42.438309 -70.362503 37,000 64 575 0
2021-08-04 00:03:40 GMT 42.432411 -70.378990 37,000 64 575 0
2021-08-04 00:03:36 GMT 42.428177 -70.390938 37,000 64 575 0
2021-08-04 00:03:33 GMT 42.424126 -70.402245 37,000 64 575 0
2021-08-04 00:03:30 GMT 42.421238 -70.410355 37,000 64 575 0
2021-08-04 00:03:27 GMT 42.418442 -70.418121 37,000 64 575 0
2021-08-04 00:03:24 GMT 42.414768 -70.428429 37,000 64 575 0
2021-08-04 00:03:21 GMT 42.410156 -70.441338 37,000 64 575 0
2021-08-04 00:03:18 GMT 42.406433 -70.451683 37,000 64 575 0
2021-08-04 00:03:15 GMT 42.404106 -70.458199 37,000 64 575 0
2021-08-04 00:03:11 GMT 42.399498 -70.471100 37,000 64 575 0
2021-08-04 00:03:08 GMT 42.396286 -70.480164 37,000 64 575 0
2021-08-04 00:03:05 GMT 42.387814 -70.503738 37,000 64 575 0
2021-08-04 00:03:02 GMT 42.387814 -70.503738 37,000 64 575 0
2021-08-04 00:02:59 GMT 42.385765 -70.509552 37,000 64 575 0
2021-08-04 00:02:54 GMT 42.380226 -70.525009 37,000 64 575 0
2021-08-04 00:02:50 GMT 42.374081 -70.542130 37,000 64 574 0
2021-08-04 00:02:47 GMT 42.371662 -70.548897 37,000 64 575 0
2021-08-04 00:02:44 GMT 42.368179 -70.558571 37,000 64 575 0
2021-08-04 00:02:41 GMT 42.363327 -70.572113 37,000 64 575 0
2021-08-04 00:02:38 GMT 42.361607 -70.576935 37,000 64 575 0
2021-08-04 00:02:35 GMT 42.357788 -70.587608 37,000 64 575 0
2021-08-04 00:02:33 GMT 42.350853 -70.606956 37,000 64 575 0
2021-08-04 00:02:29 GMT 42.350853 -70.606956 37,000 64 575 0
2021-08-04 00:02:26 GMT 42.347733 -70.615646 37,000 64 575 0
2021-08-04 00:02:23 GMT 42.344009 -70.625984 37,000 64 575 0
2021-08-04 00:02:19 GMT 42.338936 -70.640175 37,000 64 575 0
2021-08-04 00:02:14 GMT 42.332558 -70.657928 37,000 64 575 0
2021-08-04 00:02:11 GMT 42.328972 -70.667892 37,000 64 575 0
2021-08-04 00:02:08 GMT 42.325699 -70.676918 37,000 64 575 0
2021-08-04 00:02:05 GMT 42.322456 -70.685974 37,000 64 574 0
2021-08-04 00:02:02 GMT 42.320160 -70.692406 37,000 64 575 0
2021-08-04 00:01:59 GMT 42.316402 -70.702705 37,000 64 575 0
2021-08-04 00:01:56 GMT 42.311783 -70.715622 37,000 64 575 0
2021-08-04 00:01:53 GMT 42.308723 -70.723976 37,000 64 575 0
2021-08-04 00:01:50 GMT 42.300934 -70.745583 37,000 64 576 0
2021-08-04 00:01:47 GMT 42.300934 -70.745583 37,000 64 573 192
2021-08-04 00:01:44 GMT 42.298737 -70.751701 37,000 64 575 -64
2021-08-04 00:01:42 GMT 42.291729 -70.770988 37,000 64 575 -128
2021-08-04 00:01:38 GMT 42.291729 -70.770988 37,025 64 575 -128
2021-08-04 00:01:34 GMT 42.286144 -70.786446 37,025 64 574 -64
2021-08-04 00:01:31 GMT 42.279442 -70.805099 37,025 64 573 64
2021-08-04 00:01:28 GMT 42.279442 -70.805099 36,975 64 572 512
2021-08-04 00:01:25 GMT 42.275711 -70.815376 37,000 64 572 320
2021-08-04 00:01:21 GMT 42.272095 -70.825302 36,975 64 572 512
2021-08-04 00:01:17 GMT 42.267105 -70.839096 36,900 63 572 896
2021-08-04 00:01:14 GMT 42.264591 -70.846169 36,900 63 572 896
2021-08-04 00:01:11 GMT 42.260651 -70.857010 36,825 63 572 960
2021-08-04 00:01:07 GMT 42.254860 -70.873055 36,575 63 572 1024
2021-08-04 00:01:04 GMT 42.252628 -70.879128 36,725 63 572 1024
2021-08-04 00:01:00 GMT 42.247181 -70.894135 36,650 63 572 1088
2021-08-04 00:00:57 GMT 42.243484 -70.904388 36,475 63 572 1088
2021-08-04 00:00:51 GMT 42.230942 -70.938843 36,450 63 572 1152
2021-08-04 00:00:47 GMT 42.230942 -70.938843 36,375 63 572 1152
2021-08-04 00:00:44 GMT 42.228607 -70.945274 36,350 63 572 1152
2021-08-04 00:00:40 GMT 42.225113 -70.954819 36,250 63 572 1216
2021-08-04 00:00:37 GMT 42.221764 -70.964142 36,225 63 572 1216
2021-08-04 00:00:34 GMT 42.217247 -70.976601 36,125 63 572 1280
2021-08-04 00:00:31 GMT 42.211197 -70.993202 36,025 63 572 1280
2021-08-04 00:00:28 GMT 42.211197 -70.993202 36,025 63 572 1344
2021-08-04 00:00:24 GMT 42.205936 -71.007576 35,925 63 572 1408
2021-08-04 00:00:22 GMT 42.203049 -71.015564 35,850 63 572 1408
2021-08-04 00:00:19 GMT 42.199310 -71.025803 35,750 63 573 1472
2021-08-04 00:00:16 GMT 42.196381 -71.033791 35,725 63 573 1472
2021-08-04 00:00:13 GMT 42.193367 -71.042130 35,650 63 573 1472
2021-08-04 00:00:10 GMT 42.189377 -71.053017 35,575 63 573 1536
2021-08-04 00:00:06 GMT 42.184570 -71.066124 35,450 63 575 1536
2021-08-04 00:00:03 GMT 42.180702 -71.076691 35,400 63 575 1472
2021-08-03 23:59:59 GMT 42.175674 -71.090485 35,275 63 575 1408
2021-08-03 23:59:55 GMT 42.170368 -71.104919 35,175 63 576 1408
2021-08-03 23:59:52 GMT 42.168598 -71.109772 35,175 63 576 1408
2021-08-03 23:59:49 GMT 42.163338 -71.124214 35,050 63 576 1408
2021-08-03 23:59:46 GMT 42.160721 -71.131294 34,950 63 576 1344
2021-08-03 23:59:43 GMT 42.157661 -71.139603 34,925 63 576 1344
2021-08-03 23:59:41 GMT 42.154819 -71.147331 34,875 63 576 1280
2021-08-03 23:59:37 GMT 42.149780 -71.161133 34,800 63 576 1216
2021-08-03 23:59:33 GMT 42.144814 -71.174606 34,700 63 576 1088
2021-08-03 23:59:29 GMT 42.140717 -71.185852 34,625 63 575 1024
2021-08-03 23:59:26 GMT 42.137375 -71.194839 34,575 63 575 1024
2021-08-03 23:59:22 GMT 42.132568 -71.207947 34,525 63 575 1024
2021-08-03 23:59:19 GMT 42.126663 -71.223991 34,450 63 574 1024
2021-08-03 23:59:13 GMT 42.122467 -71.235481 34,350 63 574 960
2021-08-03 23:59:10 GMT 42.118324 -71.246658 34,300 63 573 960
2021-08-03 23:59:07 GMT 42.115856 -71.253365 34,300 63 573 896
2021-08-03 23:59:03 GMT 42.110222 -71.268692 34,225 63 572 896
2021-08-03 23:59:00 GMT 42.107071 -71.277298 33,975 63 571 896
2021-08-03 23:58:57 GMT 42.102634 -71.289391 34,125 63 571 896
2021-08-03 23:58:54 GMT 42.097366 -71.303703 34,075 63 571 896
2021-08-03 23:58:51 GMT 42.097366 -71.303703 34,050 63 571 896
2021-08-03 23:58:48 GMT 42.093246 -71.314812 34,000 63 570 896
2021-08-03 23:58:45 GMT 42.089401 -71.325302 33,950 63 570 832
2021-08-03 23:58:42 GMT 42.085224 -71.336723 33,900 63 568 832
2021-08-03 23:58:38 GMT 42.081711 -71.346214 33,825 63 568 960
2021-08-03 23:58:35 GMT 42.078476 -71.355049 33,825 63 568 960
2021-08-03 23:58:32 GMT 42.068939 -71.380981 33,700 63 567 1152
2021-08-03 23:58:28 GMT 42.068939 -71.380981 33,600 63 567 1408
2021-08-03 23:58:25 GMT 42.065552 -71.390160 33,575 63 567 1472
2021-08-03 23:58:21 GMT 42.061707 -71.400520 33,525 63 567 1536
2021-08-03 23:58:18 GMT 42.057526 -71.411896 33,375 63 567 1536
2021-08-03 23:58:14 GMT 42.054245 -71.420746 33,325 63 567 1472
2021-08-03 23:58:11 GMT 42.049576 -71.433357 33,250 63 567 1408
2021-08-03 23:58:08 GMT 42.047146 -71.440002 33,200 63 567 1408
2021-08-03 23:58:05 GMT 42.042114 -71.453583 33,100 63 567 1216
2021-08-03 23:58:01 GMT 42.037125 -71.467125 33,025 63 567 704
2021-08-03 23:57:57 GMT 42.030350 -71.485413 33,025 63 566 256
2021-08-03 23:57:54 GMT 42.030350 -71.485413 33,000 63 566 192
2021-08-03 23:57:51 GMT 42.027359 -71.493591 33,000 63 566 192
2021-08-03 23:57:48 GMT 42.022797 -71.505859 33,000 63 566 0
2021-08-03 23:57:45 GMT 42.019775 -71.514008 33,000 63 566 0
2021-08-03 23:57:41 GMT 42.015583 -71.525337 33,000 63 566 0
2021-08-03 23:57:37 GMT 42.010227 -71.539772 33,000 63 566 0
2021-08-03 23:57:34 GMT 42.007187 -71.547897 33,000 63 566 0
2021-08-03 23:57:31 GMT 42.003342 -71.558266 33,000 63 566 64
2021-08-03 23:57:29 GMT 42.000687 -71.565506 33,000 63 565 0
2021-08-03 23:57:26 GMT 41.997986 -71.572731 33,000 63 565 0
2021-08-03 23:57:23 GMT 41.993820 -71.584045 33,000 63 565 0
2021-08-03 23:57:20 GMT 41.991238 -71.590935 33,000 63 565 0
2021-08-03 23:57:17 GMT 41.986488 -71.603775 33,000 63 565 0
2021-08-03 23:57:13 GMT 41.982391 -71.614761 33,000 63 565 0
2021-08-03 23:57:11 GMT 41.979584 -71.622307 33,000 63 565 0
2021-08-03 23:57:09 GMT 41.977268 -71.628563 33,000 63 565 0
2021-08-03 23:57:06 GMT 41.974594 -71.635788 33,000 63 565 0
2021-08-03 23:57:03 GMT 41.969913 -71.648300 33,000 63 563 -64
2021-08-03 23:57:00 GMT 41.967590 -71.654579 33,000 63 565 0
2021-08-03 23:56:57 GMT 41.963287 -71.666191 33,000 63 564 0
2021-08-03 23:56:54 GMT 41.959534 -71.676208 33,000 63 564 -64
2021-08-03 23:56:51 GMT 41.955551 -71.686852 33,000 63 564 -64
2021-08-03 23:56:48 GMT 41.953812 -71.691536 33,000 63 564 -64
2021-08-03 23:56:45 GMT 41.949280 -71.703705 33,000 63 564 -64
2021-08-03 23:56:42 GMT 41.946686 -71.710640 33,000 63 563 -64
2021-08-03 23:56:40 GMT 41.943649 -71.718750 33,000 63 563 -64
2021-08-03 23:56:38 GMT 41.940495 -71.727180 33,000 63 564 0
2021-08-03 23:56:35 GMT 41.938259 -71.733124 33,000 63 564 0
2021-08-03 23:56:32 GMT 41.934265 -71.743721 33,000 63 564 64
2021-08-03 23:56:30 GMT 41.930878 -71.752708 33,000 63 564 64
2021-08-03 23:56:27 GMT 41.928993 -71.757713 33,000 63 565 -64
2021-08-03 23:56:24 GMT 41.924622 -71.769272 33,000 63 565 0
2021-08-03 23:56:21 GMT 41.922153 -71.775856 33,000 63 565 0
2021-08-03 23:56:19 GMT 41.919205 -71.783669 33,000 63 565 64
2021-08-03 23:56:17 GMT 41.917465 -71.788353 32,975 63 566 192
2021-08-03 23:56:14 GMT 41.913574 -71.798714 32,975 63 567 320
2021-08-03 23:56:11 GMT 41.906982 -71.816254 32,975 63 566 640
2021-08-03 23:56:09 GMT 41.906982 -71.816254 32,925 63 566 1280
2021-08-03 23:56:05 GMT 41.901855 -71.829674 32,750 63 567 1856
2021-08-03 23:56:02 GMT 41.899483 -71.835960 32,675 63 567 1728
2021-08-03 23:55:59 GMT 41.895950 -71.845345 32,650 63 568 1728
2021-08-03 23:55:57 GMT 41.890450 -71.859787 32,550 63 568 1856
2021-08-03 23:55:54 GMT 41.890450 -71.859787 32,450 63 569 1984
2021-08-03 23:55:51 GMT 41.886074 -71.871407 32,400 63 569 1984
2021-08-03 23:55:49 GMT 41.884026 -71.876778 32,325 63 569 1920
2021-08-03 23:55:47 GMT 41.881668 -71.883049 32,225 63 570 1792
2021-08-03 23:55:44 GMT 41.877319 -71.894722 32,175 63 570 1600
2021-08-03 23:55:41 GMT 41.874252 -71.902893 32,075 63 570 1344
2021-08-03 23:55:39 GMT 41.872009 -71.908951 32,050 63 570 1024
2021-08-03 23:55:37 GMT 41.869995 -71.914253 32,050 63 570 1024
2021-08-03 23:55:33 GMT 41.862167 -71.935043 31,975 63 567 256
2021-08-03 23:55:30 GMT 41.862167 -71.935043 31,975 63 568 320
2021-08-03 23:55:28 GMT 41.859074 -71.943207 31,950 63 566 192
2021-08-03 23:55:25 GMT 41.854511 -71.955406 31,950 63 564 192
2021-08-03 23:55:22 GMT 41.851685 -71.962883 31,925 63 563 128
2021-08-03 23:55:19 GMT 41.848133 -71.972267 31,925 63 559 960
2021-08-03 23:55:17 GMT 41.841888 -71.988663 31,925 63 559 1088
2021-08-03 23:55:14 GMT 41.841888 -71.988663 31,850 63 559 1792
2021-08-03 23:55:11 GMT 41.839096 -71.996033 31,800 63 559 1536
2021-08-03 23:55:08 GMT 41.835564 -72.005287 31,750 63 559 1728
2021-08-03 23:55:06 GMT 41.832047 -72.014572 31,675 62 560 1856
2021-08-03 23:55:02 GMT 41.829117 -72.022247 31,525 62 560 1984
2021-08-03 23:54:59 GMT 41.824253 -72.034927 31,450 62 561 1856
2021-08-03 23:54:57 GMT 41.822578 -72.039207 31,400 63 560 1152
2021-08-03 23:54:53 GMT 41.816803 -72.054398 31,275 63 560 1152
2021-08-03 23:54:50 GMT 41.814468 -72.060577 31,250 63 560 896
2021-08-03 23:54:48 GMT 41.811684 -72.068016 31,200 63 559 640
2021-08-03 23:54:45 GMT 41.807587 -72.078873 31,175 63 558 320
2021-08-03 23:54:42 GMT 41.805267 -72.084984 31,175 63 558 320
2021-08-03 23:54:38 GMT 41.800735 -72.096970 31,150 63 556 384
2021-08-03 23:54:36 GMT 41.798264 -72.103462 31,125 63 555 640
2021-08-03 23:54:33 GMT 41.793156 -72.116875 31,075 63 554 832
2021-08-03 23:54:30 GMT 41.791061 -72.122368 30,850 63 552 1088
2021-08-03 23:54:27 GMT 41.786919 -72.133354 30,975 63 552 1024
2021-08-03 23:54:23 GMT 41.782562 -72.144974 30,875 63 551 1600
2021-08-03 23:54:20 GMT 41.778992 -72.154396 30,800 63 553 2048
2021-08-03 23:54:18 GMT 41.777390 -72.158707 30,775 63 551 1856
2021-08-03 23:54:15 GMT 41.774441 -72.166634 30,650 63 552 2112
2021-08-03 23:54:12 GMT 41.769836 -72.179115 30,550 63 552 2368
2021-08-03 23:54:09 GMT 41.766312 -72.188606 30,400 63 553 2176
2021-08-03 23:54:06 GMT 41.762787 -72.198090 30,325 63 554 1920
2021-08-03 23:54:02 GMT 41.755920 -72.216507 30,225 63 554 1280
2021-08-03 23:53:59 GMT 41.755920 -72.216507 30,200 63 553 1024
2021-08-03 23:53:57 GMT 41.753403 -72.223244 30,125 63 551 640
2021-08-03 23:53:54 GMT 41.750187 -72.231789 30,125 63 552 704
2021-08-03 23:53:51 GMT 41.745255 -72.244911 30,075 63 550 704
2021-08-03 23:53:48 GMT 41.743111 -72.250626 30,050 63 549 704
2021-08-03 23:53:45 GMT 41.738968 -72.261551 30,000 63 540 896
2021-08-03 23:53:41 GMT 41.734966 -72.272156 29,975 63 540 896
2021-08-03 23:53:38 GMT 41.731522 -72.281174 29,975 62 544 320
2021-08-03 23:53:36 GMT 41.729919 -72.285355 29,850 63 538 832
2021-08-03 23:53:33 GMT 41.725113 -72.297905 29,950 63 542 640
2021-08-03 23:53:29 GMT 41.720718 -72.309517 29,875 63 540 896
2021-08-03 23:53:27 GMT 41.714767 -72.325310 29,700 63 538 832
2021-08-03 23:53:24 GMT 41.711792 -72.333359 29,800 63 537 768
2021-08-03 23:53:21 GMT 41.711792 -72.333359 29,775 63 537 768
2021-08-03 23:53:18 GMT 41.709000 -72.340729 29,700 62 532 256
2021-08-03 23:53:15 GMT 41.705406 -72.350143 29,675 62 529 192
2021-08-03 23:53:12 GMT 41.702682 -72.357208 29,700 62 534 384
2021-08-03 23:53:08 GMT 41.697189 -72.371567 29,675 62 531 192
2021-08-03 23:53:06 GMT 41.694931 -72.377419 29,600 62 529 128
2021-08-03 23:53:03 GMT 41.691067 -72.387573 29,675 63 527 128
2021-08-03 23:53:00 GMT 41.688171 -72.395096 29,675 63 525 128
2021-08-03 23:52:57 GMT 41.685425 -72.402336 29,675 63 523 320
2021-08-03 23:52:54 GMT 41.682678 -72.409515 29,575 63 522 576
2021-08-03 23:52:51 GMT 41.679565 -72.417877 29,600 63 521 448
2021-08-03 23:52:47 GMT 41.674820 -72.430496 29,575 63 518 192
2021-08-03 23:52:44 GMT 41.671516 -72.439377 29,575 63 515 256
2021-08-03 23:52:40 GMT 41.667465 -72.450172 29,550 63 512 320
2021-08-03 23:52:37 GMT 41.663681 -72.460327 29,550 63 511 320
2021-08-03 23:52:35 GMT 41.661438 -72.466255 29,525 62 508 384
2021-08-03 23:52:32 GMT 41.658234 -72.474686 29,525 62 508 576
2021-08-03 23:52:29 GMT 41.654892 -72.483299 29,475 62 507 576
2021-08-03 23:52:26 GMT 41.652756 -72.488876 29,400 62 505 832
2021-08-03 23:52:24 GMT 41.650009 -72.495773 29,400 62 505 1088
2021-08-03 23:52:21 GMT 41.647076 -72.503189 29,325 62 504 1216
2021-08-03 23:52:18 GMT 41.643814 -72.511452 29,300 62 503 1152
2021-08-03 23:52:15 GMT 41.639023 -72.523499 29,225 61 503 1088
2021-08-03 23:52:12 GMT 41.637486 -72.527328 29,150 61 501 960
2021-08-03 23:52:09 GMT 41.633286 -72.537727 29,150 61 501 960
2021-08-03 23:52:06 GMT 41.628128 -72.550514 29,075 61 499 832
2021-08-03 23:52:02 GMT 41.625381 -72.557289 29,025 61 499 832
2021-08-03 23:51:59 GMT 41.622776 -72.563736 29,000 61 498 832
2021-08-03 23:51:56 GMT 41.620029 -72.570511 28,975 61 497 1088
2021-08-03 23:51:52 GMT 41.615067 -72.582924 28,375 62 495 2048
2021-08-03 23:51:49 GMT 41.611450 -72.592102 28,750 62 495 1920
2021-08-03 23:51:46 GMT 41.609344 -72.597534 28,675 62 495 2048
2021-08-03 23:51:43 GMT 41.605682 -72.607079 28,500 62 495 2112
2021-08-03 23:51:40 GMT 41.599182 -72.623940 28,400 62 496 2112
2021-08-03 23:51:37 GMT 41.599182 -72.623940 28,250 62 496 2112
2021-08-03 23:51:34 GMT 41.595291 -72.633926 28,200 62 496 2112
2021-08-03 23:51:31 GMT 41.592590 -72.640732 28,125 62 497 2048
2021-08-03 23:51:28 GMT 41.589397 -72.648880 27,875 61 497 2368
2021-08-03 23:51:25 GMT 41.586136 -72.656960 27,900 61 497 2368
2021-08-03 23:51:21 GMT 41.582413 -72.666191 27,775 61 498 2496
2021-08-03 23:51:18 GMT 41.579361 -72.673752 27,675 61 500 2752
2021-08-03 23:51:15 GMT 41.575665 -72.682991 27,525 61 500 2752
2021-08-03 23:51:11 GMT 41.571259 -72.693848 27,250 61 502 2368
2021-08-03 23:51:08 GMT 41.568169 -72.701454 27,200 61 502 2048
2021-08-03 23:51:05 GMT 41.565189 -72.708794 27,100 61 502 2176
2021-08-03 23:51:03 GMT 41.556763 -72.729492 26,300 61 502 1664
2021-08-03 23:50:59 GMT 41.554550 -72.734924 26,875 61 502 1472
2021-08-03 23:50:56 GMT 41.554550 -72.734924 26,825 61 501 1344
2021-08-03 23:50:54 GMT 41.551922 -72.741440 26,750 62 500 1152
2021-08-03 23:50:51 GMT 41.549129 -72.748528 26,700 62 499 1152
2021-08-03 23:50:48 GMT 41.546539 -72.755089 26,625 62 497 1216
2021-08-03 23:50:44 GMT 41.541916 -72.767067 26,575 63 496 1216
2021-08-03 23:50:41 GMT 41.537842 -72.777679 26,525 63 495 1344
2021-08-03 23:50:38 GMT 41.536186 -72.782059 26,525 63 495 1344
2021-08-03 23:50:35 GMT 41.532696 -72.791321 26,400 63 493 1152
2021-08-03 23:50:32 GMT 41.529343 -72.800262 26,325 63 491 832
2021-08-03 23:50:29 GMT 41.525986 -72.809204 26,300 63 490 896
2021-08-03 23:50:25 GMT 41.522369 -72.818565 26,225 62 489 1024
2021-08-03 23:50:23 GMT 41.520267 -72.823898 26,175 61 487 960
2021-08-03 23:50:20 GMT 41.516647 -72.832924 26,075 61 486 1088
2021-08-03 23:50:17 GMT 41.514076 -72.839226 26,075 60 484 1344
2021-08-03 23:50:14 GMT 41.509872 -72.849091 25,975 60 484 1664
2021-08-03 23:50:11 GMT 41.506851 -72.856087 25,850 59 484 2688
2021-08-03 23:50:08 GMT 41.503784 -72.863014 25,850 59 484 2560
2021-08-03 23:50:05 GMT 41.500259 -72.870941 25,700 59 484 2816
2021-08-03 23:50:01 GMT 41.495087 -72.882492 25,425 59 485 2112
2021-08-03 23:49:58 GMT 41.492104 -72.889175 25,225 59 485 1984
2021-08-03 23:49:55 GMT 41.488331 -72.897606 25,275 59 485 2048
2021-08-03 23:49:53 GMT 41.486423 -72.902016 25,175 59 485 1792
2021-08-03 23:49:50 GMT 41.483116 -72.909492 25,100 59 484 1216
2021-08-03 23:49:47 GMT 41.478607 -72.919815 25,000 59 483 1152
2021-08-03 23:49:44 GMT 41.476788 -72.923927 25,000 59 482 1024
2021-08-03 23:49:40 GMT 41.471832 -72.935173 24,900 59 475 640
2021-08-03 23:49:37 GMT 41.468922 -72.941811 24,875 59 478 768
2021-08-03 23:49:33 GMT 41.463894 -72.953239 24,850 59 475 640
2021-08-03 23:49:30 GMT 41.459934 -72.961990 24,800 58 473 768
2021-08-03 23:49:27 GMT 41.457230 -72.967941 24,725 58 470 1216
2021-08-03 23:49:24 GMT 41.454163 -72.974625 24,725 58 469 1216
2021-08-03 23:49:21 GMT 41.450180 -72.983238 24,625 58 467 1216
2021-08-03 23:49:18 GMT 41.446995 -72.990097 24,600 58 466 1408
2021-08-03 23:49:14 GMT 41.442619 -72.999680 24,500 59 464 1472
2021-08-03 23:49:10 GMT 41.434113 -73.019135 24,375 60 462 1344
2021-08-03 23:49:07 GMT 41.434113 -73.019135 24,175 61 460 1280
2021-08-03 23:49:04 GMT 41.431549 -73.025314 24,250 61 459 1152
2021-08-03 23:49:00 GMT 41.424274 -73.043495 24,175 62 456 1024
2021-08-03 23:48:57 GMT 41.421391 -73.050972 24,075 62 452 896
2021-08-03 23:48:54 GMT 41.421391 -73.050972 24,100 62 454 896
2021-08-03 23:48:49 GMT 41.416214 -73.064323 24,025 59 443 1152
2021-08-03 23:48:46 GMT 41.413834 -73.070442 23,975 62 447 960
2021-08-03 23:48:43 GMT 41.411568 -73.076073 23,950 61 446 960
2021-08-03 23:48:38 GMT 41.403900 -73.094162 23,800 56 441 1280
2021-08-03 23:48:35 GMT 41.403900 -73.094162 23,800 56 441 1280
2021-08-03 23:48:32 GMT 41.400467 -73.101219 23,350 32 419 1216
2021-08-03 23:48:28 GMT 41.394241 -73.112579 23,600 51 437 1408
2021-08-03 23:48:25 GMT 41.391315 -73.117332 23,550 38 426 1280
2021-08-03 23:48:21 GMT 41.385918 -73.125252 23,425 44 432 1408
2021-08-03 23:48:18 GMT 41.381653 -73.130859 23,375 41 429 1280
2021-08-03 23:48:15 GMT 41.377491 -73.135735 23,225 38 426 1280
2021-08-03 23:48:12 GMT 41.372742 -73.140915 23,275 36 425 1280
2021-08-03 23:48:09 GMT 41.366272 -73.147224 23,175 34 422 1152
2021-08-03 23:48:06 GMT 41.363708 -73.149597 23,150 34 421 1152
2021-08-03 23:48:03 GMT 41.357712 -73.154785 23,075 30 416 1280
2021-08-03 23:48:00 GMT 41.352074 -73.159210 23,000 29 414 1280
2021-08-03 23:47:57 GMT 41.347233 -73.162827 22,925 29 412 1472
2021-08-03 23:47:53 GMT 41.341087 -73.167381 22,825 29 411 1600
2021-08-03 23:47:51 GMT 41.338257 -73.169495 22,775 29 409 2240
2021-08-03 23:47:47 GMT 41.331123 -73.174751 22,575 29 409 2816
2021-08-03 23:47:44 GMT 41.321548 -73.181885 22,475 29 409 3264
2021-08-03 23:47:41 GMT 41.321548 -73.181885 22,150 29 416 4480
2021-08-03 23:47:38 GMT 41.315918 -73.186096 21,975 29 413 4544
2021-08-03 23:47:35 GMT 41.310242 -73.190369 21,750 29 416 4416
2021-08-03 23:47:32 GMT 41.306717 -73.192993 21,525 29 418 4352
2021-08-03 23:47:29 GMT 41.295700 -73.201157 21,175 29 420 4288
2021-08-03 23:47:25 GMT 41.295700 -73.201157 21,175 28 424 3840
2021-08-03 23:47:21 GMT 41.288132 -73.206726 20,925 28 426 3392
2021-08-03 23:47:18 GMT 41.281406 -73.211639 20,750 28 427 2432
2021-08-03 23:47:14 GMT 41.274982 -73.216324 20,600 28 427 1856
2021-08-03 23:47:11 GMT 41.270874 -73.219360 19,925 28 403 1920
2021-08-03 23:47:08 GMT 41.264832 -73.223755 20,475 29 421 896
2021-08-03 23:47:05 GMT 41.260208 -73.227173 20,400 28 417 704
2021-08-03 23:47:02 GMT 41.253429 -73.232178 20,375 28 416 640
2021-08-03 23:46:59 GMT 41.249405 -73.235168 20,375 28 413 576
2021-08-03 23:46:55 GMT 41.243546 -73.239380 20,325 28 409 640
2021-08-03 23:46:52 GMT 41.238209 -73.243225 20,300 28 406 832
2021-08-03 23:46:49 GMT 41.233459 -73.246727 20,225 28 403 1600
2021-08-03 23:46:46 GMT 41.227524 -73.250977 20,100 28 401 2496
2021-08-03 23:46:43 GMT 41.222656 -73.254524 19,975 28 401 3328
2021-08-03 23:46:38 GMT 41.215302 -73.259834 19,650 28 402 3264
2021-08-03 23:46:35 GMT 41.210037 -73.263550 19,525 28 404 3136
2021-08-03 23:46:32 GMT 41.205154 -73.267136 19,425 28 404 2880
2021-08-03 23:46:29 GMT 41.200562 -73.270447 19,375 28 404 2880
2021-08-03 23:46:26 GMT 41.194473 -73.274841 19,075 28 404 3392
2021-08-03 23:46:23 GMT 41.191040 -73.277344 18,850 28 405 3456
2021-08-03 23:46:20 GMT 41.184441 -73.282120 18,750 28 406 2752
2021-08-03 23:46:17 GMT 41.181335 -73.284363 18,625 28 406 1856
2021-08-03 23:46:14 GMT 41.175385 -73.288635 18,575 28 404 1344
2021-08-03 23:46:11 GMT 41.172089 -73.291016 18,525 28 403 1216
2021-08-03 23:46:09 GMT 41.167820 -73.294037 18,450 28 399 768
2021-08-03 23:46:06 GMT 41.161652 -73.298523 18,450 29 395 256
2021-08-03 23:46:03 GMT 41.158310 -73.301025 18,450 29 393 192
2021-08-03 23:46:00 GMT 41.153091 -73.304932 18,425 30 387 448
2021-08-03 23:45:57 GMT 41.149014 -73.308022 18,300 30 384 1280
2021-08-03 23:45:54 GMT 41.144077 -73.311829 18,300 30 382 1984
2021-08-03 23:45:51 GMT 41.140411 -73.314697 18,250 30 381 2112
2021-08-03 23:45:49 GMT 41.135883 -73.318260 18,150 30 380 2240
2021-08-03 23:45:44 GMT 41.128296 -73.324188 17,925 29 378 2048
2021-08-03 23:45:41 GMT 41.124664 -73.326935 17,875 29 377 1984
2021-08-03 23:45:39 GMT 41.121368 -73.329468 17,850 29 376 2048
2021-08-03 23:45:36 GMT 41.117123 -73.332619 17,650 29 374 2368
2021-08-03 23:45:33 GMT 41.111816 -73.336548 17,575 29 373 2432
2021-08-03 23:45:30 GMT 41.108047 -73.339355 17,475 29 373 2560
2021-08-03 23:45:27 GMT 41.104477 -73.342102 17,250 30 372 3008
2021-08-03 23:45:24 GMT 41.099247 -73.346100 17,100 30 372 2752
2021-08-03 23:45:21 GMT 41.093445 -73.350586 16,925 30 373 2752
2021-08-03 23:45:18 GMT 41.088867 -73.354187 16,875 30 372 2560
2021-08-03 23:45:14 GMT 41.083099 -73.358765 16,575 30 370 2624
2021-08-03 23:45:10 GMT 41.077370 -73.363266 16,475 30 369 2496
2021-08-03 23:45:07 GMT 41.073830 -73.366074 16,425 30 369 2304
2021-08-03 23:45:04 GMT 41.062408 -73.375061 16,225 30 367 2176
2021-08-03 23:44:59 GMT 41.058197 -73.378357 16,100 30 365 2432
2021-08-03 23:44:56 GMT 41.058197 -73.378357 16,025 30 365 2432
2021-08-03 23:44:53 GMT 41.053070 -73.382263 15,825 29 363 2240
2021-08-03 23:44:49 GMT 41.048321 -73.385735 15,675 27 362 2304
2021-08-03 23:44:46 GMT 41.044037 -73.388733 15,450 26 360 2880
2021-08-03 23:44:43 GMT 41.038651 -73.392273 15,375 25 359 3648
2021-08-03 23:44:40 GMT 41.033096 -73.395851 15,150 25 361 4544
2021-08-03 23:44:37 GMT 41.022629 -73.402344 14,925 25 362 4672
2021-08-03 23:44:33 GMT 41.022629 -73.402344 14,500 22 369 3584
2021-08-03 23:44:29 GMT 41.012650 -73.408081 14,350 23 368 3776
2021-08-03 23:44:26 GMT 41.007751 -73.410706 14,275 21 369 3392
2021-08-03 23:44:23 GMT 41.007751 -73.410706 14,050 21 370 3200
2021-08-03 23:44:20 GMT 41.001396 -73.414017 13,900 21 370 3136
2021-08-03 23:44:16 GMT 40.996414 -73.416512 13,625 20 369 2944
2021-08-03 23:44:12 GMT 40.989990 -73.419632 13,450 20 368 3712
2021-08-03 23:44:09 GMT 40.983582 -73.422729 13,275 19 369 3904
2021-08-03 23:44:06 GMT 40.979553 -73.424622 13,125 19 369 4224
2021-08-03 23:44:02 GMT 40.972961 -73.427673 12,200 16 376 4352
2021-08-03 23:43:58 GMT 40.968063 -73.429810 12,425 17 375 4800
2021-08-03 23:43:55 GMT 40.963074 -73.431885 12,325 16 376 4352
2021-08-03 23:43:52 GMT 40.957355 -73.433990 12,000 14 378 4032
2021-08-03 23:43:48 GMT 40.950748 -73.436241 11,750 11 379 3392
2021-08-03 23:43:45 GMT 40.945953 -73.437683 11,675 11 379 3456
2021-08-03 23:43:41 GMT 40.938179 -73.439674 11,450 9 379 2880
2021-08-03 23:43:37 GMT 40.931801 -73.441048 11,200 8 378 1856
2021-08-03 23:43:34 GMT 40.926590 -73.442139 11,225 9 376 1664
2021-08-03 23:43:31 GMT 40.916336 -73.444275 11,125 8 373 1472
2021-08-03 23:43:28 GMT 40.916336 -73.444275 11,025 8 371 1472
2021-08-03 23:43:25 GMT 40.910385 -73.445496 10,975 8 368 1536
2021-08-03 23:43:20 GMT 40.903473 -73.446899 10,775 8 363 1920
2021-08-03 23:43:17 GMT 40.898300 -73.447937 10,725 8 363 1920
2021-08-03 23:43:14 GMT 40.893494 -73.448914 10,700 8 362 1920
2021-08-03 23:43:10 GMT 40.885712 -73.450531 10,550 8 360 1536
2021-08-03 23:43:06 GMT 40.878033 -73.452156 10,450 8 356 960
2021-08-03 23:43:03 GMT 40.874588 -73.452843 10,425 8 355 896
2021-08-03 23:42:59 GMT 40.868954 -73.453964 10,375 8 349 704
2021-08-03 23:42:56 GMT 40.864021 -73.455025 10,350 8 346 704
2021-08-03 23:42:53 GMT 40.859573 -73.455933 10,325 8 343 704
2021-08-03 23:42:50 GMT 40.853313 -73.457214 10,275 8 339 640
2021-08-03 23:42:47 GMT 40.847443 -73.458374 10,225 8 333 512
2021-08-03 23:42:44 GMT 40.844097 -73.459023 10,225 8 331 384
2021-08-03 23:42:39 GMT 40.835949 -73.460648 10,175 8 323 192
2021-08-03 23:42:36 GMT 40.832703 -73.461243 10,175 8 319 320
2021-08-03 23:42:33 GMT 40.828732 -73.462021 10,150 8 318 384
2021-08-03 23:42:29 GMT 40.817184 -73.464172 9,825 7 311 1152
2021-08-03 23:42:26 GMT 40.817184 -73.464172 10,025 8 310 1728
2021-08-03 23:42:22 GMT 40.813789 -73.464828 5,550 6 288 1792
2021-08-03 23:42:19 GMT 40.807526 -73.466003 9,775 8 309 2432
2021-08-03 23:42:16 GMT 40.799332 -73.467590 9,600 8 309 2432
2021-08-03 23:42:13 GMT 40.799332 -73.467590 9,550 8 309 2432
2021-08-03 23:42:08 GMT 40.792793 -73.468948 9,275 9 309 1856
2021-08-03 23:42:05 GMT 40.788849 -73.469788 9,200 9 309 1664
2021-08-03 23:42:02 GMT 40.784603 -73.470634 9,175 9 306 1536
2021-08-03 23:41:58 GMT 40.778503 -73.471947 8,550 9 306 1536
2021-08-03 23:41:54 GMT 40.773605 -73.473022 8,925 9 304 2112
2021-08-03 23:41:51 GMT 40.769707 -73.473816 8,875 8 304 2176
2021-08-03 23:41:48 GMT 40.764027 -73.474998 8,725 8 304 2048
2021-08-03 23:41:45 GMT 40.759552 -73.475830 8,175 4 291 1792
2021-08-03 23:41:41 GMT 40.755249 -73.476685 8,575 7 300 1152
2021-08-03 23:41:37 GMT 40.749344 -73.477722 8,325 6 297 1344
2021-08-03 23:41:34 GMT 40.745911 -73.478271 8,375 5 293 1536
2021-08-03 23:41:31 GMT 40.741699 -73.478882 5,550 6 288 1792
2021-08-03 23:41:26 GMT 40.733597 -73.479858 8,150 4 290 2112
2021-08-03 23:41:23 GMT 40.729855 -73.480309 8,050 5 290 2048
2021-08-03 23:41:20 GMT 40.726776 -73.480652 5,550 6 288 1792
2021-08-03 23:41:17 GMT 40.721569 -73.481369 7,875 6 288 1792
2021-08-03 23:41:12 GMT 40.716171 -73.482178 7,725 7 285 1920
2021-08-03 23:41:09 GMT 40.713135 -73.482727 7,675 7 285 1856
2021-08-03 23:41:06 GMT 40.707745 -73.483742 7,300 8 284 2368
2021-08-03 23:41:03 GMT 40.703339 -73.484619 7,375 9 284 2688
2021-08-03 23:41:00 GMT 40.700760 -73.485176 5,550 44 275 1856
2021-08-03 23:40:55 GMT 40.693863 -73.487061 7,050 17 286 1600
2021-08-03 23:40:52 GMT 40.690147 -73.488358 6,600 48 271 2240
2021-08-03 23:40:49 GMT 40.686905 -73.489746 6,950 19 285 1344
2021-08-03 23:40:45 GMT 40.680588 -73.493164 6,825 26 280 1216
2021-08-03 23:40:42 GMT 40.677750 -73.494934 6,775 28 278 1408
2021-08-03 23:40:39 GMT 40.674740 -73.496979 6,750 28 278 1408
2021-08-03 23:40:36 GMT 40.670830 -73.499786 6,575 29 274 2368
2021-08-03 23:40:33 GMT 40.667267 -73.502380 6,450 30 274 2688
2021-08-03 23:40:29 GMT 40.663521 -73.505280 6,375 31 275 2688
2021-08-03 23:40:23 GMT 40.656097 -73.512085 6,100 43 275 1920
2021-08-03 23:40:20 GMT 40.650951 -73.511131 4,700 55 276 1760
2021-08-03 23:40:19 GMT 40.650181 -73.512482 4,700 55 276 1760
2021-08-03 23:40:18 GMT 40.649422 -73.513817 4,700 55 276 1760
2021-08-03 23:40:17 GMT 40.648651 -73.515160 4,700 55 276 1760
2021-08-03 23:40:15 GMT 40.647121 -73.517853 4,700 55 276 1760
2021-08-03 23:40:14 GMT 40.646351 -73.519188 4,700 55 276 1760
2021-08-03 23:40:13 GMT 40.644821 -73.521881 4,700 55 276 1760
2021-08-03 23:40:11 GMT 40.644051 -73.523216 4,700 55 276 1760
2021-08-03 23:40:10 GMT 40.643291 -73.524559 4,700 55 276 1760
2021-08-03 23:40:09 GMT 40.642521 -73.525909 4,700 55 276 1760
2021-08-03 23:40:07 GMT 40.640991 -73.528587 4,700 55 276 1760
2021-08-03 23:40:06 GMT 40.640228 -73.529938 4,700 55 276 1760
2021-08-03 23:40:05 GMT 40.639462 -73.531281 4,700 55 276 1760
2021-08-03 23:40:04 GMT 40.638691 -73.532623 4,700 55 276 1760
2021-08-03 23:40:02 GMT 40.637161 -73.535309 4,700 55 276 1760
2021-08-03 23:40:01 GMT 40.636398 -73.536652 4,700 55 276 1760
2021-08-03 23:39:59 GMT 40.634861 -73.539337 4,700 55 276 1760
2021-08-03 23:39:58 GMT 40.634102 -73.540680 4,700 55 276 1760
2021-08-03 23:39:57 GMT 40.633331 -73.542023 4,700 55 276 1760
2021-08-03 23:39:56 GMT 40.632561 -73.543358 4,700 55 276 1760
2021-08-03 23:39:54 GMT 40.631031 -73.546051 4,700 55 276 1760
2021-08-03 23:39:53 GMT 40.630268 -73.547394 4,700 55 276 1760
2021-08-03 23:39:52 GMT 40.629501 -73.548729 4,700 55 276 1760
2021-08-03 23:39:50 GMT 40.627972 -73.551422 4,700 55 276 3264
2021-08-03 23:39:49 GMT 40.626369 -73.552559 4,700 62 267 3264
2021-08-03 23:39:48 GMT 40.625130 -73.555359 4,700 62 267 3264
2021-08-03 23:39:46 GMT 40.624512 -73.556763 4,700 62 267 3264
2021-08-03 23:39:44 GMT 40.622452 -73.559280 4,600 70 263 3264
2021-08-03 23:39:42 GMT 40.621498 -73.562218 4,600 70 263 3264
2021-08-03 23:39:41 GMT 40.621029 -73.563698 4,600 70 263 3264
2021-08-03 23:39:40 GMT 40.620560 -73.565170 4,600 70 263 3264
2021-08-03 23:39:38 GMT 40.618771 -73.567680 4,300 78 268 3264
2021-08-03 23:39:37 GMT 40.618469 -73.569252 4,300 78 268 3264
2021-08-03 23:39:36 GMT 40.618172 -73.570831 4,300 78 268 3264
2021-08-03 23:39:35 GMT 40.616699 -73.572319 4,300 86 265 3264
2021-08-03 23:39:33 GMT 40.616421 -73.575531 4,300 86 265 3264
2021-08-03 23:39:32 GMT 40.616280 -73.577133 4,300 86 265 3264
2021-08-03 23:39:31 GMT 40.616138 -73.578728 4,300 86 265 3264
2021-08-03 23:39:29 GMT 40.614231 -73.582130 4,100 94 262 3264
2021-08-03 23:39:28 GMT 40.614300 -73.583717 4,100 94 262 3264
2021-08-03 23:39:26 GMT 40.614460 -73.586899 4,100 94 262 3264
2021-08-03 23:39:25 GMT 40.613960 -73.588516 3,800 95 263 3264
2021-08-03 23:39:23 GMT 40.614189 -73.591713 3,800 95 263 3264
2021-08-03 23:39:22 GMT 40.614300 -73.593300 3,800 95 263 3264
2021-08-03 23:39:21 GMT 40.614071 -73.595009 3,600 96 262 3264
2021-08-03 23:39:20 GMT 40.614342 -73.598183 3,600 96 262 3264
2021-08-03 23:39:18 GMT 40.614471 -73.599762 3,600 96 262 3264
2021-08-03 23:39:17 GMT 40.614609 -73.601349 3,600 96 262 3264
2021-08-03 23:39:15 GMT 40.614830 -73.604683 3,500 96 260 3264
2021-08-03 23:39:14 GMT 40.614971 -73.606247 3,500 96 260 3264
2021-08-03 23:39:13 GMT 40.615101 -73.607819 3,500 96 260 3264
2021-08-03 23:39:12 GMT 40.615601 -73.611313 3,400 95 252 3264
2021-08-03 23:39:10 GMT 40.615711 -73.612839 3,400 95 252 3264
2021-08-03 23:39:09 GMT 40.615822 -73.614357 3,400 95 252 3264
2021-08-03 23:39:08 GMT 40.615921 -73.615891 3,400 95 252 3264
2021-08-03 23:39:06 GMT 40.615929 -73.618912 3,200 97 258 3264
2021-08-03 23:39:04 GMT 40.616219 -73.622017 3,200 97 258 3264
2021-08-03 23:39:03 GMT 40.616371 -73.623581 3,200 97 258 3264
2021-08-03 23:39:02 GMT 40.616459 -73.626190 2,900 97 273 3264
2021-08-03 23:39:00 GMT 40.616638 -73.627823 2,900 97 273 3264
2021-08-03 23:38:59 GMT 40.616829 -73.629463 2,900 97 273 3264
2021-08-03 23:38:58 GMT 40.617062 -73.631157 2,900 97 266 3264
2021-08-03 23:38:56 GMT 40.617378 -73.634369 2,900 97 266 3264
2021-08-03 23:38:55 GMT 40.617950 -73.636749 2,900 96 253 3264
2021-08-03 23:38:54 GMT 40.618080 -73.638283 2,900 96 253 3264
2021-08-03 23:38:52 GMT 40.618420 -73.641357 2,500 96 252 3264
2021-08-03 23:38:51 GMT 40.618542 -73.642883 2,500 96 252 3264
2021-08-03 23:38:50 GMT 40.618671 -73.644409 2,500 96 252 800
2021-08-03 23:38:49 GMT 40.618919 -73.647560 2,500 96 251 800
2021-08-03 23:38:47 GMT 40.619041 -73.649071 2,500 96 251 800
2021-08-03 23:38:46 GMT 40.619171 -73.650589 2,500 96 251 800
2021-08-03 23:38:45 GMT 40.619289 -73.652100 2,500 96 251 800
2021-08-03 23:38:43 GMT 40.619480 -73.655029 2,300 96 253 800
2021-08-03 23:38:42 GMT 40.619598 -73.656563 2,300 96 253 800
2021-08-03 23:38:41 GMT 40.619732 -73.658081 2,300 96 253 800
2021-08-03 23:38:40 GMT 40.619862 -73.659607 2,300 96 253 800
2021-08-03 23:38:38 GMT 40.620022 -73.662529 2,200 97 257 800
2021-08-03 23:38:37 GMT 40.620171 -73.664078 2,200 97 257 800
2021-08-03 23:38:35 GMT 40.620461 -73.667137 2,100 97 258 800
2021-08-03 23:38:34 GMT 40.620609 -73.668701 2,100 96 257 800
2021-08-03 23:38:33 GMT 40.620770 -73.670357 2,100 96 251 800
2021-08-03 23:38:32 GMT 40.620930 -73.671928 2,100 96 248 800
2021-08-03 23:38:30 GMT 40.621181 -73.674858 2,100 96 250 800
2021-08-03 23:38:29 GMT 40.621342 -73.676399 2,100 96 248 800
2021-08-03 23:38:28 GMT 40.621479 -73.677879 2,100 96 248 800
2021-08-03 23:38:26 GMT 40.621738 -73.680809 2,000 96 248 800
2021-08-03 23:38:25 GMT 40.621891 -73.682404 2,000 96 243 800
2021-08-03 23:38:23 GMT 40.622261 -73.686928 2,000 96 231 800
2021-08-03 23:38:21 GMT 40.622372 -73.688232 2,000 96 238 800
2021-08-03 23:38:20 GMT 40.622501 -73.689659 2,000 96 237 800
2021-08-03 23:38:18 GMT 40.622742 -73.692543 2,000 96 235 800
2021-08-03 23:38:17 GMT 40.622860 -73.694038 2,000 96 228 800
2021-08-03 23:38:16 GMT 40.622971 -73.695358 1,950 96 232 800
2021-08-03 23:38:15 GMT 40.623100 -73.696831 1,900 96 228 800
2021-08-03 23:38:14 GMT 40.623329 -73.699600 1,900 95 225 800
2021-08-03 23:38:12 GMT 40.623440 -73.700912 1,825 95 228 800
2021-08-03 23:38:11 GMT 40.623650 -73.703629 1,825 96 227 800
2021-08-03 23:38:09 GMT 40.623749 -73.704987 1,800 96 227 800
2021-08-03 23:38:08 GMT 40.623878 -73.706490 1,800 96 218 800
2021-08-03 23:38:07 GMT 40.624111 -73.709106 1,700 95 221 800
2021-08-03 23:38:05 GMT 40.624199 -73.710480 1,700 95 218 800
2021-08-03 23:38:04 GMT 40.624321 -73.711861 1,700 95 214 800
2021-08-03 23:38:03 GMT 40.624409 -73.713089 1,700 95 218 800
2021-08-03 23:38:02 GMT 40.624592 -73.715714 1,700 95 216 800
2021-08-03 23:38:00 GMT 40.624710 -73.717163 1,700 95 205 800
2021-08-03 23:37:59 GMT 40.624802 -73.718277 1,700 95 215 800
2021-08-03 23:37:58 GMT 40.624962 -73.720810 1,550 95 217 800
2021-08-03 23:37:56 GMT 40.625099 -73.722160 1,550 94 213 800
2021-08-03 23:37:55 GMT 40.625210 -73.723518 1,550 94 207 800
2021-08-03 23:37:53 GMT 40.625359 -73.726021 1,550 94 205 800
2021-08-03 23:37:52 GMT 40.625420 -73.727287 1,550 94 203 800
2021-08-03 23:37:51 GMT 40.625481 -73.728577 1,550 94 199 800
2021-08-03 23:37:50 GMT 40.625641 -73.731049 1,425 93 191 0
2021-08-03 23:37:48 GMT 40.625690 -73.732178 1,425 94 193 0
2021-08-03 23:37:47 GMT 40.625771 -73.733337 1,425 93 194 0
2021-08-03 23:37:46 GMT 40.625870 -73.735809 1,425 94 187 0
2021-08-03 23:37:44 GMT 40.625919 -73.736938 1,425 94 187 0
2021-08-03 23:37:43 GMT 40.625992 -73.738037 1,425 94 191 0
2021-08-03 23:37:42 GMT 40.626099 -73.740356 1,425 95 191 0
2021-08-03 23:37:40 GMT 40.626190 -73.741501 1,425 94 192 0
2021-08-03 23:37:39 GMT 40.626270 -73.742661 1,400 94 191 0
2021-08-03 23:37:37 GMT 40.626411 -73.744942 1,400 95 191 0
2021-08-03 23:37:36 GMT 40.626511 -73.746117 1,300 95 188 0
2021-08-03 23:37:35 GMT 40.626591 -73.747322 1,300 95 182 0
2021-08-03 23:37:33 GMT 40.626789 -73.749634 1,300 95 171 0
2021-08-03 23:37:32 GMT 40.626919 -73.751732 1,300 96 173 0
2021-08-03 23:37:30 GMT 40.627041 -73.752769 1,275 95 174 64
2021-08-03 23:37:29 GMT 40.627079 -73.753830 1,275 97 174 64
2021-08-03 23:37:28 GMT 40.627201 -73.754929 1,275 97 169 64
2021-08-03 23:37:26 GMT 40.627449 -73.757050 1,200 95 169 64
2021-08-03 23:37:25 GMT 40.627560 -73.758080 1,200 95 169 64
2021-08-03 23:37:24 GMT 40.627628 -73.759087 1,200 96 171 64
2021-08-03 23:37:22 GMT 40.627811 -73.761162 950 97 170 64
2021-08-03 23:37:21 GMT 40.627918 -73.762169 950 97 171 64
2021-08-03 23:37:20 GMT 40.628139 -73.764267 950 98 168 64
2021-08-03 23:37:18 GMT 40.628269 -73.765266 950 99 170 64
2021-08-03 23:37:17 GMT 40.628399 -73.766289 900 100 171 64
2021-08-03 23:37:16 GMT 40.628510 -73.767288 775 102 173 64
2021-08-03 23:37:14 GMT 40.628860 -73.769348 775 104 171 64
2021-08-03 23:37:13 GMT 40.629059 -73.770348 550 105 171 64
2021-08-03 23:37:11 GMT 40.629490 -73.772339 550 108 173 64
2021-08-03 23:37:10 GMT 40.629742 -73.773331 550 109 173 64
2021-08-03 23:37:09 GMT 40.630268 -73.775322 550 112 173 64
2021-08-03 23:37:07 GMT 40.630562 -73.776291 500 114 173 64
2021-08-03 23:37:06 GMT 40.630859 -73.777260 400 116 173 64
2021-08-03 23:37:05 GMT 40.631210 -73.778214 400 117 173 64
2021-08-03 23:37:03 GMT 40.631920 -73.780098 350 119 172 64
2021-08-03 23:37:02 GMT 40.632332 -73.781021 300 119 170 64
2021-08-03 23:37:01 GMT 40.632679 -73.781914 275 121 171 64
2021-08-03 23:37:00 GMT 40.633530 -73.783737 125 120 166 64
2021-08-03 23:36:58 GMT 40.633911 -73.784576 125 120 168 64
2021-08-03 23:36:57 GMT 40.634319 -73.785454 125 119 169 64
2021-08-03 23:36:56 GMT 40.634701 -73.786369 0 120 168 64
2021-08-03 23:36:55 GMT 40.635471 -73.788109 0 120 170 64
2021-08-03 23:36:53 GMT 40.635849 -73.788986 0 120 173 64
2021-08-03 23:36:52 GMT 40.636250 -73.789917 -25 120 170 64
2021-08-03 23:36:51 GMT 40.637058 -73.791672 -100 120 174 -672
2021-08-03 23:36:49 GMT 40.637459 -73.792610 -100 120 170 -96
2021-08-03 23:36:48 GMT 40.637871 -73.793510 -100 120 167 -96
2021-08-03 23:36:47 GMT 40.638641 -73.795258 -100 120 163 352
2021-08-03 23:36:45 GMT 40.639030 -73.796120 -100 120 161 -576
2021-08-03 23:36:44 GMT 40.639381 -73.796921 -100 120 162 -576
2021-08-03 23:36:41 GMT 40.640518 -73.799423 -100 120 151 0
2021-08-03 23:36:39 GMT 40.641232 -73.801041 -100 120 141 0
2021-08-03 23:36:37 GMT 40.641918 -73.802490 -100 120 135 0
2021-08-03 23:36:36 GMT 40.642231 -73.803207 -100 120 132 0
2021-08-03 23:36:35 GMT 40.642540 -73.803917 -100 120 129 0
2021-08-03 23:36:34 GMT 40.643162 -73.805267 -100 120 121 0
2021-08-03 23:36:32 GMT 40.643452 -73.805931 -100 120 117 0
2021-08-03 23:36:31 GMT 40.643742 -73.806541 -100 120 114 0
2021-08-03 23:36:29 GMT 40.644241 -73.807693 0 121 111
2021-08-03 23:36:28 GMT 40.644501 -73.808281 0 121 108
2021-08-03 23:36:27 GMT 40.644760 -73.808823 0 120 105
2021-08-03 23:36:26 GMT 40.645279 -73.809929 0 120 92
2021-08-03 23:36:24 GMT 40.645489 -73.810440 0 120 88
2021-08-03 23:36:23 GMT 40.645699 -73.810890 0 120 85
2021-08-03 23:36:22 GMT 40.645908 -73.811340 0 120 80
2021-08-03 23:36:20 GMT 40.646290 -73.812172 0 120 73
2021-08-03 23:36:19 GMT 40.646439 -73.812592 0 122 68
2021-08-03 23:36:18 GMT 40.646610 -73.812897 0 121 67
2021-08-03 23:36:17 GMT 40.646931 -73.813583 0 120 57
2021-08-03 23:36:15 GMT 40.647079 -73.813911 0 120 50
2021-08-03 23:36:14 GMT 40.647221 -73.814171 0 117 45
2021-08-03 23:36:12 GMT 40.647419 -73.814682 0 119 33
2021-08-03 23:36:11 GMT 40.647511 -73.814903 0 120 28
2021-08-03 23:36:10 GMT 40.647598 -73.815109 0 120 20
2021-08-03 23:36:08 GMT 40.647709 -73.815361 0 121 15
2021-08-03 23:36:07 GMT 40.647758 -73.815460 0 121 12
2021-08-03 23:36:06 GMT 40.647789 -73.815536 0 126 10
2021-08-03 23:36:04 GMT 40.647861 -73.815659 0 126 7
2021-08-03 23:36:03 GMT 40.647869 -73.815697 0 122 7
2021-08-03 23:36:02 GMT 40.647919 -73.815712 0 115 9
2021-08-03 23:36:00 GMT 40.647930 -73.815849 0 129 7
2021-08-03 23:35:58 GMT 40.647949 -73.815872 0 129 8
2021-08-03 23:35:57 GMT 40.647968 -73.815933 0 127 6
2021-08-03 23:35:56 GMT 40.648022 -73.815971 0 113 6
2021-08-03 23:35:54 GMT 40.648041 -73.815971 0 109 8
2021-08-03 23:35:53 GMT 40.648048 -73.816032 0 106 7
2021-08-03 23:35:51 GMT 40.648079 -73.816109 0 110 6
2021-08-03 23:35:50 GMT 40.648071 -73.816162 0 118 5
2021-08-03 23:35:49 GMT 40.648079 -73.816238 0 134 5
2021-08-03 23:35:47 GMT 40.648090 -73.816269 0 132 5
2021-08-03 23:35:46 GMT 40.648109 -73.816254 0 126 8
2021-08-03 23:35:45 GMT 40.648109 -73.816307 0 121 8
2021-08-03 23:35:43 GMT 40.648170 -73.816360 0 136 8
2021-08-03 23:35:42 GMT 40.648201 -73.816406 0 164 6
2021-08-03 23:35:40 GMT 40.648209 -73.816513 0 184 7
2021-08-03 23:35:39 GMT 40.648251 -73.816521 0 191 6
2021-08-03 23:35:38 GMT 40.648281 -73.816528 0 200 7
2021-08-03 23:35:37 GMT 40.648312 -73.816544 0 207 8
2021-08-03 23:35:35 GMT 40.648369 -73.816490 0 207 9
2021-08-03 23:35:34 GMT 40.648411 -73.816460 0 205 8
2021-08-03 23:35:33 GMT 40.648430 -73.816452 0 207 9
2021-08-03 23:35:31 GMT 40.648560 -73.816399 0 213 8
2021-08-03 23:35:30 GMT 40.648590 -73.816368 0 213 8
2021-08-03 23:35:28 GMT 40.648659 -73.816307 0 213 8
2021-08-03 23:35:27 GMT 40.648701 -73.816277 0 213 7
2021-08-03 23:35:26 GMT 40.648739 -73.816254 0 213 7
2021-08-03 23:35:25 GMT 40.648762 -73.816223 0 213 7
2021-08-03 23:35:23 GMT 40.648819 -73.816170 0 212 6
2021-08-03 23:35:22 GMT 40.648849 -73.816147 0 210 6
2021-08-03 23:35:20 GMT 40.648899 -73.816093 0 210 5
2021-08-03 23:35:19 GMT 40.648930 -73.816071 0 210 5
2021-08-03 23:35:18 GMT 40.648949 -73.816048 0 210 5
2021-08-03 23:35:17 GMT 40.648998 -73.816010 0 210 4
2021-08-03 23:35:15 GMT 40.649029 -73.816002 0 210 3
2021-08-03 23:35:14 GMT 40.649052 -73.815979 0 210 3
2021-08-03 23:35:12 GMT 40.649090 -73.815964 0 210 2
2021-08-03 23:35:11 GMT 40.649101 -73.815941 0 210 2
2021-08-03 23:35:10 GMT 40.649132 -73.815910 0 210 0
2021-08-03 23:35:07 GMT 40.649151 -73.815880 0 210 0
2021-08-03 23:35:05 GMT 40.649158 -73.815872 0 210 0
2021-08-03 23:35:04 GMT 40.649158 -73.815857 0 210 0
2021-08-03 23:35:01 GMT 40.649181 -73.815849 0 210 0
2021-08-03 23:34:50 GMT 40.649181 -73.815842 0 211 1
2021-08-03 23:34:46 GMT 40.649181 -73.815842 0 211 1
2021-08-03 23:34:44 GMT 40.649170 -73.815849 0 211 1
2021-08-03 23:34:42 GMT 40.649158 -73.815872 0 211 1
2021-08-03 23:34:41 GMT 40.649151 -73.815872 0 211 1
2021-08-03 23:34:40 GMT 40.649139 -73.815903 0 211 4
2021-08-03 23:34:38 GMT 40.649151 -73.815887 0 212 5
2021-08-03 23:34:37 GMT 40.649158 -73.815880 0 212 5
2021-08-03 23:34:36 GMT 40.649170 -73.815872 0 213 6
2021-08-03 23:34:34 GMT 40.649189 -73.815849 0 216 8
2021-08-03 23:34:33 GMT 40.649212 -73.815826 0 220 9
2021-08-03 23:34:32 GMT 40.649300 -73.815788 0 228 7
2021-08-03 23:34:30 GMT 40.649361 -73.815750 0 242 6
2021-08-03 23:34:29 GMT 40.649391 -73.815742 0 251 6
2021-08-03 23:34:28 GMT 40.649429 -73.815720 0 261 6
2021-08-03 23:34:26 GMT 40.649509 -73.815666 0 279 6
2021-08-03 23:34:25 GMT 40.649509 -73.815643 0 283 6
2021-08-03 23:34:24 GMT 40.649540 -73.815598 0 290 6
2021-08-03 23:34:22 GMT 40.649559 -73.815529 0 298 6
2021-08-03 23:34:21 GMT 40.649551 -73.815491 0 299 7
2021-08-03 23:34:20 GMT 40.649551 -73.815430 0 301 8
2021-08-03 23:34:18 GMT 40.649529 -73.815399 0 302 8
2021-08-03 23:34:17 GMT 40.649521 -73.815361 0 302 8
2021-08-03 23:34:15 GMT 40.649479 -73.815292 0 302 9
2021-08-03 23:34:14 GMT 40.649460 -73.815239 0 301 9
2021-08-03 23:34:12 GMT 40.649410 -73.815147 0 300 9
2021-08-03 23:34:11 GMT 40.649380 -73.815102 0 300 8
2021-08-03 23:34:09 GMT 40.649342 -73.815010 0 299 8
2021-08-03 23:34:08 GMT 40.649330 -73.814972 0 300 9
2021-08-03 23:34:07 GMT 40.649300 -73.814919 0 299 8
2021-08-03 23:34:06 GMT 40.649261 -73.814842 0 297 9
2021-08-03 23:34:04 GMT 40.649239 -73.814796 0 296 9
2021-08-03 23:34:03 GMT 40.649220 -73.814720 0 297 8
2021-08-03 23:34:01 GMT 40.649181 -73.814629 0 294 8
2021-08-03 23:34:00 GMT 40.649151 -73.814598 0 294 8
2021-08-03 23:33:59 GMT 40.649139 -73.814560 0 296 8
2021-08-03 23:33:58 GMT 40.649120 -73.814430 0 305 7
2021-08-03 23:33:56 GMT 40.649109 -73.814392 0 308 7
2021-08-03 23:33:55 GMT 40.649101 -73.814331 0 311 7
2021-08-03 23:33:54 GMT 40.649071 -73.814270 0 307 7
2021-08-03 23:33:52 GMT 40.649021 -73.814247 0 305 6
2021-08-03 23:33:51 GMT 40.649010 -73.814217 0 305 6
2021-08-03 23:33:50 GMT 40.648972 -73.814171 0 302 7
2021-08-03 23:33:48 GMT 40.648949 -73.814140 0 301 7
2021-08-03 23:33:47 GMT 40.648930 -73.814102 0 301 7
2021-08-03 23:33:46 GMT 40.648891 -73.814003 0 301 6
2021-08-03 23:33:45 GMT 40.648869 -73.813980 0 300 6
2021-08-03 23:33:43 GMT 40.648861 -73.813957 0 299 7
2021-08-03 23:33:42 GMT 40.648842 -73.813942 0 300 8
2021-08-03 23:33:40 GMT 40.648811 -73.813820 0 304 7
2021-08-03 23:33:39 GMT 40.648800 -73.813782 0 304 7
2021-08-03 23:33:38 GMT 40.648781 -73.813751 0 304 7
2021-08-03 23:33:37 GMT 40.648762 -73.813721 0 304 8
2021-08-03 23:33:35 GMT 40.648731 -73.813660 0 301 9
2021-08-03 23:33:34 GMT 40.648689 -73.813606 0 299 8
2021-08-03 23:33:32 GMT 40.648659 -73.813522 0 300 8
2021-08-03 23:33:30 GMT 40.648609 -73.813438 0 295 8
2021-08-03 23:33:29 GMT 40.648590 -73.813408 0 295 9
2021-08-03 23:33:28 GMT 40.648579 -73.813362 0 297 9
2021-08-03 23:33:27 GMT 40.648579 -73.813332 0 300 11
2021-08-03 23:33:25 GMT 40.648521 -73.813217 0 303 12
2021-08-03 23:33:24 GMT 40.648499 -73.813141 0 304 12
2021-08-03 23:33:23 GMT 40.648460 -73.813072 0 303 10
2021-08-03 23:33:21 GMT 40.648411 -73.813011 0 301 13
2021-08-03 23:33:20 GMT 40.648380 -73.812889 0 303 12
2021-08-03 23:33:19 GMT 40.648350 -73.812843 0 301 11
2021-08-03 23:33:17 GMT 40.648281 -73.812729 0 300 11
2021-08-03 23:33:16 GMT 40.648239 -73.812660 0 298 10
2021-08-03 23:33:15 GMT 40.648220 -73.812607 0 298 10
2021-08-03 23:33:14 GMT 40.648209 -73.812576 0 299 13
2021-08-03 23:33:12 GMT 40.648159 -73.812401 0 304 11
2021-08-03 23:33:11 GMT 40.648129 -73.812340 0 303 11
2021-08-03 23:33:10 GMT 40.648102 -73.812302 0 299 11
2021-08-03 23:33:09 GMT 40.648029 -73.812180 0 299 10
2021-08-03 23:33:07 GMT 40.648029 -73.812119 0 303 10
2021-08-03 23:33:06 GMT 40.647991 -73.812073 0 300 10
2021-08-03 23:33:05 GMT 40.647949 -73.811958 0 302 11
2021-08-03 23:33:03 GMT 40.647919 -73.811913 0 300 11
2021-08-03 23:33:02 GMT 40.647861 -73.811790 0 297 10
2021-08-03 23:33:00 GMT 40.647831 -73.811737 0 296 10
2021-08-03 23:32:59 GMT 40.647812 -73.811691 0 296 10
2021-08-03 23:32:58 GMT 40.647781 -73.811630 0 300 10
2021-08-03 23:32:57 GMT 40.647758 -73.811523 0 299 11
2021-08-03 23:32:55 GMT 40.647732 -73.811470 0 298 11
2021-08-03 23:32:54 GMT 40.647701 -73.811417 0 295 11
2021-08-03 23:32:53 GMT 40.647671 -73.811363 0 294 10
2021-08-03 23:32:51 GMT 40.647640 -73.811218 0 305 10
2021-08-03 23:32:50 GMT 40.647621 -73.811188 0 305 10
2021-08-03 23:32:49 GMT 40.647598 -73.811127 0 306 10
2021-08-03 23:32:47 GMT 40.647541 -73.811020 0 300 10
2021-08-03 23:32:46 GMT 40.647491 -73.810959 0 294 8
2021-08-03 23:32:45 GMT 40.647461 -73.810959 0 292 10
2021-08-03 23:32:43 GMT 40.647442 -73.810829 0 296 9
2021-08-03 23:32:42 GMT 40.647411 -73.810783 0 297 9
2021-08-03 23:32:40 GMT 40.647388 -73.810677 0 304 9
2021-08-03 23:32:38 GMT 40.647339 -73.810593 0 302 10
2021-08-03 23:32:37 GMT 40.647308 -73.810516 0 302 8
2021-08-03 23:32:36 GMT 40.647289 -73.810478 0 303 8
2021-08-03 23:32:35 GMT 40.647240 -73.810402 0 299 8
2021-08-03 23:32:33 GMT 40.647228 -73.810349 0 300 9
2021-08-03 23:32:32 GMT 40.647202 -73.810310 0 300 9
2021-08-03 23:32:30 GMT 40.647160 -73.810211 0 299 8
2021-08-03 23:32:29 GMT 40.647141 -73.810181 0 300 9
2021-08-03 23:32:28 GMT 40.647121 -73.810143 0 300 9
2021-08-03 23:32:27 GMT 40.647099 -73.810043 0 305 10
2021-08-03 23:32:25 GMT 40.647060 -73.810013 0 301 11
2021-08-03 23:32:24 GMT 40.647041 -73.809952 0 301 10
2021-08-03 23:32:23 GMT 40.646980 -73.809830 0 300 9
2021-08-03 23:32:21 GMT 40.646938 -73.809731 0 299 9
2021-08-03 23:32:19 GMT 40.646912 -73.809692 0 297 9
2021-08-03 23:32:18 GMT 40.646889 -73.809639 0 296 10
2021-08-03 23:32:17 GMT 40.646858 -73.809563 0 299 11
2021-08-03 23:32:15 GMT 40.646832 -73.809502 0 300 11
2021-08-03 23:32:14 GMT 40.646790 -73.809357 0 298 10
2021-08-03 23:32:12 GMT 40.646751 -73.809319 0 296 9
2021-08-03 23:32:11 GMT 40.646729 -73.809273 0 299 9
2021-08-03 23:32:10 GMT 40.646709 -73.809212 0 303 13
2021-08-03 23:32:09 GMT 40.646690 -73.809120 0 306 13
2021-08-03 23:32:07 GMT 40.646671 -73.809067 0 306 15
2021-08-03 23:32:06 GMT 40.646580 -73.808952 0 300 16
2021-08-03 23:32:04 GMT 40.646530 -73.808853 0 297 13
2021-08-03 23:32:03 GMT 40.646488 -73.808777 0 298 13
2021-08-03 23:32:02 GMT 40.646481 -73.808723 0 301 14
2021-08-03 23:32:01 GMT 40.646420 -73.808571 0 303 14
2021-08-03 23:31:59 GMT 40.646381 -73.808502 0 302 15
2021-08-03 23:31:58 GMT 40.646351 -73.808441 0 304 16
2021-08-03 23:31:56 GMT 40.646252 -73.808273 0 296 14
2021-08-03 23:31:55 GMT 40.646229 -73.808212 0 296 16
2021-08-03 23:31:54 GMT 40.646179 -73.808090 0 296 12
2021-08-03 23:31:52 GMT 40.646160 -73.807983 0 301 17
2021-08-03 23:31:51 GMT 40.646118 -73.807922 0 301 19
2021-08-03 23:31:50 GMT 40.646069 -73.807823 0 300 18
2021-08-03 23:31:48 GMT 40.645969 -73.807632 0 293 15
2021-08-03 23:31:47 GMT 40.645939 -73.807541 0 297 15
2021-08-03 23:31:46 GMT 40.645939 -73.807472 0 304 18
2021-08-03 23:31:44 GMT 40.645840 -73.807281 0 300 17
2021-08-03 23:31:43 GMT 40.645741 -73.807091 0 300 15
2021-08-03 23:31:41 GMT 40.645710 -73.807030 0 297 17
2021-08-03 23:31:40 GMT 40.645679 -73.806953 0 298 18
2021-08-03 23:31:39 GMT 40.645611 -73.806747 0 304 19
2021-08-03 23:31:37 GMT 40.645538 -73.806648 0 299 17
2021-08-03 23:31:36 GMT 40.645512 -73.806549 0 301 17
2021-08-03 23:31:35 GMT 40.645458 -73.806450 0 300 15
2021-08-03 23:31:33 GMT 40.645378 -73.806282 0 302 14
2021-08-03 23:31:32 GMT 40.645351 -73.806213 0 302 15
2021-08-03 23:31:30 GMT 40.645260 -73.806038 0 296 14
2021-08-03 23:31:29 GMT 40.645260 -73.805977 0 300 17
2021-08-03 23:31:28 GMT 40.645229 -73.805878 0 308 16
2021-08-03 23:31:27 GMT 40.645191 -73.805817 0 304 18
2021-08-03 23:31:25 GMT 40.645081 -73.805641 0 296 16
2021-08-03 23:31:24 GMT 40.645039 -73.805542 0 298 15
2021-08-03 23:31:23 GMT 40.645020 -73.805443 0 309 14
2021-08-03 23:31:22 GMT 40.644939 -73.805313 0 302 14
2021-08-03 23:31:20 GMT 40.644901 -73.805237 0 300 14
2021-08-03 23:31:19 GMT 40.644878 -73.805199 0 299 16
2021-08-03 23:31:18 GMT 40.644798 -73.805008 0 303 13
2021-08-03 23:31:16 GMT 40.644779 -73.804962 0 301 16
2021-08-03 23:31:15 GMT 40.644730 -73.804893 0 297 16
2021-08-03 23:31:14 GMT 40.644669 -73.804703 0 301 15
2021-08-03 23:31:12 GMT 40.644630 -73.804626 0 297 16
2021-08-03 23:31:10 GMT 40.644569 -73.804451 0 302 15
2021-08-03 23:31:09 GMT 40.644520 -73.804390 0 298 16
2021-08-03 23:31:08 GMT 40.644501 -73.804314 0 300 17
2021-08-03 23:31:06 GMT 40.644409 -73.804153 0 298 17
2021-08-03 23:31:04 GMT 40.644329 -73.803940 0 305 15
2021-08-03 23:31:03 GMT 40.644291 -73.803879 0 299 16
2021-08-03 23:31:02 GMT 40.644249 -73.803802 0 298 17
2021-08-03 23:31:01 GMT 40.644169 -73.803581 0 305 13
2021-08-03 23:30:59 GMT 40.644131 -73.803543 0 299 15
2021-08-03 23:30:58 GMT 40.644100 -73.803467 0 299 15
2021-08-03 23:30:56 GMT 40.644039 -73.803329 0 299 18
2021-08-03 23:30:55 GMT 40.644001 -73.803253 0 296 20
2021-08-03 23:30:54 GMT 40.643959 -73.803131 0 299 18
2021-08-03 23:30:53 GMT 40.643921 -73.803017 0 303 18
2021-08-03 23:30:51 GMT 40.643810 -73.802841 0 297 15
2021-08-03 23:30:50 GMT 40.643780 -73.802750 0 301 15
2021-08-03 23:30:48 GMT 40.643719 -73.802620 0 302 17
2021-08-03 23:30:47 GMT 40.643688 -73.802551 0 301 18
2021-08-03 23:30:45 GMT 40.643600 -73.802361 0 299 17
2021-08-03 23:30:44 GMT 40.643559 -73.802261 0 301 17
2021-08-03 23:30:43 GMT 40.643509 -73.802162 0 300 15
2021-08-03 23:30:42 GMT 40.643429 -73.802002 0 298 15
2021-08-03 23:30:40 GMT 40.643398 -73.801888 0 303 14
2021-08-03 23:30:39 GMT 40.643372 -73.801826 0 303 15
2021-08-03 23:30:38 GMT 40.643330 -73.801781 0 299 17
2021-08-03 23:30:36 GMT 40.643250 -73.801590 0 299 17
2021-08-03 23:30:35 GMT 40.643211 -73.801498 0 300 17
2021-08-03 23:30:34 GMT 40.643169 -73.801430 0 296 18
2021-08-03 23:30:32 GMT 40.643101 -73.801193 0 306 14
2021-08-03 23:30:31 GMT 40.643051 -73.801109 0 304 14
2021-08-03 23:30:30 GMT 40.643002 -73.801041 0 300 13
2021-08-03 23:30:29 GMT 40.642971 -73.800980 0 298 14
2021-08-03 23:30:27 GMT 40.642910 -73.800827 0 301 14
2021-08-03 23:30:26 GMT 40.642879 -73.800797 0 298 17
2021-08-03 23:30:24 GMT 40.642799 -73.800591 0 302 15
2021-08-03 23:30:23 GMT 40.642761 -73.800529 0 300 15
2021-08-03 23:30:22 GMT 40.642738 -73.800453 0 301 16
2021-08-03 23:30:20 GMT 40.642658 -73.800270 0 306 14
2021-08-03 23:30:19 GMT 40.642632 -73.800201 0 310 14
2021-08-03 23:30:18 GMT 40.642570 -73.800110 0 308 11
2021-08-03 23:30:16 GMT 40.642529 -73.800041 0 305 17
2021-08-03 23:30:15 GMT 40.642479 -73.799988 0 302 18
2021-08-03 23:30:14 GMT 40.642429 -73.799850 0 310 15
2021-08-03 23:30:13 GMT 40.642361 -73.799713 0 316 15
2021-08-03 23:30:10 GMT 40.642250 -73.799568 0 315 14
2021-08-03 23:30:09 GMT 40.642208 -73.799507 0 317 14
2021-08-03 23:30:08 GMT 40.642151 -73.799438 0 317 13
2021-08-03 23:30:07 GMT 40.642132 -73.799408 0 317 15
2021-08-03 23:30:05 GMT 40.642021 -73.799263 0 314 12
2021-08-03 23:30:04 GMT 40.641972 -73.799232 0 310 12
2021-08-03 23:30:03 GMT 40.641930 -73.799156 0 314 11
2021-08-03 23:30:01 GMT 40.641869 -73.799080 0 313 14
2021-08-03 23:30:00 GMT 40.641811 -73.799042 0 301 14
2021-08-03 23:29:59 GMT 40.641731 -73.798912 0 295 12
2021-08-03 23:29:57 GMT 40.641708 -73.798813 0 304 10
2021-08-03 23:29:56 GMT 40.641708 -73.798767 0 306 14
2021-08-03 23:29:54 GMT 40.641621 -73.798637 0 291 12
2021-08-03 23:29:53 GMT 40.641590 -73.798569 0 288 13
2021-08-03 23:29:52 GMT 40.641560 -73.798523 0 281 14
2021-08-03 23:29:51 GMT 40.641529 -73.798363 0 279 14
2021-08-03 23:29:49 GMT 40.641510 -73.798279 0 276 14
2021-08-03 23:29:48 GMT 40.641499 -73.798111 0 274 7
2021-08-03 23:29:47 GMT 40.641479 -73.798050 0 262 11
2021-08-03 23:29:45 GMT 40.641472 -73.797981 0 258 11
2021-08-03 23:29:44 GMT 40.641479 -73.797920 0 259 13
2021-08-03 23:29:43 GMT 40.641491 -73.797821 0 261 11
2021-08-03 23:29:41 GMT 40.641510 -73.797699 0 262 12
2021-08-03 23:29:40 GMT 40.641521 -73.797577 0 262 9
2021-08-03 23:29:39 GMT 40.641521 -73.797531 0 261 9
2021-08-03 23:29:37 GMT 40.641548 -73.797440 0 273 11
2021-08-03 23:29:36 GMT 40.641548 -73.797379 0 267 11
2021-08-03 23:29:34 GMT 40.641548 -73.797218 0 261 8
2021-08-03 23:29:33 GMT 40.641529 -73.797127 0 252 9
2021-08-03 23:29:31 GMT 40.641560 -73.797096 0 257 10
2021-08-03 23:29:30 GMT 40.641560 -73.797081 0 257 14
2021-08-03 23:29:29 GMT 40.641590 -73.796967 0 264 11
2021-08-03 23:29:27 GMT 40.641590 -73.796822 0 257 8
2021-08-03 23:29:26 GMT 40.641590 -73.796761 0 257 8
2021-08-03 23:29:25 GMT 40.641621 -73.796738 0 265 9
2021-08-03 23:29:24 GMT 40.641640 -73.796631 0 268 8
2021-08-03 23:29:22 GMT 40.641609 -73.796570 0 261 7
2021-08-03 23:29:21 GMT 40.641640 -73.796539 0 268 9
2021-08-03 23:29:19 GMT 40.641640 -73.796471 0 252 11
2021-08-03 23:29:18 GMT 40.641621 -73.796402 0 238 11
2021-08-03 23:29:17 GMT 40.641640 -73.796356 0 233 11
2021-08-03 23:29:16 GMT 40.641682 -73.796211 0 210 10
2021-08-03 23:29:14 GMT 40.641701 -73.796150 0 195 11
2021-08-03 23:29:13 GMT 40.641750 -73.796097 0 189 10
2021-08-03 23:29:12 GMT 40.641842 -73.796066 0 187 9
2021-08-03 23:29:10 GMT 40.641861 -73.796066 0 185 13
2021-08-03 23:29:09 GMT 40.641911 -73.796028 0 176 14
2021-08-03 23:29:08 GMT 40.642040 -73.796028 0 178 13
2021-08-03 23:29:06 GMT 40.642101 -73.796066 0 193 13
2021-08-03 23:29:05 GMT 40.642151 -73.796066 0 193 14
2021-08-03 23:29:03 GMT 40.642269 -73.796013 0 185 17
2021-08-03 23:29:02 GMT 40.642349 -73.796013 0 188 17
2021-08-03 23:29:01 GMT 40.642410 -73.795982 0 182 18
2021-08-03 23:28:59 GMT 40.642590 -73.795937 0 171 18
2021-08-03 23:28:58 GMT 40.642689 -73.795990 0 178 16
2021-08-03 23:28:57 GMT 40.642761 -73.796043 0 187 17
2021-08-03 23:28:56 GMT 40.642899 -73.796021 0 186 19
2021-08-03 23:28:54 GMT 40.643002 -73.795998 0 186 17
2021-08-03 23:28:53 GMT 40.643089 -73.795998 0 190 16
2021-08-03 23:28:52 GMT 40.643230 -73.795990 0 191 16
2021-08-03 23:28:50 GMT 40.643311 -73.795952 0 186 15
2021-08-03 23:28:49 GMT 40.643372 -73.795937 0 186 15
2021-08-03 23:28:47 GMT 40.643520 -73.795921 0 189 16
2021-08-03 23:28:46 GMT 40.643600 -73.795914 0 189 15
2021-08-03 23:28:45 GMT 40.643669 -73.795860 0 180 14
2021-08-03 23:28:43 GMT 40.643791 -73.795822 0 171 16
2021-08-03 23:28:42 GMT 40.643871 -73.795868 0 179 15
2021-08-03 23:28:41 GMT 40.643940 -73.795860 0 177 16
2021-08-03 23:28:39 GMT 40.644100 -73.795883 0 178 13
2021-08-03 23:28:38 GMT 40.644230 -73.795898 0 185 13
2021-08-03 23:28:36 GMT 40.644291 -73.795891 0 185 13
2021-08-03 23:28:35 GMT 40.644348 -73.795883 0 174 13
2021-08-03 23:28:34 GMT 40.644459 -73.795822 0 164 16
2021-08-03 23:28:32 GMT 40.644539 -73.795830 0 160 15
2021-08-03 23:28:31 GMT 40.644600 -73.795891 0 167 15
2021-08-03 23:28:29 GMT 40.644741 -73.795952 0 176 14
2021-08-03 23:28:28 GMT 40.644798 -73.796028 0 194 15
2021-08-03 23:28:27 GMT 40.644871 -73.795959 0 179 14
2021-08-03 23:28:25 GMT 40.645000 -73.795952 0 172 14
2021-08-03 23:28:24 GMT 40.645050 -73.795929 0 168 16
2021-08-03 23:28:23 GMT 40.645142 -73.795952 0 164 14
2021-08-03 23:28:22 GMT 40.645248 -73.795967 0 158 16
2021-08-03 23:28:20 GMT 40.645329 -73.795959 0 146 16
2021-08-03 23:28:19 GMT 40.645378 -73.796043 0 155 17
2021-08-03 23:28:18 GMT 40.645451 -73.796066 0 154 18
2021-08-03 23:28:16 GMT 40.645599 -73.796173 0 153 16
2021-08-03 23:28:15 GMT 40.645672 -73.796219 0 151 15
2021-08-03 23:28:14 GMT 40.645721 -73.796204 0 140 19
2021-08-03 23:28:13 GMT 40.645870 -73.796410 0 152 16
2021-08-03 23:28:11 GMT 40.645962 -73.796471 0 150 13
2021-08-03 23:28:10 GMT 40.646019 -73.796501 0 148 13
2021-08-03 23:28:08 GMT 40.646130 -73.796547 0 138 16
2021-08-03 23:28:07 GMT 40.646160 -73.796600 0 142 19
2021-08-03 23:28:06 GMT 40.646221 -73.796661 0 141 20
2021-08-03 23:28:05 GMT 40.646370 -73.796822 0 143 18
2021-08-03 23:28:03 GMT 40.646431 -73.796867 0 141 18
2021-08-03 23:28:02 GMT 40.646511 -73.796959 0 144 16
2021-08-03 23:28:01 GMT 40.646610 -73.797058 0 146 20
2021-08-03 23:27:59 GMT 40.646702 -73.797142 0 144 17
2021-08-03 23:27:58 GMT 40.646770 -73.797203 0 142 17
2021-08-03 23:27:56 GMT 40.646881 -73.797333 0 146 18
2021-08-03 23:27:54 GMT 40.647011 -73.797470 0 151 17
2021-08-03 23:27:53 GMT 40.647079 -73.797523 0 153 17
2021-08-03 23:27:52 GMT 40.647160 -73.797569 0 151 16
2021-08-03 23:27:51 GMT 40.647209 -73.797630 0 157 17
2021-08-03 23:27:50 GMT 40.647289 -73.797668 0 156 17
2021-08-03 23:27:48 GMT 40.647419 -73.797760 0 160 18
2021-08-03 23:27:47 GMT 40.647511 -73.797821 0 163 17
2021-08-03 23:27:46 GMT 40.647591 -73.797852 0 165 17
2021-08-03 23:27:44 GMT 40.647739 -73.797897 0 164 19
2021-08-03 23:27:42 GMT 40.647919 -73.798012 0 176 17
2021-08-03 23:27:41 GMT 40.648010 -73.798027 0 182 16
2021-08-03 23:27:40 GMT 40.648090 -73.798027 0 182 15
2021-08-03 23:27:38 GMT 40.648232 -73.798019 0 183 16
2021-08-03 23:27:37 GMT 40.648289 -73.798012 0 181 17
2021-08-03 23:27:36 GMT 40.648369 -73.798012 0 181 17
2021-08-03 23:27:34 GMT 40.648521 -73.798012 0 185 18
2021-08-03 23:27:33 GMT 40.648590 -73.797981 0 180 18
2021-08-03 23:27:32 GMT 40.648670 -73.797981 0 179 19
2021-08-03 23:27:31 GMT 40.648762 -73.797981 0 179 19
2021-08-03 23:27:29 GMT 40.648930 -73.797981 0 181 19
2021-08-03 23:27:28 GMT 40.649029 -73.797958 0 176 18
2021-08-03 23:27:27 GMT 40.649109 -73.797958 0 175 18
2021-08-03 23:27:25 GMT 40.649261 -73.797997 0 181 20
2021-08-03 23:27:24 GMT 40.649368 -73.797981 0 176 18
2021-08-03 23:27:22 GMT 40.649521 -73.798042 0 187 20
2021-08-03 23:27:21 GMT 40.649609 -73.798019 0 186 20
2021-08-03 23:27:20 GMT 40.649670 -73.797997 0 185 24
2021-08-03 23:27:19 GMT 40.649799 -73.797997 0 189 21
2021-08-03 23:27:17 GMT 40.650021 -73.798019 0 198 19
2021-08-03 23:27:16 GMT 40.650120 -73.797981 0 198 18
2021-08-03 23:27:13 GMT 40.650372 -73.797859 0 195 17
2021-08-03 23:27:11 GMT 40.650520 -73.797783 0 198 16
2021-08-03 23:27:10 GMT 40.650581 -73.797836 0 215 19
2021-08-03 23:27:09 GMT 40.650639 -73.797813 0 218 21
2021-08-03 23:27:08 GMT 40.650711 -73.797729 0 218 21
2021-08-03 23:27:07 GMT 40.650799 -73.797684 0 224 23
2021-08-03 23:27:05 GMT 40.650959 -73.797478 0 226 19
2021-08-03 23:27:04 GMT 40.651031 -73.797440 0 233 20
2021-08-03 23:27:02 GMT 40.651138 -73.797241 0 233 20
2021-08-03 23:27:01 GMT 40.651199 -73.797127 0 233 19
2021-08-03 23:26:59 GMT 40.651321 -73.796959 0 240 20
2021-08-03 23:26:58 GMT 40.651379 -73.796852 0 242 19
2021-08-03 23:26:57 GMT 40.651409 -73.796707 0 234 17
2021-08-03 23:26:56 GMT 40.651508 -73.796562 0 241 17
2021-08-03 23:26:54 GMT 40.651531 -73.796448 0 233 17
2021-08-03 23:26:53 GMT 40.651562 -73.796356 0 229 17
2021-08-03 23:26:52 GMT 40.651611 -73.796303 0 233 20
2021-08-03 23:26:50 GMT 40.651749 -73.796127 0 250 16
2021-08-03 23:26:49 GMT 40.651772 -73.796059 0 249 18
2021-08-03 23:26:47 GMT 40.651810 -73.795860 0 245 20
2021-08-03 23:26:46 GMT 40.651852 -73.795738 0 242 19
2021-08-03 23:26:45 GMT 40.651901 -73.795486 0 230 20
2021-08-03 23:26:43 GMT 40.651958 -73.795403 0 231 20
2021-08-03 23:26:42 GMT 40.652050 -73.795273 0 238 16
2021-08-03 23:26:41 GMT 40.652100 -73.795143 0 239 13
2021-08-03 23:26:39 GMT 40.652180 -73.795021 0 244 13
2021-08-03 23:26:38 GMT 40.652168 -73.795013 0 240 19
2021-08-03 23:26:37 GMT 40.652222 -73.794899 0 241 18
2021-08-03 23:26:36 GMT 40.652302 -73.794724 0 244 19
2021-08-03 23:26:34 GMT 40.652340 -73.794632 0 244 20
2021-08-03 23:26:33 GMT 40.652382 -73.794518 0 243 20
2021-08-03 23:26:32 GMT 40.652458 -73.794258 0 241 17
2021-08-03 23:26:30 GMT 40.652489 -73.794167 0 240 18
2021-08-03 23:26:29 GMT 40.652538 -73.793991 0 236 19
2021-08-03 23:26:27 GMT 40.652649 -73.793869 0 246 16
2021-08-03 23:26:26 GMT 40.652679 -73.793793 0 248 16
2021-08-03 23:26:25 GMT 40.652740 -73.793610 0 251 15
2021-08-03 23:26:23 GMT 40.652790 -73.793518 0 260 15
2021-08-03 23:26:22 GMT 40.652809 -73.793427 0 261 15
2021-08-03 23:26:21 GMT 40.652809 -73.793289 0 254 18
2021-08-03 23:26:19 GMT 40.652821 -73.793221 0 256 20
2021-08-03 23:26:17 GMT 40.652889 -73.792976 0 268 19
2021-08-03 23:26:16 GMT 40.652901 -73.792862 0 271 18
2021-08-03 23:26:15 GMT 40.652901 -73.792732 0 275 16
2021-08-03 23:26:14 GMT 40.652908 -73.792671 0 276 19
2021-08-03 23:26:13 GMT 40.652901 -73.792526 0 279 17
2021-08-03 23:26:11 GMT 40.652889 -73.792313 0 287 16
2021-08-03 23:26:10 GMT 40.652840 -73.792107 0 289 13
2021-08-03 23:26:08 GMT 40.652840 -73.792053 0 291 15
2021-08-03 23:26:07 GMT 40.652809 -73.791969 0 288 16
2021-08-03 23:26:05 GMT 40.652760 -73.791809 0 280 17
2021-08-03 23:26:04 GMT 40.652748 -73.791702 0 283 17
2021-08-03 23:26:03 GMT 40.652729 -73.791580 0 285 15
2021-08-03 23:26:02 GMT 40.652710 -73.791359 0 288 12
2021-08-03 23:26:00 GMT 40.652679 -73.791351 0 286 15
2021-08-03 23:25:58 GMT 40.652649 -73.791107 0 292 10
2021-08-03 23:25:57 GMT 40.652618 -73.791092 0 287 13
2021-08-03 23:25:56 GMT 40.652599 -73.791023 0 283 12
2021-08-03 23:25:55 GMT 40.652569 -73.790977 0 279 14
2021-08-03 23:25:54 GMT 40.652569 -73.790894 0 285 14
2021-08-03 23:25:52 GMT 40.652519 -73.790703 0 285 12
2021-08-03 23:25:51 GMT 40.652512 -73.790627 0 283 11
2021-08-03 23:25:50 GMT 40.652470 -73.790527 0 280 8
2021-08-03 23:25:48 GMT 40.652481 -73.790428 0 293 7
2021-08-03 23:25:47 GMT 40.652470 -73.790367 0 288 7
2021-08-03 23:25:46 GMT 40.652439 -73.790359 0 281 8
2021-08-03 23:25:45 GMT 40.652439 -73.790314 0 288 8
2021-08-03 23:25:43 GMT 40.652439 -73.790230 0 298 9
2021-08-03 23:25:42 GMT 40.652451 -73.790161 0 295 9
2021-08-03 23:25:41 GMT 40.652401 -73.790123 0 289 8
2021-08-03 23:25:39 GMT 40.652359 -73.790009 0 285 6
2021-08-03 23:25:38 GMT 40.652340 -73.790001 0 277 8
2021-08-03 23:25:37 GMT 40.652309 -73.789932 0 277 6
2021-08-03 23:25:36 GMT 40.652302 -73.789864 0 300 6
2021-08-03 23:25:34 GMT 40.652370 -73.789841 0 300 9
2021-08-03 23:25:32 GMT 40.652328 -73.789749 0 300 8
2021-08-03 23:25:31 GMT 40.652321 -73.789711 0 297 9
2021-08-03 23:25:29 GMT 40.652241 -73.789581 0 282 6
2021-08-03 23:25:28 GMT 40.652222 -73.789543 0 282 6
2021-08-03 23:25:27 GMT 40.652222 -73.789551 0 279 9
2021-08-03 23:25:26 GMT 40.652229 -73.789429 0 296 9
2021-08-03 23:25:24 GMT 40.652199 -73.789307 0 305 4
2021-08-03 23:25:23 GMT 40.652210 -73.789291 0 310 4
2021-08-03 23:25:21 GMT 40.652180 -73.789291 0 313 8
2021-08-03 23:25:20 GMT 40.652180 -73.789238 0 330 9
2021-08-03 23:25:19 GMT 40.652149 -73.789177 0 343 7
2021-08-03 23:25:18 GMT 40.652119 -73.789101 0 345 8
2021-08-03 23:25:16 GMT 40.652081 -73.789108 0 344 7
2021-08-03 23:25:15 GMT 40.652061 -73.789078 0 349 9
2021-08-03 23:25:13 GMT 40.651970 -73.789017 0 5 7
2021-08-03 23:25:12 GMT 40.651939 -73.789040 0 3 8
2021-08-03 23:25:11 GMT 40.651909 -73.789032 0 6 7
2021-08-03 23:25:10 GMT 40.651840 -73.789070 0 355 8
2021-08-03 23:25:08 GMT 40.651829 -73.789078 0 3 10
2021-08-03 23:25:07 GMT 40.651779 -73.789032 0 9 10
2021-08-03 23:25:06 GMT 40.651661 -73.789078 0 3 8
2021-08-03 23:25:04 GMT 40.651619 -73.789078 0 7 8
2021-08-03 23:25:03 GMT 40.651600 -73.789032 0 15 10
2021-08-03 23:25:02 GMT 40.651520 -73.789093 0 358 10
2021-08-03 23:25:00 GMT 40.651489 -73.789124 0 358 11
2021-08-03 23:24:59 GMT 40.651428 -73.789101 0 4 10
2021-08-03 23:24:58 GMT 40.651371 -73.789078 0 7 9
2021-08-03 23:24:57 GMT 40.651291 -73.789101 0 5 10
2021-08-03 23:24:55 GMT 40.651230 -73.789108 0 3 9
2021-08-03 23:24:53 GMT 40.651150 -73.789047 0 23 10
2021-08-03 23:24:52 GMT 40.651089 -73.789047 0 31 9
2021-08-03 23:24:51 GMT 40.651039 -73.789040 0 36 9
2021-08-03 23:24:50 GMT 40.650940 -73.789040 0 42 9
2021-08-03 23:24:48 GMT 40.650890 -73.789047 0 43 9
2021-08-03 23:24:47 GMT 40.650841 -73.789070 0 46 10
2021-08-03 23:24:45 GMT 40.650650 -73.789108 0 52 9
2021-08-03 23:24:44 GMT 40.650600 -73.789146 0 52 9
2021-08-03 23:24:37 GMT 40.650486 -73.789253 0 45 10
2021-08-03 23:24:23 GMT 40.650135 -73.789879 0 61 9
2021-08-03 23:24:16 GMT 40.650009 -73.790192 0 61 7
2021-08-03 23:24:06 GMT 40.649906 -73.790436 0 61 0
2021-08-03 23:23:13 GMT 40.649891 -73.790466 0 59 0
2021-08-03 23:22:53 GMT 40.649883 -73.790466 0 59 0
2021-08-03 23:22:43 GMT 40.649849 -73.790543 0 59 4
2021-08-03 23:22:33 GMT 40.649738 -73.790810 0 59 7
2021-08-03 23:22:20 GMT 40.649555 -73.791222 0 59 6
2021-08-03 23:22:05 GMT 40.649471 -73.791374 0 56 0
2021-08-03 23:21:45 GMT 40.649471 -73.791367 0 56 0
2021-08-03 23:21:30 GMT 40.649471 -73.791382 0 56 0
2021-08-03 23:21:20 GMT 40.649483 -73.791397 0 56 0
2021-08-03 23:21:00 GMT 40.649460 -73.791382 0 56 0
2021-08-03 23:20:55 GMT 40.649483 -73.791389 0 56 0
2021-08-03 23:20:45 GMT 40.649460 -73.791374 0 56 0
2021-08-03 23:20:35 GMT 40.649460 -73.791382 0 56 0
2021-08-03 23:20:25 GMT 40.649483 -73.791397 0 56 0
2021-08-03 23:20:16 GMT 40.649471 -73.791389 0 56 0
2021-08-03 23:19:56 GMT 40.649483 -73.791382 0 56 0
2021-08-03 23:19:35 GMT 40.649483 -73.791397 0 56 0
2021-08-03 23:19:25 GMT 40.649483 -73.791389 0 56 0
2021-08-03 23:19:18 GMT 40.649483 -73.791397 0 56 0
2021-08-03 23:19:09 GMT 40.649483 -73.791389 0 56 0
2021-08-03 23:19:04 GMT 40.649483 -73.791359 0 59 1
2021-08-03 23:18:52 GMT 40.649517 -73.791260 0 61 1
2021-08-03 23:18:42 GMT 40.649551 -73.791183 0 61 3
2021-08-03 23:18:32 GMT 40.649574 -73.791077 0 67 3
2021-08-03 23:18:20 GMT 40.649601 -73.790871 0 75 4
2021-08-03 23:18:11 GMT 40.649586 -73.790741 0 84 3
2021-08-03 23:18:01 GMT 40.649494 -73.790642 0 112 3
2021-08-03 23:17:50 GMT 40.649380 -73.790604 0 137 3
2021-08-03 23:17:29 GMT 40.649082 -73.790543 0 165 4
2021-08-03 23:17:10 GMT 40.648926 -73.790520 0 171 0
2021-08-03 23:17:09 GMT 40.648922 -73.790512 0 171 0
2021-08-03 23:16:56 GMT 40.648933 -73.790527 0 171 0
2021-08-03 23:16:46 GMT 40.648922 -73.790512 0 171 0
2021-08-03 23:16:25 GMT 40.648937 -73.790527 0 171 0
2021-08-03 23:16:14 GMT 40.648937 -73.790520 0 171 0
2021-08-03 23:16:04 GMT 40.648785 -73.790283 0 171 4
2021-08-03 23:15:54 GMT 40.648922 -73.790512 0 171 1
2021-08-03 23:15:43 GMT 40.648891 -73.790466 0 171 0
2021-08-03 23:15:33 GMT 40.648853 -73.790405 0 171 0
2021-08-03 23:15:23 GMT 40.648937 -73.790527 0 171 0
2021-08-03 23:15:12 GMT 40.648926 -73.790520 0 171 0
2021-08-03 23:15:02 GMT 40.648853 -73.790421 0 171 0
2021-08-03 23:14:51 GMT 40.648914 -73.790520 0 171 3
2021-08-03 23:14:40 GMT 40.648773 -73.790268 0 171 0
2021-08-03 23:14:35 GMT 40.648922 -73.790527 0 171 0
2021-08-03 23:14:29 GMT 40.648922 -73.790512 0 171 0
2021-08-03 23:14:19 GMT 40.648853 -73.790421 0 171 0
2021-08-03 23:14:09 GMT 40.648853 -73.790405 0 171 0
2021-08-03 23:14:05 GMT 40.648842 -73.790344 0 171 0
2021-08-03 23:13:57 GMT 40.648865 -73.790466 0 171 0
2021-08-03 23:13:47 GMT 40.648796 -73.790344 0 171 0
2021-08-03 23:13:37 GMT 40.648922 -73.790512 0 171 0
2021-08-03 23:13:26 GMT 40.648903 -73.790497 0 171 0
2021-08-03 23:13:17 GMT 40.648846 -73.790375 0 171 0
2021-08-03 23:13:07 GMT 40.648865 -73.790466 0 171 0
2021-08-03 23:12:57 GMT 40.648876 -73.790375 0 171 5
2021-08-03 23:12:52 GMT 40.648937 -73.790520 0 171 0
2021-08-03 23:12:45 GMT 40.648926 -73.790520 0 171 0
2021-08-03 23:12:36 GMT 40.648830 -73.790375 0 171 0
2021-08-03 23:12:19 GMT 40.648945 -73.790527 0 171 0
2021-08-03 23:12:15 GMT 40.648937 -73.790527 0 171 0
2021-08-03 23:12:05 GMT 40.648945 -73.790543 0 171 0
2021-08-03 23:11:55 GMT 40.648956 -73.790543 0 171 0
2021-08-03 23:11:52 GMT 40.648983 -73.790581 0 171 0
2021-08-03 23:11:43 GMT 40.648880 -73.790436 0 171 0
2021-08-03 23:11:32 GMT 40.648933 -73.790527 0 171 0
2021-08-03 23:11:23 GMT 40.648922 -73.790527 0 171 0
2021-08-03 23:11:12 GMT 40.648819 -73.790344 0 171 0
2021-08-03 23:11:02 GMT 40.648933 -73.790527 0 171 0
2021-08-03 23:10:52 GMT 40.648926 -73.790527 0 171 2
2021-08-03 23:10:41 GMT 40.648926 -73.790520 0 171 0
2021-08-03 23:10:31 GMT 40.648853 -73.790421 0 171 0
2021-08-03 23:10:21 GMT 40.648853 -73.790421 0 171 0
2021-08-03 23:10:11 GMT 40.648876 -73.790451 0 171 0
2021-08-03 23:09:59 GMT 40.648926 -73.790520 0 171 0
2021-08-03 23:09:34 GMT 40.648922 -73.790527 0 171 0
2021-08-03 23:09:29 GMT 40.648926 -73.790520 0 171 0
2021-08-03 23:09:19 GMT 40.648922 -73.790527 0 171 4
2021-08-03 23:09:09 GMT 40.648853 -73.790405 0 171 0
2021-08-03 23:08:53 GMT 40.648865 -73.790436 0 171 2
2021-08-03 23:08:48 GMT 40.648853 -73.790421 0 171 0
2021-08-03 23:08:38 GMT 40.648796 -73.790344 0 171 0
2021-08-03 23:08:27 GMT 40.648922 -73.790527 0 171 0
2021-08-03 23:08:17 GMT 40.648922 -73.790543 0 171 7
2021-08-03 23:08:07 GMT 40.648808 -73.790359 0 171 0
2021-08-03 23:07:56 GMT 40.648762 -73.790222 0 171 3
2021-08-03 23:07:46 GMT 40.648922 -73.790527 0 171 0
2021-08-03 23:07:35 GMT 40.648853 -73.790436 0 171 0
2021-08-03 23:07:25 GMT 40.648922 -73.790527 0 171 0
2021-08-03 23:07:14 GMT 40.648922 -73.790558 0 171 5
2021-08-03 23:07:04 GMT 40.648926 -73.790527 0 171 2
2021-08-03 23:06:53 GMT 40.648933 -73.790558 0 171 4
2021-08-03 23:06:43 GMT 40.648937 -73.790527 0 171 0
2021-08-03 23:06:33 GMT 40.648926 -73.790527 0 171 3
2021-08-03 23:06:23 GMT 40.648903 -73.790550 0 171 2
2021-08-03 23:06:12 GMT 40.648926 -73.790527 0 171 0
2021-08-03 23:06:01 GMT 40.648914 -73.790520 0 171 4
2021-08-03 23:05:51 GMT 40.648933 -73.790527 0 171 0
2021-08-03 23:05:39 GMT 40.648937 -73.790527 0 171 0
2021-08-03 23:05:31 GMT 40.648933 -73.790527 0 171 0
2021-08-03 23:05:20 GMT 40.648739 -73.790192 0 171 0
2021-08-03 23:05:10 GMT 40.648937 -73.790520 0 171 0
2021-08-03 23:05:00 GMT 40.648933 -73.790512 0 171 0
2021-08-03 23:04:49 GMT 40.648926 -73.790520 0 171 0
2021-08-03 23:04:38 GMT 40.648819 -73.790359 0 171 0
2021-08-03 23:04:28 GMT 40.648796 -73.790359 0 171 0
2021-08-03 23:04:21 GMT 40.648739 -73.790222 0 171 2
2021-08-03 23:04:17 GMT 40.648922 -73.790512 0 171 0
2021-08-03 23:04:08 GMT 40.648853 -73.790421 0 171 0
2021-08-03 23:03:57 GMT 40.648846 -73.790390 0 171 6
2021-08-03 23:03:47 GMT 40.648773 -73.790298 0 171 0
2021-08-03 23:03:37 GMT 40.648922 -73.790527 0 171 0
2021-08-03 23:03:26 GMT 40.648937 -73.790527 0 171 0
2021-08-03 23:03:16 GMT 40.648914 -73.790497 0 171 0
2021-08-03 23:03:06 GMT 40.648933 -73.790527 0 171 0
2021-08-03 23:02:55 GMT 40.648926 -73.790527 0 171 0
2021-08-03 23:02:45 GMT 40.648949 -73.790565 0 171 1
2021-08-03 23:02:37 GMT 40.648888 -73.790482 0 171 0
2021-08-03 23:02:34 GMT 40.648891 -73.790466 0 171 0
2021-08-03 23:02:27 GMT 40.648853 -73.790390 0 171 4
2021-08-03 23:02:13 GMT 40.648933 -73.790527 0 171 0
2021-08-03 23:02:03 GMT 40.648926 -73.790527 0 171 0
2021-08-03 23:01:53 GMT 40.648853 -73.790436 0 171 0
2021-08-03 23:01:43 GMT 40.648846 -73.790405 0 171 0
2021-08-03 23:01:32 GMT 40.648922 -73.790527 0 171 0
2021-08-03 23:01:21 GMT 40.648869 -73.790451 0 171 0
2021-08-03 23:01:12 GMT 40.648880 -73.790451 0 171 0
2021-08-03 23:00:48 GMT 40.648937 -73.790527 0 171 0
2021-08-03 23:00:38 GMT 40.648933 -73.790527 0 171 0
2021-08-03 23:00:28 GMT 40.648937 -73.790527 0 171 0
2021-08-03 23:00:18 GMT 40.648933 -73.790527 0 171 0
2021-08-03 23:00:08 GMT 40.648914 -73.790497 0 171 0
2021-08-03 22:59:54 GMT 40.648914 -73.790520 0 171 0
2021-08-03 22:59:44 GMT 40.648922 -73.790512 0 171 0
2021-08-03 22:59:34 GMT 40.648926 -73.790527 0 171 0
2021-08-03 22:59:24 GMT 40.648926 -73.790520 0 171 0
2021-08-03 22:58:43 GMT 40.648914 -73.790520 0 171 0
2021-08-03 22:58:38 GMT 40.648933 -73.790527 0 171 0
2021-08-03 22:58:23 GMT 40.648922 -73.790527 0 171 0
2021-08-03 22:58:18 GMT 40.648926 -73.790520 0 171 0
2021-08-03 22:58:08 GMT 40.648922 -73.790512 0 171 0
2021-08-03 22:58:03 GMT 40.648926 -73.790520 0 171 0
2021-08-03 22:57:43 GMT 40.648914 -73.790520 0 171 0
2021-08-03 22:57:33 GMT 40.648926 -73.790520 0 171 0
2021-08-03 22:57:23 GMT 40.648922 -73.790512 0 171 0
2021-08-03 22:57:09 GMT 40.648926 -73.790520 0 171 0
2021-08-03 22:56:59 GMT 40.648922 -73.790527 0 171 0
2021-08-03 22:56:19 GMT 40.648933 -73.790527 0 171 0
2021-08-03 22:55:59 GMT 40.648926 -73.790550 0 171 0
2021-08-03 22:55:55 GMT 40.648933 -73.790543 0 171 0
2021-08-03 22:55:42 GMT 40.648926 -73.790550 0 171 0
2021-08-03 22:55:33 GMT 40.648933 -73.790543 0 171 0
2021-08-03 22:55:29 GMT 40.648933 -73.790558 0 171 0
2021-08-03 22:55:18 GMT 40.649014 -73.790665 0 171 0
2021-08-03 22:55:13 GMT 40.648933 -73.790543 0 171 0
2021-08-03 22:54:57 GMT 40.648937 -73.790550 0 171 0
2021-08-03 22:54:48 GMT 40.648926 -73.790550 0 171 0
2021-08-03 22:54:28 GMT 40.648933 -73.790543 0 171 0
2021-08-03 22:54:23 GMT 40.648926 -73.790527 0 171 0
2021-08-03 22:54:12 GMT 40.648922 -73.790543 0 171 0
2021-08-03 22:53:57 GMT 40.648926 -73.790527 0 171 0
2021-08-03 22:53:52 GMT 40.648922 -73.790543 0 171 0
2021-08-03 22:53:42 GMT 40.648926 -73.790520 0 171 0
2021-08-03 22:53:32 GMT 40.648937 -73.790550 0 171 0
2021-08-03 22:53:22 GMT 40.648926 -73.790550 0 171 0
2021-08-03 22:53:08 GMT 40.648926 -73.790565 0 171 0
2021-08-03 22:53:03 GMT 40.648922 -73.790558 0 171 0
2021-08-03 22:52:52 GMT 40.648926 -73.790565 0 171 0

Making use of Plane Finder data

You are free to use the raw flight data, aircraft information and images provided in this report for your own purposes provided the data is correctly attributed to Plane Finder. We ask that you please credit Plane Finder and link to planefinder.net in close proximity to the content.

Optionally one of the following logos (no smaller then 150x24px) can be used and must link to planefinder.net

Embedding the Plane Finder map

You are welcome to embed the Plane Finder playback map on your website to offer visitors a more interactive experience. We suggest using the following HTML code:

<iframe src="//planefinder.net/data/report/AA198-N754AN-7700-squawk-2021-08-04/map" width="800" height="600" seamless="seamless"></iframe>

Where our data comes from

Plane Finder has a global network of data feeds and antenna radars that receive data broadcast directly from aircraft. The primary technologies used are ADS-B and MLAT. We also show feeds from the FAA and a FLARM glider feed.

Click here to find out more about the Plane Finder network.

How we collect our data